<?xml version="1.0" encoding="UTF-8" ?>
<gpx xmlns="http://www.topografix.com/GPX/1/1" version="1.1" creator="OSMTracker for Android™ - https://github.com/labexp/osmtracker-android" xmlns:xsi="http://www.w3.org/2001/XMLSchema-instance" xsi:schemaLocation="http://www.topografix.com/GPX/1/1 http://www.topografix.com/GPX/1/1/gpx.xsd ">
	<metadata>
		<name>2022-11-13_10-48-56</name>
		<keywords>osmtracker</keywords>
	</metadata>
	<wpt lat="22.15583449" lon="113.56191916">
		<ele>54.2838134765625</ele>
		<time>2022-11-13T03:22:17Z</time>
		<name><![CDATA[Photo]]></name>
		<link href="2022-11-13_11-22-17.jpg">
			<text>2022-11-13_11-22-17.jpg</text>
		</link>
		<sat>31</sat>
	</wpt>
	<wpt lat="22.15620874" lon="113.56264439">
		<ele>72.10089111328125</ele>
		<time>2022-11-13T03:23:34Z</time>
		<name><![CDATA[Footway]]></name>
		<sat>26</sat>
	</wpt>
	<wpt lat="22.19464121" lon="113.55301104">
		<ele>45.85723876953125</ele>
		<time>2022-11-13T04:17:01Z</time>
		<name><![CDATA[Photo]]></name>
		<link href="2022-11-13_12-17-01.jpg">
			<text>2022-11-13_12-17-01.jpg</text>
		</link>
		<sat>34</sat>
	</wpt>
	<wpt lat="22.18641204" lon="113.55706565">
		<ele>4.89544677734375</ele>
		<time>2022-11-13T04:43:04Z</time>
		<name><![CDATA[Photo]]></name>
		<link href="2022-11-13_12-43-04.jpg">
			<text>2022-11-13_12-43-04.jpg</text>
		</link>
		<sat>31</sat>
	</wpt>
	<wpt lat="22.19919997" lon="113.54753305">
		<ele>12.030029296875</ele>
		<time>2022-11-13T04:55:37Z</time>
		<name><![CDATA[Photo]]></name>
		<link href="2022-11-13_12-55-37.jpg">
			<text>2022-11-13_12-55-37.jpg</text>
		</link>
		<sat>23</sat>
	</wpt>
	<wpt lat="22.20032574" lon="113.54766178">
		<ele>8.030670166015625</ele>
		<time>2022-11-13T04:59:01Z</time>
		<name><![CDATA[Photo]]></name>
		<link href="2022-11-13_12-59-01.jpg">
			<text>2022-11-13_12-59-01.jpg</text>
		</link>
		<sat>31</sat>
	</wpt>
	<wpt lat="22.20308952" lon="113.54480681">
		<ele>-2.063690185546875</ele>
		<time>2022-11-13T05:10:32Z</time>
		<name><![CDATA[Photo]]></name>
		<link href="2022-11-13_13-10-32.jpg">
			<text>2022-11-13_13-10-32.jpg</text>
		</link>
		<sat>25</sat>
	</wpt>
	<wpt lat="22.20437031" lon="113.54574381">
		<ele>17.96307373046875</ele>
		<time>2022-11-13T06:41:14Z</time>
		<name><![CDATA[Photo]]></name>
		<link href="2022-11-13_14-41-14.jpg">
			<text>2022-11-13_14-41-14.jpg</text>
		</link>
		<sat>30</sat>
	</wpt>
	<wpt lat="22.18691565" lon="113.53092688">
		<ele>1.159881591796875</ele>
		<time>2022-11-13T08:26:36Z</time>
		<name><![CDATA[Photo]]></name>
		<link href="2022-11-13_16-26-36.jpg">
			<text>2022-11-13_16-26-36.jpg</text>
		</link>
		<sat>30</sat>
	</wpt>
	<wpt lat="22.18633808" lon="113.5308717">
		<ele>-2.391021728515625</ele>
		<time>2022-11-13T09:35:27Z</time>
		<name><![CDATA[Photo]]></name>
		<link href="2022-11-13_17-35-27.jpg">
			<text>2022-11-13_17-35-27.jpg</text>
		</link>
		<sat>31</sat>
	</wpt>
	<wpt lat="22.18043159" lon="113.53967951">
		<ele>-10.27838134765625</ele>
		<time>2022-11-13T11:06:54Z</time>
		<name><![CDATA[Photo]]></name>
		<link href="2022-11-13_19-06-54.jpg">
			<text>2022-11-13_19-06-54.jpg</text>
		</link>
		<sat>34</sat>
	</wpt>
	<trk>
		<name><![CDATA[已以 OSMTracker for Android™ 记录轨迹]]></name>
		<trkseg>
			<trkpt lat="22.20090793" lon="113.5375351">
				<ele>4.654144287109375</ele>
				<time>2022-11-13T02:49:01Z</time>
				<extensions>
					<speed>0.0</speed>
				</extensions>
			</trkpt>
			<trkpt lat="22.20090793" lon="113.5375351">
				<ele>4.654144287109375</ele>
				<time>2022-11-13T02:49:01Z</time>
				<extensions>
					<speed>0.0</speed>
				</extensions>
			</trkpt>
			<trkpt lat="22.20092619" lon="113.53755372">
				<ele>2.703521728515625</ele>
				<time>2022-11-13T02:49:02Z</time>
				<extensions>
					<speed>0.0</speed>
				</extensions>
			</trkpt>
			<trkpt lat="22.20091769" lon="113.53755147">
				<ele>6.375732421875</ele>
				<time>2022-11-13T02:49:03Z</time>
				<extensions>
					<speed>0.0</speed>
				</extensions>
			</trkpt>
			<trkpt lat="22.20089299" lon="113.53751565">
				<ele>10.26959228515625</ele>
				<time>2022-11-13T02:49:04Z</time>
				<extensions>
					<speed>0.0</speed>
				</extensions>
			</trkpt>
			<trkpt lat="22.20087828" lon="113.53751549">
				<ele>11.9261474609375</ele>
				<time>2022-11-13T02:49:05Z</time>
				<extensions>
					<speed>0.0</speed>
				</extensions>
			</trkpt>
			<trkpt lat="22.20087054" lon="113.53752618">
				<ele>13.00457763671875</ele>
				<time>2022-11-13T02:49:06Z</time>
				<extensions>
					<speed>0.0</speed>
				</extensions>
			</trkpt>
			<trkpt lat="22.20086298" lon="113.53752727">
				<ele>15.052734375</ele>
				<time>2022-11-13T02:49:07Z</time>
				<extensions>
					<speed>0.0</speed>
				</extensions>
			</trkpt>
			<trkpt lat="22.20086785" lon="113.53754608">
				<ele>14.44598388671875</ele>
				<time>2022-11-13T02:49:08Z</time>
				<extensions>
					<speed>0.0</speed>
				</extensions>
			</trkpt>
			<trkpt lat="22.20086673" lon="113.53755371">
				<ele>14.30206298828125</ele>
				<time>2022-11-13T02:49:09Z</time>
				<extensions>
					<speed>0.0</speed>
				</extensions>
			</trkpt>
			<trkpt lat="22.2008692" lon="113.53755978">
				<ele>13.44970703125</ele>
				<time>2022-11-13T02:49:10Z</time>
				<extensions>
					<speed>0.0</speed>
				</extensions>
			</trkpt>
			<trkpt lat="22.20087386" lon="113.53756051">
				<ele>13.19921875</ele>
				<time>2022-11-13T02:49:11Z</time>
				<extensions>
					<speed>0.0</speed>
				</extensions>
			</trkpt>
			<trkpt lat="22.20087362" lon="113.53757251">
				<ele>12.77532958984375</ele>
				<time>2022-11-13T02:49:12Z</time>
				<extensions>
					<speed>0.0</speed>
				</extensions>
			</trkpt>
			<trkpt lat="22.20086902" lon="113.53756335">
				<ele>13.15240478515625</ele>
				<time>2022-11-13T02:49:13Z</time>
				<extensions>
					<speed>0.0</speed>
				</extensions>
			</trkpt>
			<trkpt lat="22.20086793" lon="113.53755959">
				<ele>13.21820068359375</ele>
				<time>2022-11-13T02:49:14Z</time>
				<extensions>
					<speed>0.0</speed>
				</extensions>
			</trkpt>
			<trkpt lat="22.20086867" lon="113.53755493">
				<ele>13.53961181640625</ele>
				<time>2022-11-13T02:49:15Z</time>
				<extensions>
					<speed>0.0</speed>
				</extensions>
			</trkpt>
			<trkpt lat="22.20086381" lon="113.53755023">
				<ele>14.090576171875</ele>
				<time>2022-11-13T02:49:16Z</time>
				<extensions>
					<speed>0.0</speed>
				</extensions>
			</trkpt>
			<trkpt lat="22.20086003" lon="113.5375442">
				<ele>14.5220947265625</ele>
				<time>2022-11-13T02:49:17Z</time>
				<extensions>
					<speed>0.0</speed>
				</extensions>
			</trkpt>
			<trkpt lat="22.20085697" lon="113.53753339">
				<ele>14.7108154296875</ele>
				<time>2022-11-13T02:49:18Z</time>
				<extensions>
					<speed>0.0</speed>
				</extensions>
			</trkpt>
			<trkpt lat="22.20084786" lon="113.53753067">
				<ele>14.6265869140625</ele>
				<time>2022-11-13T02:49:19Z</time>
				<extensions>
					<speed>0.0</speed>
				</extensions>
			</trkpt>
			<trkpt lat="22.20084666" lon="113.53752966">
				<ele>14.57257080078125</ele>
				<time>2022-11-13T02:49:20Z</time>
				<extensions>
					<speed>0.0</speed>
				</extensions>
			</trkpt>
			<trkpt lat="22.2008408" lon="113.53752689">
				<ele>14.9119873046875</ele>
				<time>2022-11-13T02:49:21Z</time>
				<extensions>
					<speed>0.0</speed>
				</extensions>
			</trkpt>
			<trkpt lat="22.2008349" lon="113.53752357">
				<ele>15.3665771484375</ele>
				<time>2022-11-13T02:49:22Z</time>
				<extensions>
					<speed>0.0</speed>
				</extensions>
			</trkpt>
			<trkpt lat="22.20083508" lon="113.53751632">
				<ele>15.860595703125</ele>
				<time>2022-11-13T02:49:23Z</time>
				<extensions>
					<speed>0.0</speed>
				</extensions>
			</trkpt>
			<trkpt lat="22.2008353" lon="113.5375104">
				<ele>15.83441162109375</ele>
				<time>2022-11-13T02:49:24Z</time>
				<extensions>
					<speed>0.0</speed>
				</extensions>
			</trkpt>
			<trkpt lat="22.20084154" lon="113.5374982">
				<ele>15.01690673828125</ele>
				<time>2022-11-13T02:49:25Z</time>
				<extensions>
					<speed>0.0</speed>
				</extensions>
			</trkpt>
			<trkpt lat="22.20084476" lon="113.53749456">
				<ele>15.06805419921875</ele>
				<time>2022-11-13T02:49:26Z</time>
				<extensions>
					<speed>0.0</speed>
				</extensions>
			</trkpt>
			<trkpt lat="22.20084015" lon="113.53749252">
				<ele>15.219482421875</ele>
				<time>2022-11-13T02:49:27Z</time>
				<extensions>
					<speed>0.0</speed>
				</extensions>
			</trkpt>
			<trkpt lat="22.20082021" lon="113.53748513">
				<ele>15.32977294921875</ele>
				<time>2022-11-13T02:49:28Z</time>
				<extensions>
					<speed>3.190000057220459</speed>
				</extensions>
			</trkpt>
			<trkpt lat="22.20081108" lon="113.53747839">
				<ele>15.83758544921875</ele>
				<time>2022-11-13T02:49:29Z</time>
				<extensions>
					<speed>1.7300000190734863</speed>
				</extensions>
			</trkpt>
			<trkpt lat="22.20077314" lon="113.53745989">
				<ele>16.85003662109375</ele>
				<time>2022-11-13T02:49:30Z</time>
				<extensions>
					<speed>4.920000076293945</speed>
				</extensions>
			</trkpt>
			<trkpt lat="22.20073932" lon="113.53744609">
				<ele>16.0325927734375</ele>
				<time>2022-11-13T02:49:31Z</time>
				<extensions>
					<speed>5.079999923706055</speed>
				</extensions>
			</trkpt>
			<trkpt lat="22.20070453" lon="113.53743227">
				<ele>16.2515869140625</ele>
				<time>2022-11-13T02:49:32Z</time>
				<extensions>
					<speed>5.960000038146973</speed>
				</extensions>
			</trkpt>
			<trkpt lat="22.20065656" lon="113.53742109">
				<ele>17.0091552734375</ele>
				<time>2022-11-13T02:49:33Z</time>
				<extensions>
					<speed>6.420000076293945</speed>
				</extensions>
			</trkpt>
			<trkpt lat="22.20060953" lon="113.53741098">
				<ele>14.9127197265625</ele>
				<time>2022-11-13T02:49:34Z</time>
				<extensions>
					<speed>6.71999979019165</speed>
				</extensions>
			</trkpt>
			<trkpt lat="22.19675917" lon="113.53657738">
				<ele>17.938720703125</ele>
				<time>2022-11-13T02:51:12Z</time>
				<extensions>
					<speed>0.0</speed>
				</extensions>
			</trkpt>
			<trkpt lat="22.19674088" lon="113.53656683">
				<ele>10.138153076171875</ele>
				<time>2022-11-13T02:51:13Z</time>
				<extensions>
					<speed>0.0</speed>
				</extensions>
			</trkpt>
			<trkpt lat="22.19674418" lon="113.53657061">
				<ele>7.860748291015625</ele>
				<time>2022-11-13T02:51:14Z</time>
				<extensions>
					<speed>0.0</speed>
				</extensions>
			</trkpt>
			<trkpt lat="22.1967443" lon="113.53657417">
				<ele>7.7095947265625</ele>
				<time>2022-11-13T02:51:15Z</time>
				<extensions>
					<speed>0.0</speed>
				</extensions>
			</trkpt>
			<trkpt lat="22.19674417" lon="113.53656235">
				<ele>5.70770263671875</ele>
				<time>2022-11-13T02:51:16Z</time>
				<extensions>
					<speed>0.0</speed>
				</extensions>
			</trkpt>
			<trkpt lat="22.19674016" lon="113.53654752">
				<ele>2.20745849609375</ele>
				<time>2022-11-13T02:51:17Z</time>
				<extensions>
					<speed>0.0</speed>
				</extensions>
			</trkpt>
			<trkpt lat="22.19675007" lon="113.53653219">
				<ele>-2.733551025390625</ele>
				<time>2022-11-13T02:51:18Z</time>
				<extensions>
					<speed>0.0</speed>
				</extensions>
			</trkpt>
			<trkpt lat="22.19675374" lon="113.53653022">
				<ele>-4.01483154296875</ele>
				<time>2022-11-13T02:51:19Z</time>
				<extensions>
					<speed>0.0</speed>
				</extensions>
			</trkpt>
			<trkpt lat="22.19673954" lon="113.53652832">
				<ele>-2.25</ele>
				<time>2022-11-13T02:51:31Z</time>
				<extensions>
					<speed>0.0</speed>
				</extensions>
			</trkpt>
			<trkpt lat="22.19675148" lon="113.53652045">
				<ele>-1.03680419921875</ele>
				<time>2022-11-13T02:51:32Z</time>
				<extensions>
					<speed>0.0</speed>
				</extensions>
			</trkpt>
			<trkpt lat="22.18846482" lon="113.53209644">
				<ele>0.6087646484375</ele>
				<time>2022-11-13T02:53:55Z</time>
				<extensions>
					<speed>0.0</speed>
				</extensions>
			</trkpt>
			<trkpt lat="22.18847247" lon="113.53209569">
				<ele>1.80712890625</ele>
				<time>2022-11-13T02:53:56Z</time>
				<extensions>
					<speed>0.0</speed>
				</extensions>
			</trkpt>
			<trkpt lat="22.18847715" lon="113.53209662">
				<ele>0.890716552734375</ele>
				<time>2022-11-13T02:53:57Z</time>
				<extensions>
					<speed>0.0</speed>
				</extensions>
			</trkpt>
			<trkpt lat="22.18849117" lon="113.53209641">
				<ele>0.263031005859375</ele>
				<time>2022-11-13T02:53:58Z</time>
				<extensions>
					<speed>0.0</speed>
				</extensions>
			</trkpt>
			<trkpt lat="22.18848838" lon="113.53210237">
				<ele>1.7061767578125</ele>
				<time>2022-11-13T02:53:59Z</time>
				<extensions>
					<speed>0.0</speed>
				</extensions>
			</trkpt>
			<trkpt lat="22.18848437" lon="113.53210546">
				<ele>2.33355712890625</ele>
				<time>2022-11-13T02:54:00Z</time>
				<extensions>
					<speed>0.0</speed>
				</extensions>
			</trkpt>
			<trkpt lat="22.18848142" lon="113.53211262">
				<ele>2.74676513671875</ele>
				<time>2022-11-13T02:54:01Z</time>
				<extensions>
					<speed>0.0</speed>
				</extensions>
			</trkpt>
			<trkpt lat="22.18847159" lon="113.53211098">
				<ele>3.51568603515625</ele>
				<time>2022-11-13T02:54:02Z</time>
				<extensions>
					<speed>0.0</speed>
				</extensions>
			</trkpt>
			<trkpt lat="22.18846904" lon="113.53210838">
				<ele>4.035980224609375</ele>
				<time>2022-11-13T02:54:03Z</time>
				<extensions>
					<speed>0.0</speed>
				</extensions>
			</trkpt>
			<trkpt lat="22.18846792" lon="113.53210776">
				<ele>4.435028076171875</ele>
				<time>2022-11-13T02:54:04Z</time>
				<extensions>
					<speed>0.0</speed>
				</extensions>
			</trkpt>
			<trkpt lat="22.18847273" lon="113.53210298">
				<ele>4.757080078125</ele>
				<time>2022-11-13T02:54:44Z</time>
				<extensions>
					<speed>0.0</speed>
				</extensions>
			</trkpt>
			<trkpt lat="22.18847757" lon="113.53210496">
				<ele>4.948944091796875</ele>
				<time>2022-11-13T02:54:45Z</time>
				<extensions>
					<speed>0.0</speed>
				</extensions>
			</trkpt>
			<trkpt lat="22.18848151" lon="113.53210561">
				<ele>4.72918701171875</ele>
				<time>2022-11-13T02:54:46Z</time>
				<extensions>
					<speed>0.0</speed>
				</extensions>
			</trkpt>
			<trkpt lat="22.18850176" lon="113.532098">
				<ele>5.9117431640625</ele>
				<time>2022-11-13T02:54:47Z</time>
				<extensions>
					<speed>0.6000000238418579</speed>
				</extensions>
			</trkpt>
			<trkpt lat="22.16036982" lon="113.55349944">
				<ele>73.35321044921875</ele>
				<time>2022-11-13T03:02:28Z</time>
				<extensions>
					<speed>0.0</speed>
				</extensions>
			</trkpt>
			<trkpt lat="22.16039883" lon="113.55359555">
				<ele>70.9814453125</ele>
				<time>2022-11-13T03:02:29Z</time>
				<extensions>
					<speed>0.9200000166893005</speed>
				</extensions>
			</trkpt>
			<trkpt lat="22.16034978" lon="113.55370263">
				<ele>83.16229248046875</ele>
				<time>2022-11-13T03:02:30Z</time>
				<extensions>
					<speed>0.36000001430511475</speed>
				</extensions>
			</trkpt>
			<trkpt lat="22.16033438" lon="113.55375252">
				<ele>86.5687255859375</ele>
				<time>2022-11-13T03:02:31Z</time>
				<extensions>
					<speed>0.8399999737739563</speed>
				</extensions>
			</trkpt>
			<trkpt lat="22.16031752" lon="113.55380978">
				<ele>90.01422119140625</ele>
				<time>2022-11-13T03:02:32Z</time>
				<extensions>
					<speed>0.0</speed>
				</extensions>
			</trkpt>
			<trkpt lat="22.16030474" lon="113.55384908">
				<ele>92.43670654296875</ele>
				<time>2022-11-13T03:02:33Z</time>
				<extensions>
					<speed>0.2800000011920929</speed>
				</extensions>
			</trkpt>
			<trkpt lat="22.16030211" lon="113.55386102">
				<ele>91.8939208984375</ele>
				<time>2022-11-13T03:02:34Z</time>
				<extensions>
					<speed>0.8899999856948853</speed>
				</extensions>
			</trkpt>
			<trkpt lat="22.16029552" lon="113.55387265">
				<ele>91.56878662109375</ele>
				<time>2022-11-13T03:02:35Z</time>
				<extensions>
					<speed>0.8700000047683716</speed>
				</extensions>
			</trkpt>
			<trkpt lat="22.16029439" lon="113.55387523">
				<ele>90.33892822265625</ele>
				<time>2022-11-13T03:02:36Z</time>
				<extensions>
					<speed>0.7799999713897705</speed>
				</extensions>
			</trkpt>
			<trkpt lat="22.16029226" lon="113.55386836">
				<ele>89.53179931640625</ele>
				<time>2022-11-13T03:02:37Z</time>
				<extensions>
					<speed>1.309999942779541</speed>
				</extensions>
			</trkpt>
			<trkpt lat="22.16029324" lon="113.55386876">
				<ele>88.69903564453125</ele>
				<time>2022-11-13T03:02:38Z</time>
				<extensions>
					<speed>0.8700000047683716</speed>
				</extensions>
			</trkpt>
			<trkpt lat="22.16028903" lon="113.55387058">
				<ele>88.32318115234375</ele>
				<time>2022-11-13T03:02:39Z</time>
				<extensions>
					<speed>0.2800000011920929</speed>
				</extensions>
			</trkpt>
			<trkpt lat="22.16028126" lon="113.55387582">
				<ele>88.67156982421875</ele>
				<time>2022-11-13T03:02:40Z</time>
				<extensions>
					<speed>0.8600000143051147</speed>
				</extensions>
			</trkpt>
			<trkpt lat="22.16027267" lon="113.55387885">
				<ele>88.458740234375</ele>
				<time>2022-11-13T03:02:41Z</time>
				<extensions>
					<speed>0.6100000143051147</speed>
				</extensions>
			</trkpt>
			<trkpt lat="22.16026392" lon="113.55387662">
				<ele>89.50042724609375</ele>
				<time>2022-11-13T03:02:42Z</time>
				<extensions>
					<speed>1.4700000286102295</speed>
				</extensions>
			</trkpt>
			<trkpt lat="22.15981053" lon="113.55333755">
				<ele>148.85833740234375</ele>
				<time>2022-11-13T03:04:33Z</time>
				<extensions>
					<speed>0.0</speed>
				</extensions>
			</trkpt>
			<trkpt lat="22.15979793" lon="113.55326113">
				<ele>142.69140625</ele>
				<time>2022-11-13T03:04:34Z</time>
				<extensions>
					<speed>0.0</speed>
				</extensions>
			</trkpt>
			<trkpt lat="22.15983825" lon="113.55316271">
				<ele>135.712890625</ele>
				<time>2022-11-13T03:04:35Z</time>
				<extensions>
					<speed>0.0</speed>
				</extensions>
			</trkpt>
			<trkpt lat="22.15984504" lon="113.55314903">
				<ele>128.1710205078125</ele>
				<time>2022-11-13T03:04:36Z</time>
				<extensions>
					<speed>0.0</speed>
				</extensions>
			</trkpt>
			<trkpt lat="22.15992112" lon="113.55310633">
				<ele>111.24066162109375</ele>
				<time>2022-11-13T03:04:37Z</time>
				<extensions>
					<speed>0.0</speed>
				</extensions>
			</trkpt>
			<trkpt lat="22.160017" lon="113.55303287">
				<ele>85.81671142578125</ele>
				<time>2022-11-13T03:04:38Z</time>
				<extensions>
					<speed>0.0</speed>
				</extensions>
			</trkpt>
			<trkpt lat="22.160046" lon="113.55298455">
				<ele>75.2716064453125</ele>
				<time>2022-11-13T03:04:39Z</time>
				<extensions>
					<speed>0.0</speed>
				</extensions>
			</trkpt>
			<trkpt lat="22.16010192" lon="113.55292757">
				<ele>62.40728759765625</ele>
				<time>2022-11-13T03:04:40Z</time>
				<extensions>
					<speed>0.0</speed>
				</extensions>
			</trkpt>
			<trkpt lat="22.16007871" lon="113.55294975">
				<ele>65.64715576171875</ele>
				<time>2022-11-13T03:04:41Z</time>
				<extensions>
					<speed>0.0</speed>
				</extensions>
			</trkpt>
			<trkpt lat="22.16012976" lon="113.55291795">
				<ele>56.52642822265625</ele>
				<time>2022-11-13T03:04:42Z</time>
				<extensions>
					<speed>0.0</speed>
				</extensions>
			</trkpt>
			<trkpt lat="22.16015371" lon="113.55291313">
				<ele>54.3861083984375</ele>
				<time>2022-11-13T03:04:43Z</time>
				<extensions>
					<speed>0.0</speed>
				</extensions>
			</trkpt>
			<trkpt lat="22.16016481" lon="113.55291991">
				<ele>55.14520263671875</ele>
				<time>2022-11-13T03:04:44Z</time>
				<extensions>
					<speed>0.0</speed>
				</extensions>
			</trkpt>
			<trkpt lat="22.1601574" lon="113.55294234">
				<ele>58.26446533203125</ele>
				<time>2022-11-13T03:04:45Z</time>
				<extensions>
					<speed>0.0</speed>
				</extensions>
			</trkpt>
			<trkpt lat="22.16015162" lon="113.55296337">
				<ele>60.385498046875</ele>
				<time>2022-11-13T03:04:46Z</time>
				<extensions>
					<speed>0.0</speed>
				</extensions>
			</trkpt>
			<trkpt lat="22.16041338" lon="113.55391986">
				<ele>43.65948486328125</ele>
				<time>2022-11-13T03:07:50Z</time>
				<extensions>
					<speed>0.4000000059604645</speed>
				</extensions>
			</trkpt>
			<trkpt lat="22.16041645" lon="113.55395679">
				<ele>49.05621337890625</ele>
				<time>2022-11-13T03:07:51Z</time>
				<extensions>
					<speed>0.4099999964237213</speed>
				</extensions>
			</trkpt>
			<trkpt lat="22.16034259" lon="113.55406044">
				<ele>72.86273193359375</ele>
				<time>2022-11-13T03:07:52Z</time>
				<extensions>
					<speed>0.5099999904632568</speed>
				</extensions>
			</trkpt>
			<trkpt lat="22.16031421" lon="113.5541043">
				<ele>83.92254638671875</ele>
				<time>2022-11-13T03:07:53Z</time>
				<extensions>
					<speed>0.7300000190734863</speed>
				</extensions>
			</trkpt>
			<trkpt lat="22.1603203" lon="113.55413012">
				<ele>85.8502197265625</ele>
				<time>2022-11-13T03:07:54Z</time>
				<extensions>
					<speed>0.3199999928474426</speed>
				</extensions>
			</trkpt>
			<trkpt lat="22.16031899" lon="113.5541465">
				<ele>90.35882568359375</ele>
				<time>2022-11-13T03:07:55Z</time>
				<extensions>
					<speed>0.800000011920929</speed>
				</extensions>
			</trkpt>
			<trkpt lat="22.16032795" lon="113.55416538">
				<ele>89.51239013671875</ele>
				<time>2022-11-13T03:07:56Z</time>
				<extensions>
					<speed>0.3700000047683716</speed>
				</extensions>
			</trkpt>
			<trkpt lat="22.16033657" lon="113.55417798">
				<ele>87.91156005859375</ele>
				<time>2022-11-13T03:07:57Z</time>
				<extensions>
					<speed>0.7599999904632568</speed>
				</extensions>
			</trkpt>
			<trkpt lat="22.16034409" lon="113.55419291">
				<ele>87.0894775390625</ele>
				<time>2022-11-13T03:07:58Z</time>
				<extensions>
					<speed>0.6399999856948853</speed>
				</extensions>
			</trkpt>
			<trkpt lat="22.16035546" lon="113.55420742">
				<ele>84.9544677734375</ele>
				<time>2022-11-13T03:07:59Z</time>
				<extensions>
					<speed>1.3300000429153442</speed>
				</extensions>
			</trkpt>
			<trkpt lat="22.16036732" lon="113.55422348">
				<ele>83.49334716796875</ele>
				<time>2022-11-13T03:08:00Z</time>
				<extensions>
					<speed>0.7900000214576721</speed>
				</extensions>
			</trkpt>
			<trkpt lat="22.16037666" lon="113.55423976">
				<ele>81.30853271484375</ele>
				<time>2022-11-13T03:08:01Z</time>
				<extensions>
					<speed>0.5400000214576721</speed>
				</extensions>
			</trkpt>
			<trkpt lat="22.16038658" lon="113.55425704">
				<ele>79.59783935546875</ele>
				<time>2022-11-13T03:08:02Z</time>
				<extensions>
					<speed>0.8500000238418579</speed>
				</extensions>
			</trkpt>
			<trkpt lat="22.16039659" lon="113.55427946">
				<ele>79.1781005859375</ele>
				<time>2022-11-13T03:08:03Z</time>
				<extensions>
					<speed>1.3200000524520874</speed>
				</extensions>
			</trkpt>
			<trkpt lat="22.16040601" lon="113.55430039">
				<ele>77.89599609375</ele>
				<time>2022-11-13T03:08:04Z</time>
				<extensions>
					<speed>0.6899999976158142</speed>
				</extensions>
			</trkpt>
			<trkpt lat="22.16041446" lon="113.55431838">
				<ele>77.52044677734375</ele>
				<time>2022-11-13T03:08:05Z</time>
				<extensions>
					<speed>0.6899999976158142</speed>
				</extensions>
			</trkpt>
			<trkpt lat="22.16042368" lon="113.55433216">
				<ele>76.89947509765625</ele>
				<time>2022-11-13T03:08:06Z</time>
				<extensions>
					<speed>0.5799999833106995</speed>
				</extensions>
			</trkpt>
			<trkpt lat="22.16043375" lon="113.55434322">
				<ele>75.67352294921875</ele>
				<time>2022-11-13T03:08:07Z</time>
				<extensions>
					<speed>0.6299999952316284</speed>
				</extensions>
			</trkpt>
			<trkpt lat="22.16044189" lon="113.55435079">
				<ele>74.587890625</ele>
				<time>2022-11-13T03:08:08Z</time>
				<extensions>
					<speed>0.27000001072883606</speed>
				</extensions>
			</trkpt>
			<trkpt lat="22.16044827" lon="113.55435683">
				<ele>75.1668701171875</ele>
				<time>2022-11-13T03:08:09Z</time>
				<extensions>
					<speed>0.30000001192092896</speed>
				</extensions>
			</trkpt>
			<trkpt lat="22.16045435" lon="113.5543633">
				<ele>75.085205078125</ele>
				<time>2022-11-13T03:08:10Z</time>
				<extensions>
					<speed>0.25</speed>
				</extensions>
			</trkpt>
			<trkpt lat="22.1604664" lon="113.55438186">
				<ele>74.43426513671875</ele>
				<time>2022-11-13T03:08:11Z</time>
				<extensions>
					<speed>0.0</speed>
				</extensions>
			</trkpt>
			<trkpt lat="22.16047561" lon="113.55439115">
				<ele>73.907958984375</ele>
				<time>2022-11-13T03:08:12Z</time>
				<extensions>
					<speed>0.0</speed>
				</extensions>
			</trkpt>
			<trkpt lat="22.1604829" lon="113.55439623">
				<ele>73.148681640625</ele>
				<time>2022-11-13T03:08:13Z</time>
				<extensions>
					<speed>0.0</speed>
				</extensions>
			</trkpt>
			<trkpt lat="22.1604858" lon="113.55439851">
				<ele>73.77032470703125</ele>
				<time>2022-11-13T03:08:14Z</time>
				<extensions>
					<speed>0.0</speed>
				</extensions>
			</trkpt>
			<trkpt lat="22.16048608" lon="113.55439969">
				<ele>74.0902099609375</ele>
				<time>2022-11-13T03:08:15Z</time>
				<extensions>
					<speed>0.0</speed>
				</extensions>
			</trkpt>
			<trkpt lat="22.16048649" lon="113.5543991">
				<ele>73.1119384765625</ele>
				<time>2022-11-13T03:08:16Z</time>
				<extensions>
					<speed>0.0</speed>
				</extensions>
			</trkpt>
			<trkpt lat="22.16048768" lon="113.55439678">
				<ele>72.21142578125</ele>
				<time>2022-11-13T03:08:17Z</time>
				<extensions>
					<speed>0.0</speed>
				</extensions>
			</trkpt>
			<trkpt lat="22.1604889" lon="113.55439746">
				<ele>72.39215087890625</ele>
				<time>2022-11-13T03:08:18Z</time>
				<extensions>
					<speed>0.0</speed>
				</extensions>
			</trkpt>
			<trkpt lat="22.16049215" lon="113.55440052">
				<ele>72.17578125</ele>
				<time>2022-11-13T03:08:19Z</time>
				<extensions>
					<speed>0.0</speed>
				</extensions>
			</trkpt>
			<trkpt lat="22.16049448" lon="113.55440129">
				<ele>72.439697265625</ele>
				<time>2022-11-13T03:08:20Z</time>
				<extensions>
					<speed>0.0</speed>
				</extensions>
			</trkpt>
			<trkpt lat="22.16049245" lon="113.55440028">
				<ele>72.1326904296875</ele>
				<time>2022-11-13T03:08:21Z</time>
				<extensions>
					<speed>0.0</speed>
				</extensions>
			</trkpt>
			<trkpt lat="22.16049121" lon="113.55439967">
				<ele>72.02557373046875</ele>
				<time>2022-11-13T03:08:22Z</time>
				<extensions>
					<speed>0.0</speed>
				</extensions>
			</trkpt>
			<trkpt lat="22.16049058" lon="113.55439853">
				<ele>72.12158203125</ele>
				<time>2022-11-13T03:08:23Z</time>
				<extensions>
					<speed>0.0</speed>
				</extensions>
			</trkpt>
			<trkpt lat="22.16048896" lon="113.55439529">
				<ele>72.5721435546875</ele>
				<time>2022-11-13T03:08:24Z</time>
				<extensions>
					<speed>0.0</speed>
				</extensions>
			</trkpt>
			<trkpt lat="22.1604854" lon="113.55439232">
				<ele>72.84429931640625</ele>
				<time>2022-11-13T03:08:25Z</time>
				<extensions>
					<speed>0.0</speed>
				</extensions>
			</trkpt>
			<trkpt lat="22.16048429" lon="113.55439172">
				<ele>73.1177978515625</ele>
				<time>2022-11-13T03:08:26Z</time>
				<extensions>
					<speed>0.0</speed>
				</extensions>
			</trkpt>
			<trkpt lat="22.16048683" lon="113.55439657">
				<ele>72.91845703125</ele>
				<time>2022-11-13T03:08:27Z</time>
				<extensions>
					<speed>0.0</speed>
				</extensions>
			</trkpt>
			<trkpt lat="22.16049254" lon="113.5544069">
				<ele>72.3553466796875</ele>
				<time>2022-11-13T03:08:28Z</time>
				<extensions>
					<speed>0.0</speed>
				</extensions>
			</trkpt>
			<trkpt lat="22.16049787" lon="113.55441554">
				<ele>72.146240234375</ele>
				<time>2022-11-13T03:08:29Z</time>
				<extensions>
					<speed>0.0</speed>
				</extensions>
			</trkpt>
			<trkpt lat="22.16050142" lon="113.55441935">
				<ele>72.7177734375</ele>
				<time>2022-11-13T03:08:30Z</time>
				<extensions>
					<speed>0.23999999463558197</speed>
				</extensions>
			</trkpt>
			<trkpt lat="22.16050593" lon="113.55442432">
				<ele>72.27874755859375</ele>
				<time>2022-11-13T03:08:31Z</time>
				<extensions>
					<speed>0.0</speed>
				</extensions>
			</trkpt>
			<trkpt lat="22.16050622" lon="113.55442606">
				<ele>72.3411865234375</ele>
				<time>2022-11-13T03:08:32Z</time>
				<extensions>
					<speed>0.0</speed>
				</extensions>
			</trkpt>
			<trkpt lat="22.1605076" lon="113.55442676">
				<ele>72.1541748046875</ele>
				<time>2022-11-13T03:08:33Z</time>
				<extensions>
					<speed>0.0</speed>
				</extensions>
			</trkpt>
			<trkpt lat="22.16050753" lon="113.55442289">
				<ele>72.5576171875</ele>
				<time>2022-11-13T03:08:34Z</time>
				<extensions>
					<speed>0.0</speed>
				</extensions>
			</trkpt>
			<trkpt lat="22.16050717" lon="113.55442107">
				<ele>73.013427734375</ele>
				<time>2022-11-13T03:08:35Z</time>
				<extensions>
					<speed>0.2800000011920929</speed>
				</extensions>
			</trkpt>
			<trkpt lat="22.16050616" lon="113.55442049">
				<ele>72.77520751953125</ele>
				<time>2022-11-13T03:08:36Z</time>
				<extensions>
					<speed>0.0</speed>
				</extensions>
			</trkpt>
			<trkpt lat="22.16050459" lon="113.5544197">
				<ele>72.95916748046875</ele>
				<time>2022-11-13T03:08:37Z</time>
				<extensions>
					<speed>0.0</speed>
				</extensions>
			</trkpt>
			<trkpt lat="22.1605015" lon="113.55441942">
				<ele>72.7781982421875</ele>
				<time>2022-11-13T03:08:38Z</time>
				<extensions>
					<speed>0.0</speed>
				</extensions>
			</trkpt>
			<trkpt lat="22.16050059" lon="113.55442191">
				<ele>72.61956787109375</ele>
				<time>2022-11-13T03:08:39Z</time>
				<extensions>
					<speed>0.23000000417232513</speed>
				</extensions>
			</trkpt>
			<trkpt lat="22.16049882" lon="113.55442202">
				<ele>72.49462890625</ele>
				<time>2022-11-13T03:08:40Z</time>
				<extensions>
					<speed>0.0</speed>
				</extensions>
			</trkpt>
			<trkpt lat="22.16049926" lon="113.55442136">
				<ele>72.5489501953125</ele>
				<time>2022-11-13T03:08:41Z</time>
				<extensions>
					<speed>0.0</speed>
				</extensions>
			</trkpt>
			<trkpt lat="22.16050102" lon="113.5544226">
				<ele>72.1180419921875</ele>
				<time>2022-11-13T03:08:42Z</time>
				<extensions>
					<speed>0.0</speed>
				</extensions>
			</trkpt>
			<trkpt lat="22.16050235" lon="113.55442447">
				<ele>72.12445068359375</ele>
				<time>2022-11-13T03:08:43Z</time>
				<extensions>
					<speed>0.0</speed>
				</extensions>
			</trkpt>
			<trkpt lat="22.16050293" lon="113.55442524">
				<ele>72.46185302734375</ele>
				<time>2022-11-13T03:08:44Z</time>
				<extensions>
					<speed>0.0</speed>
				</extensions>
			</trkpt>
			<trkpt lat="22.16050369" lon="113.55442528">
				<ele>72.9219970703125</ele>
				<time>2022-11-13T03:08:45Z</time>
				<extensions>
					<speed>0.0</speed>
				</extensions>
			</trkpt>
			<trkpt lat="22.160505" lon="113.55442534">
				<ele>73.23236083984375</ele>
				<time>2022-11-13T03:08:46Z</time>
				<extensions>
					<speed>0.0</speed>
				</extensions>
			</trkpt>
			<trkpt lat="22.16050657" lon="113.55442387">
				<ele>73.52679443359375</ele>
				<time>2022-11-13T03:08:47Z</time>
				<extensions>
					<speed>0.0</speed>
				</extensions>
			</trkpt>
			<trkpt lat="22.16050812" lon="113.55442353">
				<ele>73.87158203125</ele>
				<time>2022-11-13T03:08:48Z</time>
				<extensions>
					<speed>0.0</speed>
				</extensions>
			</trkpt>
			<trkpt lat="22.1605097" lon="113.55442426">
				<ele>74.03369140625</ele>
				<time>2022-11-13T03:08:49Z</time>
				<extensions>
					<speed>0.0</speed>
				</extensions>
			</trkpt>
			<trkpt lat="22.16050918" lon="113.55442299">
				<ele>74.4495849609375</ele>
				<time>2022-11-13T03:08:50Z</time>
				<extensions>
					<speed>0.0</speed>
				</extensions>
			</trkpt>
			<trkpt lat="22.16050841" lon="113.55442136">
				<ele>74.4769287109375</ele>
				<time>2022-11-13T03:08:51Z</time>
				<extensions>
					<speed>0.0</speed>
				</extensions>
			</trkpt>
			<trkpt lat="22.15585365" lon="113.56194574">
				<ele>69.55462646484375</ele>
				<time>2022-11-13T03:21:10Z</time>
				<extensions>
					<speed>0.9800000190734863</speed>
				</extensions>
			</trkpt>
			<trkpt lat="22.15585486" lon="113.5619422">
				<ele>69.50762939453125</ele>
				<time>2022-11-13T03:21:11Z</time>
				<extensions>
					<speed>0.9800000190734863</speed>
				</extensions>
			</trkpt>
			<trkpt lat="22.15585793" lon="113.56193324">
				<ele>69.3887939453125</ele>
				<time>2022-11-13T03:21:12Z</time>
				<extensions>
					<speed>0.9800000190734863</speed>
				</extensions>
			</trkpt>
			<trkpt lat="22.15583525" lon="113.56193679">
				<ele>66.8775634765625</ele>
				<time>2022-11-13T03:21:13Z</time>
				<extensions>
					<speed>0.8500000238418579</speed>
				</extensions>
			</trkpt>
			<trkpt lat="22.15583473" lon="113.56192562">
				<ele>66.92236328125</ele>
				<time>2022-11-13T03:21:14Z</time>
				<extensions>
					<speed>1.0399999618530273</speed>
				</extensions>
			</trkpt>
			<trkpt lat="22.15583183" lon="113.56191476">
				<ele>67.218994140625</ele>
				<time>2022-11-13T03:21:15Z</time>
				<extensions>
					<speed>0.8299999833106995</speed>
				</extensions>
			</trkpt>
			<trkpt lat="22.15582857" lon="113.5619056">
				<ele>66.9801025390625</ele>
				<time>2022-11-13T03:21:16Z</time>
				<extensions>
					<speed>1.100000023841858</speed>
				</extensions>
			</trkpt>
			<trkpt lat="22.15582622" lon="113.56189789">
				<ele>67.034912109375</ele>
				<time>2022-11-13T03:21:17Z</time>
				<extensions>
					<speed>0.6899999976158142</speed>
				</extensions>
			</trkpt>
			<trkpt lat="22.15581718" lon="113.56189639">
				<ele>67.1976318359375</ele>
				<time>2022-11-13T03:21:18Z</time>
				<extensions>
					<speed>0.6100000143051147</speed>
				</extensions>
			</trkpt>
			<trkpt lat="22.15581167" lon="113.56189475">
				<ele>68.01434326171875</ele>
				<time>2022-11-13T03:21:19Z</time>
				<extensions>
					<speed>0.3799999952316284</speed>
				</extensions>
			</trkpt>
			<trkpt lat="22.155808" lon="113.56189027">
				<ele>67.69610595703125</ele>
				<time>2022-11-13T03:21:20Z</time>
				<extensions>
					<speed>0.46000000834465027</speed>
				</extensions>
			</trkpt>
			<trkpt lat="22.15580222" lon="113.5618948">
				<ele>67.66864013671875</ele>
				<time>2022-11-13T03:21:21Z</time>
				<extensions>
					<speed>0.33000001311302185</speed>
				</extensions>
			</trkpt>
			<trkpt lat="22.15579022" lon="113.56188814">
				<ele>67.613525390625</ele>
				<time>2022-11-13T03:21:22Z</time>
				<extensions>
					<speed>1.3600000143051147</speed>
				</extensions>
			</trkpt>
			<trkpt lat="22.15577986" lon="113.56189103">
				<ele>66.83990478515625</ele>
				<time>2022-11-13T03:21:23Z</time>
				<extensions>
					<speed>0.8399999737739563</speed>
				</extensions>
			</trkpt>
			<trkpt lat="22.15577267" lon="113.56189334">
				<ele>66.37103271484375</ele>
				<time>2022-11-13T03:21:24Z</time>
				<extensions>
					<speed>0.5</speed>
				</extensions>
			</trkpt>
			<trkpt lat="22.15576741" lon="113.56189235">
				<ele>65.98980712890625</ele>
				<time>2022-11-13T03:21:25Z</time>
				<extensions>
					<speed>0.49000000953674316</speed>
				</extensions>
			</trkpt>
			<trkpt lat="22.15576" lon="113.56189619">
				<ele>65.43170166015625</ele>
				<time>2022-11-13T03:21:26Z</time>
				<extensions>
					<speed>0.0</speed>
				</extensions>
			</trkpt>
			<trkpt lat="22.15575648" lon="113.56189866">
				<ele>65.38226318359375</ele>
				<time>2022-11-13T03:21:27Z</time>
				<extensions>
					<speed>0.0</speed>
				</extensions>
			</trkpt>
			<trkpt lat="22.15575476" lon="113.56189979">
				<ele>65.47003173828125</ele>
				<time>2022-11-13T03:21:28Z</time>
				<extensions>
					<speed>0.0</speed>
				</extensions>
			</trkpt>
			<trkpt lat="22.15575388" lon="113.56190036">
				<ele>65.47100830078125</ele>
				<time>2022-11-13T03:21:29Z</time>
				<extensions>
					<speed>0.0</speed>
				</extensions>
			</trkpt>
			<trkpt lat="22.15575344" lon="113.56190065">
				<ele>65.47100830078125</ele>
				<time>2022-11-13T03:21:30Z</time>
				<extensions>
					<speed>0.0</speed>
				</extensions>
			</trkpt>
			<trkpt lat="22.15575322" lon="113.5619008">
				<ele>65.47100830078125</ele>
				<time>2022-11-13T03:21:31Z</time>
				<extensions>
					<speed>0.0</speed>
				</extensions>
			</trkpt>
			<trkpt lat="22.1557531" lon="113.56190087">
				<ele>65.471435546875</ele>
				<time>2022-11-13T03:21:32Z</time>
				<extensions>
					<speed>0.0</speed>
				</extensions>
			</trkpt>
			<trkpt lat="22.15575304" lon="113.56190091">
				<ele>65.471435546875</ele>
				<time>2022-11-13T03:21:33Z</time>
				<extensions>
					<speed>0.0</speed>
				</extensions>
			</trkpt>
			<trkpt lat="22.15575301" lon="113.56190096">
				<ele>65.475830078125</ele>
				<time>2022-11-13T03:21:34Z</time>
				<extensions>
					<speed>0.0</speed>
				</extensions>
			</trkpt>
			<trkpt lat="22.1557548" lon="113.56189882">
				<ele>65.39642333984375</ele>
				<time>2022-11-13T03:22:05Z</time>
				<extensions>
					<speed>0.0</speed>
				</extensions>
			</trkpt>
			<trkpt lat="22.15575443" lon="113.56189813">
				<ele>65.4288330078125</ele>
				<time>2022-11-13T03:22:06Z</time>
				<extensions>
					<speed>0.0</speed>
				</extensions>
			</trkpt>
			<trkpt lat="22.15575599" lon="113.56190331">
				<ele>64.9078369140625</ele>
				<time>2022-11-13T03:22:07Z</time>
				<extensions>
					<speed>0.0</speed>
				</extensions>
			</trkpt>
			<trkpt lat="22.15575738" lon="113.56191444">
				<ele>66.3712158203125</ele>
				<time>2022-11-13T03:22:08Z</time>
				<extensions>
					<speed>0.7200000286102295</speed>
				</extensions>
			</trkpt>
			<trkpt lat="22.15576704" lon="113.56191884">
				<ele>63.27947998046875</ele>
				<time>2022-11-13T03:22:09Z</time>
				<extensions>
					<speed>0.9399999976158142</speed>
				</extensions>
			</trkpt>
			<trkpt lat="22.15577559" lon="113.56193024">
				<ele>63.4581298828125</ele>
				<time>2022-11-13T03:22:10Z</time>
				<extensions>
					<speed>0.6399999856948853</speed>
				</extensions>
			</trkpt>
			<trkpt lat="22.15578412" lon="113.56193768">
				<ele>61.94451904296875</ele>
				<time>2022-11-13T03:22:11Z</time>
				<extensions>
					<speed>0.6800000071525574</speed>
				</extensions>
			</trkpt>
			<trkpt lat="22.15579466" lon="113.56193691">
				<ele>58.31866455078125</ele>
				<time>2022-11-13T03:22:12Z</time>
				<extensions>
					<speed>0.5600000023841858</speed>
				</extensions>
			</trkpt>
			<trkpt lat="22.15580586" lon="113.56193281">
				<ele>57.50140380859375</ele>
				<time>2022-11-13T03:22:13Z</time>
				<extensions>
					<speed>0.4300000071525574</speed>
				</extensions>
			</trkpt>
			<trkpt lat="22.15581481" lon="113.56192866">
				<ele>54.9986572265625</ele>
				<time>2022-11-13T03:22:14Z</time>
				<extensions>
					<speed>0.17000000178813934</speed>
				</extensions>
			</trkpt>
			<trkpt lat="22.15582864" lon="113.56192087">
				<ele>54.93609619140625</ele>
				<time>2022-11-13T03:22:15Z</time>
				<extensions>
					<speed>0.0</speed>
				</extensions>
			</trkpt>
			<trkpt lat="22.15583401" lon="113.56191915">
				<ele>54.58343505859375</ele>
				<time>2022-11-13T03:22:16Z</time>
				<extensions>
					<speed>0.18000000715255737</speed>
				</extensions>
			</trkpt>
			<trkpt lat="22.15583449" lon="113.56191916">
				<ele>54.2838134765625</ele>
				<time>2022-11-13T03:22:17Z</time>
				<extensions>
					<speed>0.6000000238418579</speed>
				</extensions>
			</trkpt>
			<trkpt lat="22.15583449" lon="113.56191916">
				<ele>54.2838134765625</ele>
				<time>2022-11-13T03:22:17Z</time>
				<extensions>
					<speed>0.6000000238418579</speed>
				</extensions>
			</trkpt>
			<trkpt lat="22.1558302" lon="113.56192035">
				<ele>54.5947265625</ele>
				<time>2022-11-13T03:22:18Z</time>
				<extensions>
					<speed>0.5099999904632568</speed>
				</extensions>
			</trkpt>
			<trkpt lat="22.1558273" lon="113.56192195">
				<ele>57.06195068359375</ele>
				<time>2022-11-13T03:22:19Z</time>
				<extensions>
					<speed>0.2199999988079071</speed>
				</extensions>
			</trkpt>
			<trkpt lat="22.15582525" lon="113.56192574">
				<ele>59.9820556640625</ele>
				<time>2022-11-13T03:22:20Z</time>
				<extensions>
					<speed>0.46000000834465027</speed>
				</extensions>
			</trkpt>
			<trkpt lat="22.15582446" lon="113.56193229">
				<ele>61.33270263671875</ele>
				<time>2022-11-13T03:22:21Z</time>
				<extensions>
					<speed>0.699999988079071</speed>
				</extensions>
			</trkpt>
			<trkpt lat="22.15582439" lon="113.56193975">
				<ele>62.253662109375</ele>
				<time>2022-11-13T03:22:22Z</time>
				<extensions>
					<speed>0.6200000047683716</speed>
				</extensions>
			</trkpt>
			<trkpt lat="22.15582456" lon="113.56194738">
				<ele>63.202880859375</ele>
				<time>2022-11-13T03:22:23Z</time>
				<extensions>
					<speed>0.7099999785423279</speed>
				</extensions>
			</trkpt>
			<trkpt lat="22.15582553" lon="113.56195333">
				<ele>63.7672119140625</ele>
				<time>2022-11-13T03:22:24Z</time>
				<extensions>
					<speed>0.6000000238418579</speed>
				</extensions>
			</trkpt>
			<trkpt lat="22.1558272" lon="113.56195995">
				<ele>64.47613525390625</ele>
				<time>2022-11-13T03:22:25Z</time>
				<extensions>
					<speed>0.9100000262260437</speed>
				</extensions>
			</trkpt>
			<trkpt lat="22.15583003" lon="113.56196574">
				<ele>64.94427490234375</ele>
				<time>2022-11-13T03:22:26Z</time>
				<extensions>
					<speed>0.6100000143051147</speed>
				</extensions>
			</trkpt>
			<trkpt lat="22.15583475" lon="113.56196917">
				<ele>65.13189697265625</ele>
				<time>2022-11-13T03:22:27Z</time>
				<extensions>
					<speed>0.699999988079071</speed>
				</extensions>
			</trkpt>
			<trkpt lat="22.15584064" lon="113.56197189">
				<ele>65.66973876953125</ele>
				<time>2022-11-13T03:22:28Z</time>
				<extensions>
					<speed>0.6700000166893005</speed>
				</extensions>
			</trkpt>
			<trkpt lat="22.15584805" lon="113.56197413">
				<ele>66.1636962890625</ele>
				<time>2022-11-13T03:22:29Z</time>
				<extensions>
					<speed>0.8199999928474426</speed>
				</extensions>
			</trkpt>
			<trkpt lat="22.15585578" lon="113.56197657">
				<ele>66.5262451171875</ele>
				<time>2022-11-13T03:22:30Z</time>
				<extensions>
					<speed>0.8600000143051147</speed>
				</extensions>
			</trkpt>
			<trkpt lat="22.15586722" lon="113.56197914">
				<ele>66.53802490234375</ele>
				<time>2022-11-13T03:22:31Z</time>
				<extensions>
					<speed>1.350000023841858</speed>
				</extensions>
			</trkpt>
			<trkpt lat="22.15587829" lon="113.56198096">
				<ele>67.01556396484375</ele>
				<time>2022-11-13T03:22:32Z</time>
				<extensions>
					<speed>0.8399999737739563</speed>
				</extensions>
			</trkpt>
			<trkpt lat="22.15588703" lon="113.56198237">
				<ele>67.3482666015625</ele>
				<time>2022-11-13T03:22:33Z</time>
				<extensions>
					<speed>0.9300000071525574</speed>
				</extensions>
			</trkpt>
			<trkpt lat="22.15589638" lon="113.56198437">
				<ele>67.43670654296875</ele>
				<time>2022-11-13T03:22:34Z</time>
				<extensions>
					<speed>0.8199999928474426</speed>
				</extensions>
			</trkpt>
			<trkpt lat="22.15590558" lon="113.56198796">
				<ele>67.39898681640625</ele>
				<time>2022-11-13T03:22:35Z</time>
				<extensions>
					<speed>0.9700000286102295</speed>
				</extensions>
			</trkpt>
			<trkpt lat="22.15591371" lon="113.5619938">
				<ele>67.45245361328125</ele>
				<time>2022-11-13T03:22:36Z</time>
				<extensions>
					<speed>0.9599999785423279</speed>
				</extensions>
			</trkpt>
			<trkpt lat="22.15592141" lon="113.56200138">
				<ele>67.7677001953125</ele>
				<time>2022-11-13T03:22:37Z</time>
				<extensions>
					<speed>1.090000033378601</speed>
				</extensions>
			</trkpt>
			<trkpt lat="22.1559286" lon="113.56200979">
				<ele>67.45196533203125</ele>
				<time>2022-11-13T03:22:38Z</time>
				<extensions>
					<speed>0.9900000095367432</speed>
				</extensions>
			</trkpt>
			<trkpt lat="22.15593364" lon="113.56201795">
				<ele>67.572265625</ele>
				<time>2022-11-13T03:22:39Z</time>
				<extensions>
					<speed>0.8600000143051147</speed>
				</extensions>
			</trkpt>
			<trkpt lat="22.15593656" lon="113.56202539">
				<ele>67.56903076171875</ele>
				<time>2022-11-13T03:22:40Z</time>
				<extensions>
					<speed>0.7200000286102295</speed>
				</extensions>
			</trkpt>
			<trkpt lat="22.1559375" lon="113.56203328">
				<ele>67.8858642578125</ele>
				<time>2022-11-13T03:22:41Z</time>
				<extensions>
					<speed>0.8299999833106995</speed>
				</extensions>
			</trkpt>
			<trkpt lat="22.15593662" lon="113.56204216">
				<ele>68.1263427734375</ele>
				<time>2022-11-13T03:22:42Z</time>
				<extensions>
					<speed>0.8500000238418579</speed>
				</extensions>
			</trkpt>
			<trkpt lat="22.15593681" lon="113.56205044">
				<ele>67.98492431640625</ele>
				<time>2022-11-13T03:22:43Z</time>
				<extensions>
					<speed>0.6899999976158142</speed>
				</extensions>
			</trkpt>
			<trkpt lat="22.15593868" lon="113.56205903">
				<ele>67.81695556640625</ele>
				<time>2022-11-13T03:22:44Z</time>
				<extensions>
					<speed>0.8199999928474426</speed>
				</extensions>
			</trkpt>
			<trkpt lat="22.15594195" lon="113.56206929">
				<ele>67.525390625</ele>
				<time>2022-11-13T03:22:45Z</time>
				<extensions>
					<speed>0.9100000262260437</speed>
				</extensions>
			</trkpt>
			<trkpt lat="22.15594554" lon="113.56208214">
				<ele>67.72479248046875</ele>
				<time>2022-11-13T03:22:46Z</time>
				<extensions>
					<speed>1.309999942779541</speed>
				</extensions>
			</trkpt>
			<trkpt lat="22.15594929" lon="113.56209637">
				<ele>67.52642822265625</ele>
				<time>2022-11-13T03:22:47Z</time>
				<extensions>
					<speed>1.2200000286102295</speed>
				</extensions>
			</trkpt>
			<trkpt lat="22.15595243" lon="113.56210903">
				<ele>68.00799560546875</ele>
				<time>2022-11-13T03:22:48Z</time>
				<extensions>
					<speed>1.0700000524520874</speed>
				</extensions>
			</trkpt>
			<trkpt lat="22.15595452" lon="113.56212155">
				<ele>67.74774169921875</ele>
				<time>2022-11-13T03:22:49Z</time>
				<extensions>
					<speed>1.1100000143051147</speed>
				</extensions>
			</trkpt>
			<trkpt lat="22.15595721" lon="113.56213369">
				<ele>68.1102294921875</ele>
				<time>2022-11-13T03:22:50Z</time>
				<extensions>
					<speed>1.0499999523162842</speed>
				</extensions>
			</trkpt>
			<trkpt lat="22.15596096" lon="113.56214537">
				<ele>68.08428955078125</ele>
				<time>2022-11-13T03:22:51Z</time>
				<extensions>
					<speed>1.090000033378601</speed>
				</extensions>
			</trkpt>
			<trkpt lat="22.15596634" lon="113.56215637">
				<ele>68.352294921875</ele>
				<time>2022-11-13T03:22:52Z</time>
				<extensions>
					<speed>1.0099999904632568</speed>
				</extensions>
			</trkpt>
			<trkpt lat="22.15597239" lon="113.56216807">
				<ele>68.444580078125</ele>
				<time>2022-11-13T03:22:53Z</time>
				<extensions>
					<speed>1.2100000381469727</speed>
				</extensions>
			</trkpt>
			<trkpt lat="22.15597714" lon="113.5621811">
				<ele>68.47479248046875</ele>
				<time>2022-11-13T03:22:54Z</time>
				<extensions>
					<speed>1.2100000381469727</speed>
				</extensions>
			</trkpt>
			<trkpt lat="22.1559807" lon="113.56219344">
				<ele>68.45001220703125</ele>
				<time>2022-11-13T03:22:55Z</time>
				<extensions>
					<speed>1.0099999904632568</speed>
				</extensions>
			</trkpt>
			<trkpt lat="22.15598325" lon="113.56220478">
				<ele>68.1129150390625</ele>
				<time>2022-11-13T03:22:56Z</time>
				<extensions>
					<speed>1.0800000429153442</speed>
				</extensions>
			</trkpt>
			<trkpt lat="22.15598852" lon="113.56221687">
				<ele>67.99237060546875</ele>
				<time>2022-11-13T03:22:57Z</time>
				<extensions>
					<speed>1.3700000047683716</speed>
				</extensions>
			</trkpt>
			<trkpt lat="22.15599533" lon="113.56222719">
				<ele>68.00921630859375</ele>
				<time>2022-11-13T03:22:58Z</time>
				<extensions>
					<speed>1.0099999904632568</speed>
				</extensions>
			</trkpt>
			<trkpt lat="22.15600399" lon="113.56223705">
				<ele>68.16021728515625</ele>
				<time>2022-11-13T03:22:59Z</time>
				<extensions>
					<speed>1.409999966621399</speed>
				</extensions>
			</trkpt>
			<trkpt lat="22.15601345" lon="113.56224836">
				<ele>68.181396484375</ele>
				<time>2022-11-13T03:23:00Z</time>
				<extensions>
					<speed>1.3899999856948853</speed>
				</extensions>
			</trkpt>
			<trkpt lat="22.15602312" lon="113.56226052">
				<ele>68.37005615234375</ele>
				<time>2022-11-13T03:23:01Z</time>
				<extensions>
					<speed>1.559999942779541</speed>
				</extensions>
			</trkpt>
			<trkpt lat="22.15602997" lon="113.56227238">
				<ele>68.0423583984375</ele>
				<time>2022-11-13T03:23:02Z</time>
				<extensions>
					<speed>1.190000057220459</speed>
				</extensions>
			</trkpt>
			<trkpt lat="22.15603627" lon="113.56228396">
				<ele>68.4681396484375</ele>
				<time>2022-11-13T03:23:03Z</time>
				<extensions>
					<speed>1.3200000524520874</speed>
				</extensions>
			</trkpt>
			<trkpt lat="22.15604267" lon="113.56229623">
				<ele>68.9637451171875</ele>
				<time>2022-11-13T03:23:04Z</time>
				<extensions>
					<speed>1.340000033378601</speed>
				</extensions>
			</trkpt>
			<trkpt lat="22.15604923" lon="113.56231007">
				<ele>69.088134765625</ele>
				<time>2022-11-13T03:23:05Z</time>
				<extensions>
					<speed>1.5499999523162842</speed>
				</extensions>
			</trkpt>
			<trkpt lat="22.1560549" lon="113.56232422">
				<ele>69.61199951171875</ele>
				<time>2022-11-13T03:23:06Z</time>
				<extensions>
					<speed>1.3799999952316284</speed>
				</extensions>
			</trkpt>
			<trkpt lat="22.15605988" lon="113.56233858">
				<ele>69.88055419921875</ele>
				<time>2022-11-13T03:23:07Z</time>
				<extensions>
					<speed>1.440000057220459</speed>
				</extensions>
			</trkpt>
			<trkpt lat="22.15606417" lon="113.56235219">
				<ele>70.792236328125</ele>
				<time>2022-11-13T03:23:08Z</time>
				<extensions>
					<speed>1.2799999713897705</speed>
				</extensions>
			</trkpt>
			<trkpt lat="22.15606886" lon="113.5623651">
				<ele>71.0648193359375</ele>
				<time>2022-11-13T03:23:09Z</time>
				<extensions>
					<speed>1.309999942779541</speed>
				</extensions>
			</trkpt>
			<trkpt lat="22.15607406" lon="113.5623756">
				<ele>70.6600341796875</ele>
				<time>2022-11-13T03:23:10Z</time>
				<extensions>
					<speed>1.0199999809265137</speed>
				</extensions>
			</trkpt>
			<trkpt lat="22.15607893" lon="113.56238591">
				<ele>71.12322998046875</ele>
				<time>2022-11-13T03:23:11Z</time>
				<extensions>
					<speed>1.2000000476837158</speed>
				</extensions>
			</trkpt>
			<trkpt lat="22.15608415" lon="113.5623963">
				<ele>71.5670166015625</ele>
				<time>2022-11-13T03:23:12Z</time>
				<extensions>
					<speed>1.1399999856948853</speed>
				</extensions>
			</trkpt>
			<trkpt lat="22.15608888" lon="113.56240777">
				<ele>72.20166015625</ele>
				<time>2022-11-13T03:23:13Z</time>
				<extensions>
					<speed>1.2100000381469727</speed>
				</extensions>
			</trkpt>
			<trkpt lat="22.15609308" lon="113.56242039">
				<ele>72.39105224609375</ele>
				<time>2022-11-13T03:23:14Z</time>
				<extensions>
					<speed>1.3200000524520874</speed>
				</extensions>
			</trkpt>
			<trkpt lat="22.15609778" lon="113.5624328">
				<ele>72.85955810546875</ele>
				<time>2022-11-13T03:23:15Z</time>
				<extensions>
					<speed>1.2599999904632568</speed>
				</extensions>
			</trkpt>
			<trkpt lat="22.15610334" lon="113.56244517">
				<ele>72.93231201171875</ele>
				<time>2022-11-13T03:23:16Z</time>
				<extensions>
					<speed>1.3600000143051147</speed>
				</extensions>
			</trkpt>
			<trkpt lat="22.15611883" lon="113.56248209">
				<ele>72.27166748046875</ele>
				<time>2022-11-13T03:23:19Z</time>
				<extensions>
					<speed>1.090000033378601</speed>
				</extensions>
			</trkpt>
			<trkpt lat="22.15611841" lon="113.5624915">
				<ele>72.666015625</ele>
				<time>2022-11-13T03:23:20Z</time>
				<extensions>
					<speed>1.0800000429153442</speed>
				</extensions>
			</trkpt>
			<trkpt lat="22.15611987" lon="113.56250428">
				<ele>73.263427734375</ele>
				<time>2022-11-13T03:23:21Z</time>
				<extensions>
					<speed>1.2699999809265137</speed>
				</extensions>
			</trkpt>
			<trkpt lat="22.1561232" lon="113.56251846">
				<ele>73.4609375</ele>
				<time>2022-11-13T03:23:22Z</time>
				<extensions>
					<speed>1.3300000429153442</speed>
				</extensions>
			</trkpt>
			<trkpt lat="22.15612839" lon="113.56253244">
				<ele>73.48724365234375</ele>
				<time>2022-11-13T03:23:23Z</time>
				<extensions>
					<speed>1.5199999809265137</speed>
				</extensions>
			</trkpt>
			<trkpt lat="22.15613495" lon="113.56254515">
				<ele>73.522216796875</ele>
				<time>2022-11-13T03:23:24Z</time>
				<extensions>
					<speed>1.2599999904632568</speed>
				</extensions>
			</trkpt>
			<trkpt lat="22.15614037" lon="113.56255567">
				<ele>73.23382568359375</ele>
				<time>2022-11-13T03:23:25Z</time>
				<extensions>
					<speed>1.0</speed>
				</extensions>
			</trkpt>
			<trkpt lat="22.15614598" lon="113.56256526">
				<ele>73.110595703125</ele>
				<time>2022-11-13T03:23:26Z</time>
				<extensions>
					<speed>1.1299999952316284</speed>
				</extensions>
			</trkpt>
			<trkpt lat="22.15615311" lon="113.56257646">
				<ele>73.44793701171875</ele>
				<time>2022-11-13T03:23:27Z</time>
				<extensions>
					<speed>1.3799999952316284</speed>
				</extensions>
			</trkpt>
			<trkpt lat="22.15616013" lon="113.56258772">
				<ele>73.16912841796875</ele>
				<time>2022-11-13T03:23:28Z</time>
				<extensions>
					<speed>1.149999976158142</speed>
				</extensions>
			</trkpt>
			<trkpt lat="22.15616712" lon="113.56259906">
				<ele>73.03570556640625</ele>
				<time>2022-11-13T03:23:29Z</time>
				<extensions>
					<speed>1.3899999856948853</speed>
				</extensions>
			</trkpt>
			<trkpt lat="22.15617408" lon="113.56260929">
				<ele>73.00531005859375</ele>
				<time>2022-11-13T03:23:30Z</time>
				<extensions>
					<speed>1.149999976158142</speed>
				</extensions>
			</trkpt>
			<trkpt lat="22.15618125" lon="113.56261842">
				<ele>72.59600830078125</ele>
				<time>2022-11-13T03:23:31Z</time>
				<extensions>
					<speed>1.2100000381469727</speed>
				</extensions>
			</trkpt>
			<trkpt lat="22.15618973" lon="113.56262696">
				<ele>72.3798828125</ele>
				<time>2022-11-13T03:23:32Z</time>
				<extensions>
					<speed>1.2599999904632568</speed>
				</extensions>
			</trkpt>
			<trkpt lat="22.15619905" lon="113.56263569">
				<ele>72.15374755859375</ele>
				<time>2022-11-13T03:23:33Z</time>
				<extensions>
					<speed>1.3600000143051147</speed>
				</extensions>
			</trkpt>
			<trkpt lat="22.15620874" lon="113.56264439">
				<ele>72.10089111328125</ele>
				<time>2022-11-13T03:23:34Z</time>
				<extensions>
					<speed>1.2899999618530273</speed>
				</extensions>
			</trkpt>
			<trkpt lat="22.15620874" lon="113.56264439">
				<ele>72.10089111328125</ele>
				<time>2022-11-13T03:23:34Z</time>
				<extensions>
					<speed>1.2899999618530273</speed>
				</extensions>
			</trkpt>
			<trkpt lat="22.15621716" lon="113.56265255">
				<ele>72.060546875</ele>
				<time>2022-11-13T03:23:35Z</time>
				<extensions>
					<speed>1.100000023841858</speed>
				</extensions>
			</trkpt>
			<trkpt lat="22.15622498" lon="113.56266114">
				<ele>71.7923583984375</ele>
				<time>2022-11-13T03:23:36Z</time>
				<extensions>
					<speed>1.2599999904632568</speed>
				</extensions>
			</trkpt>
			<trkpt lat="22.15623154" lon="113.56267142">
				<ele>71.43804931640625</ele>
				<time>2022-11-13T03:23:37Z</time>
				<extensions>
					<speed>1.1699999570846558</speed>
				</extensions>
			</trkpt>
			<trkpt lat="22.15623726" lon="113.56268103">
				<ele>71.2255859375</ele>
				<time>2022-11-13T03:23:38Z</time>
				<extensions>
					<speed>0.949999988079071</speed>
				</extensions>
			</trkpt>
			<trkpt lat="22.1562437" lon="113.56269126">
				<ele>70.7237548828125</ele>
				<time>2022-11-13T03:23:39Z</time>
				<extensions>
					<speed>1.2400000095367432</speed>
				</extensions>
			</trkpt>
			<trkpt lat="22.15624936" lon="113.562702">
				<ele>70.46832275390625</ele>
				<time>2022-11-13T03:23:40Z</time>
				<extensions>
					<speed>1.100000023841858</speed>
				</extensions>
			</trkpt>
			<trkpt lat="22.15625427" lon="113.56271304">
				<ele>70.56103515625</ele>
				<time>2022-11-13T03:23:41Z</time>
				<extensions>
					<speed>1.2799999713897705</speed>
				</extensions>
			</trkpt>
			<trkpt lat="22.15625875" lon="113.56272452">
				<ele>70.00946044921875</ele>
				<time>2022-11-13T03:23:42Z</time>
				<extensions>
					<speed>1.2000000476837158</speed>
				</extensions>
			</trkpt>
			<trkpt lat="22.15626327" lon="113.56273444">
				<ele>69.9368896484375</ele>
				<time>2022-11-13T03:23:43Z</time>
				<extensions>
					<speed>1.0800000429153442</speed>
				</extensions>
			</trkpt>
			<trkpt lat="22.15626925" lon="113.56274323">
				<ele>70.016357421875</ele>
				<time>2022-11-13T03:23:44Z</time>
				<extensions>
					<speed>1.0199999809265137</speed>
				</extensions>
			</trkpt>
			<trkpt lat="22.15627678" lon="113.56275061">
				<ele>70.12109375</ele>
				<time>2022-11-13T03:23:45Z</time>
				<extensions>
					<speed>1.0700000524520874</speed>
				</extensions>
			</trkpt>
			<trkpt lat="22.15628482" lon="113.56275948">
				<ele>70.6094970703125</ele>
				<time>2022-11-13T03:23:46Z</time>
				<extensions>
					<speed>1.399999976158142</speed>
				</extensions>
			</trkpt>
			<trkpt lat="22.15629131" lon="113.56276909">
				<ele>70.1923828125</ele>
				<time>2022-11-13T03:23:47Z</time>
				<extensions>
					<speed>1.1100000143051147</speed>
				</extensions>
			</trkpt>
			<trkpt lat="22.15629747" lon="113.56277769">
				<ele>70.5732421875</ele>
				<time>2022-11-13T03:23:48Z</time>
				<extensions>
					<speed>1.1200000047683716</speed>
				</extensions>
			</trkpt>
			<trkpt lat="22.15630412" lon="113.5627867">
				<ele>70.820068359375</ele>
				<time>2022-11-13T03:23:49Z</time>
				<extensions>
					<speed>1.1299999952316284</speed>
				</extensions>
			</trkpt>
			<trkpt lat="22.15631329" lon="113.56279477">
				<ele>70.9599609375</ele>
				<time>2022-11-13T03:23:50Z</time>
				<extensions>
					<speed>1.2899999618530273</speed>
				</extensions>
			</trkpt>
			<trkpt lat="22.15632304" lon="113.56280259">
				<ele>70.83746337890625</ele>
				<time>2022-11-13T03:23:51Z</time>
				<extensions>
					<speed>1.190000057220459</speed>
				</extensions>
			</trkpt>
			<trkpt lat="22.15633288" lon="113.56280976">
				<ele>70.7572021484375</ele>
				<time>2022-11-13T03:23:52Z</time>
				<extensions>
					<speed>1.2100000381469727</speed>
				</extensions>
			</trkpt>
			<trkpt lat="22.15634264" lon="113.56281711">
				<ele>70.709228515625</ele>
				<time>2022-11-13T03:23:53Z</time>
				<extensions>
					<speed>1.340000033378601</speed>
				</extensions>
			</trkpt>
			<trkpt lat="22.15635236" lon="113.56282463">
				<ele>70.4488525390625</ele>
				<time>2022-11-13T03:23:54Z</time>
				<extensions>
					<speed>1.2999999523162842</speed>
				</extensions>
			</trkpt>
			<trkpt lat="22.15636299" lon="113.56283131">
				<ele>70.709228515625</ele>
				<time>2022-11-13T03:23:55Z</time>
				<extensions>
					<speed>1.3300000429153442</speed>
				</extensions>
			</trkpt>
			<trkpt lat="22.15637263" lon="113.562836">
				<ele>70.461669921875</ele>
				<time>2022-11-13T03:23:56Z</time>
				<extensions>
					<speed>1.100000023841858</speed>
				</extensions>
			</trkpt>
			<trkpt lat="22.15638291" lon="113.56283823">
				<ele>70.6856689453125</ele>
				<time>2022-11-13T03:23:57Z</time>
				<extensions>
					<speed>1.2000000476837158</speed>
				</extensions>
			</trkpt>
			<trkpt lat="22.15639445" lon="113.56283871">
				<ele>70.665283203125</ele>
				<time>2022-11-13T03:23:58Z</time>
				<extensions>
					<speed>1.2400000095367432</speed>
				</extensions>
			</trkpt>
			<trkpt lat="22.15640656" lon="113.56283711">
				<ele>71.0625</ele>
				<time>2022-11-13T03:23:59Z</time>
				<extensions>
					<speed>1.3700000047683716</speed>
				</extensions>
			</trkpt>
			<trkpt lat="22.15641852" lon="113.56283404">
				<ele>71.12249755859375</ele>
				<time>2022-11-13T03:24:00Z</time>
				<extensions>
					<speed>1.3200000524520874</speed>
				</extensions>
			</trkpt>
			<trkpt lat="22.15643046" lon="113.56283041">
				<ele>71.74169921875</ele>
				<time>2022-11-13T03:24:01Z</time>
				<extensions>
					<speed>1.4299999475479126</speed>
				</extensions>
			</trkpt>
			<trkpt lat="22.15644062" lon="113.56282698">
				<ele>71.60400390625</ele>
				<time>2022-11-13T03:24:02Z</time>
				<extensions>
					<speed>0.9599999785423279</speed>
				</extensions>
			</trkpt>
			<trkpt lat="22.15644968" lon="113.56282232">
				<ele>71.7681884765625</ele>
				<time>2022-11-13T03:24:03Z</time>
				<extensions>
					<speed>1.2400000095367432</speed>
				</extensions>
			</trkpt>
			<trkpt lat="22.15645928" lon="113.56281583">
				<ele>71.8421630859375</ele>
				<time>2022-11-13T03:24:04Z</time>
				<extensions>
					<speed>1.1399999856948853</speed>
				</extensions>
			</trkpt>
			<trkpt lat="22.15646933" lon="113.56281032">
				<ele>71.80267333984375</ele>
				<time>2022-11-13T03:24:05Z</time>
				<extensions>
					<speed>1.2799999713897705</speed>
				</extensions>
			</trkpt>
			<trkpt lat="22.15647851" lon="113.56280598">
				<ele>71.84368896484375</ele>
				<time>2022-11-13T03:24:06Z</time>
				<extensions>
					<speed>0.9399999976158142</speed>
				</extensions>
			</trkpt>
			<trkpt lat="22.15648829" lon="113.56280211">
				<ele>71.5631103515625</ele>
				<time>2022-11-13T03:24:07Z</time>
				<extensions>
					<speed>1.309999942779541</speed>
				</extensions>
			</trkpt>
			<trkpt lat="22.15649921" lon="113.5627977">
				<ele>71.52386474609375</ele>
				<time>2022-11-13T03:24:08Z</time>
				<extensions>
					<speed>1.2899999618530273</speed>
				</extensions>
			</trkpt>
			<trkpt lat="22.15650995" lon="113.56279289">
				<ele>71.60205078125</ele>
				<time>2022-11-13T03:24:09Z</time>
				<extensions>
					<speed>1.2599999904632568</speed>
				</extensions>
			</trkpt>
			<trkpt lat="22.15651974" lon="113.56278907">
				<ele>71.45037841796875</ele>
				<time>2022-11-13T03:24:10Z</time>
				<extensions>
					<speed>1.1100000143051147</speed>
				</extensions>
			</trkpt>
			<trkpt lat="22.15652993" lon="113.56278732">
				<ele>71.5552978515625</ele>
				<time>2022-11-13T03:24:11Z</time>
				<extensions>
					<speed>1.1299999952316284</speed>
				</extensions>
			</trkpt>
			<trkpt lat="22.15654057" lon="113.56278544">
				<ele>71.80224609375</ele>
				<time>2022-11-13T03:24:12Z</time>
				<extensions>
					<speed>1.2100000381469727</speed>
				</extensions>
			</trkpt>
			<trkpt lat="22.1565505" lon="113.56278195">
				<ele>72.02386474609375</ele>
				<time>2022-11-13T03:24:13Z</time>
				<extensions>
					<speed>1.159999966621399</speed>
				</extensions>
			</trkpt>
			<trkpt lat="22.15655999" lon="113.56277763">
				<ele>72.1737060546875</ele>
				<time>2022-11-13T03:24:14Z</time>
				<extensions>
					<speed>1.1100000143051147</speed>
				</extensions>
			</trkpt>
			<trkpt lat="22.15656909" lon="113.56277229">
				<ele>71.9415283203125</ele>
				<time>2022-11-13T03:24:15Z</time>
				<extensions>
					<speed>1.1100000143051147</speed>
				</extensions>
			</trkpt>
			<trkpt lat="22.15657872" lon="113.56276665">
				<ele>72.09197998046875</ele>
				<time>2022-11-13T03:24:16Z</time>
				<extensions>
					<speed>1.2699999809265137</speed>
				</extensions>
			</trkpt>
			<trkpt lat="22.15658841" lon="113.56275992">
				<ele>72.19720458984375</ele>
				<time>2022-11-13T03:24:17Z</time>
				<extensions>
					<speed>1.2100000381469727</speed>
				</extensions>
			</trkpt>
			<trkpt lat="22.15659871" lon="113.56275345">
				<ele>72.08319091796875</ele>
				<time>2022-11-13T03:24:18Z</time>
				<extensions>
					<speed>1.2899999618530273</speed>
				</extensions>
			</trkpt>
			<trkpt lat="22.15660959" lon="113.56274791">
				<ele>72.2501220703125</ele>
				<time>2022-11-13T03:24:19Z</time>
				<extensions>
					<speed>1.2899999618530273</speed>
				</extensions>
			</trkpt>
			<trkpt lat="22.1566211" lon="113.56274347">
				<ele>72.352783203125</ele>
				<time>2022-11-13T03:24:20Z</time>
				<extensions>
					<speed>1.2999999523162842</speed>
				</extensions>
			</trkpt>
			<trkpt lat="22.15663199" lon="113.56273942">
				<ele>72.30596923828125</ele>
				<time>2022-11-13T03:24:21Z</time>
				<extensions>
					<speed>1.25</speed>
				</extensions>
			</trkpt>
			<trkpt lat="22.15664195" lon="113.56273536">
				<ele>72.7313232421875</ele>
				<time>2022-11-13T03:24:22Z</time>
				<extensions>
					<speed>1.1299999952316284</speed>
				</extensions>
			</trkpt>
			<trkpt lat="22.15665151" lon="113.56273129">
				<ele>72.659423828125</ele>
				<time>2022-11-13T03:24:23Z</time>
				<extensions>
					<speed>1.2400000095367432</speed>
				</extensions>
			</trkpt>
			<trkpt lat="22.15666217" lon="113.56272885">
				<ele>72.23651123046875</ele>
				<time>2022-11-13T03:24:24Z</time>
				<extensions>
					<speed>1.2100000381469727</speed>
				</extensions>
			</trkpt>
			<trkpt lat="22.15667378" lon="113.56272747">
				<ele>72.2706298828125</ele>
				<time>2022-11-13T03:24:25Z</time>
				<extensions>
					<speed>1.2999999523162842</speed>
				</extensions>
			</trkpt>
			<trkpt lat="22.15668655" lon="113.5627254">
				<ele>72.55401611328125</ele>
				<time>2022-11-13T03:24:26Z</time>
				<extensions>
					<speed>1.5</speed>
				</extensions>
			</trkpt>
			<trkpt lat="22.15669841" lon="113.56272271">
				<ele>71.99591064453125</ele>
				<time>2022-11-13T03:24:27Z</time>
				<extensions>
					<speed>1.100000023841858</speed>
				</extensions>
			</trkpt>
			<trkpt lat="22.15670879" lon="113.56271918">
				<ele>72.012451171875</ele>
				<time>2022-11-13T03:24:28Z</time>
				<extensions>
					<speed>1.2400000095367432</speed>
				</extensions>
			</trkpt>
			<trkpt lat="22.15671992" lon="113.56271507">
				<ele>71.9630126953125</ele>
				<time>2022-11-13T03:24:29Z</time>
				<extensions>
					<speed>1.2999999523162842</speed>
				</extensions>
			</trkpt>
			<trkpt lat="22.1567306" lon="113.56271123">
				<ele>72.4857177734375</ele>
				<time>2022-11-13T03:24:30Z</time>
				<extensions>
					<speed>1.190000057220459</speed>
				</extensions>
			</trkpt>
			<trkpt lat="22.15674229" lon="113.56270753">
				<ele>72.08197021484375</ele>
				<time>2022-11-13T03:24:31Z</time>
				<extensions>
					<speed>1.4500000476837158</speed>
				</extensions>
			</trkpt>
			<trkpt lat="22.15675464" lon="113.56270484">
				<ele>71.9609375</ele>
				<time>2022-11-13T03:24:32Z</time>
				<extensions>
					<speed>1.340000033378601</speed>
				</extensions>
			</trkpt>
			<trkpt lat="22.15676643" lon="113.56270282">
				<ele>71.62640380859375</ele>
				<time>2022-11-13T03:24:33Z</time>
				<extensions>
					<speed>1.2200000286102295</speed>
				</extensions>
			</trkpt>
			<trkpt lat="22.15677797" lon="113.56270115">
				<ele>71.8251953125</ele>
				<time>2022-11-13T03:24:34Z</time>
				<extensions>
					<speed>1.2200000286102295</speed>
				</extensions>
			</trkpt>
			<trkpt lat="22.15708193" lon="113.56265983">
				<ele>74.51080322265625</ele>
				<time>2022-11-13T03:25:01Z</time>
				<extensions>
					<speed>1.090000033378601</speed>
				</extensions>
			</trkpt>
			<trkpt lat="22.15708834" lon="113.56267503">
				<ele>74.521240234375</ele>
				<time>2022-11-13T03:25:02Z</time>
				<extensions>
					<speed>1.090000033378601</speed>
				</extensions>
			</trkpt>
			<trkpt lat="22.15709814" lon="113.56268467">
				<ele>74.701904296875</ele>
				<time>2022-11-13T03:25:03Z</time>
				<extensions>
					<speed>0.9800000190734863</speed>
				</extensions>
			</trkpt>
			<trkpt lat="22.15710772" lon="113.5626925">
				<ele>75.40692138671875</ele>
				<time>2022-11-13T03:25:04Z</time>
				<extensions>
					<speed>0.9900000095367432</speed>
				</extensions>
			</trkpt>
			<trkpt lat="22.15711895" lon="113.56269624">
				<ele>75.55389404296875</ele>
				<time>2022-11-13T03:25:05Z</time>
				<extensions>
					<speed>1.340000033378601</speed>
				</extensions>
			</trkpt>
			<trkpt lat="22.15712818" lon="113.56269636">
				<ele>76.67364501953125</ele>
				<time>2022-11-13T03:25:06Z</time>
				<extensions>
					<speed>0.9200000166893005</speed>
				</extensions>
			</trkpt>
			<trkpt lat="22.15713693" lon="113.56269382">
				<ele>77.84588623046875</ele>
				<time>2022-11-13T03:25:07Z</time>
				<extensions>
					<speed>1.2300000190734863</speed>
				</extensions>
			</trkpt>
			<trkpt lat="22.15714839" lon="113.56269407">
				<ele>76.8251953125</ele>
				<time>2022-11-13T03:25:08Z</time>
				<extensions>
					<speed>1.2999999523162842</speed>
				</extensions>
			</trkpt>
			<trkpt lat="22.15716008" lon="113.56269645">
				<ele>75.41326904296875</ele>
				<time>2022-11-13T03:25:09Z</time>
				<extensions>
					<speed>1.0399999618530273</speed>
				</extensions>
			</trkpt>
			<trkpt lat="22.15717213" lon="113.56269814">
				<ele>75.0262451171875</ele>
				<time>2022-11-13T03:25:10Z</time>
				<extensions>
					<speed>1.440000057220459</speed>
				</extensions>
			</trkpt>
			<trkpt lat="22.15718376" lon="113.56269998">
				<ele>75.56219482421875</ele>
				<time>2022-11-13T03:25:11Z</time>
				<extensions>
					<speed>0.9700000286102295</speed>
				</extensions>
			</trkpt>
			<trkpt lat="22.15719522" lon="113.56270503">
				<ele>75.055419921875</ele>
				<time>2022-11-13T03:25:12Z</time>
				<extensions>
					<speed>1.3700000047683716</speed>
				</extensions>
			</trkpt>
			<trkpt lat="22.15720924" lon="113.5627117">
				<ele>75.48492431640625</ele>
				<time>2022-11-13T03:25:13Z</time>
				<extensions>
					<speed>1.350000023841858</speed>
				</extensions>
			</trkpt>
			<trkpt lat="22.15722107" lon="113.56271925">
				<ele>75.2447509765625</ele>
				<time>2022-11-13T03:25:14Z</time>
				<extensions>
					<speed>0.949999988079071</speed>
				</extensions>
			</trkpt>
			<trkpt lat="22.15723211" lon="113.56272723">
				<ele>75.509765625</ele>
				<time>2022-11-13T03:25:15Z</time>
				<extensions>
					<speed>1.2999999523162842</speed>
				</extensions>
			</trkpt>
			<trkpt lat="22.15724274" lon="113.562735">
				<ele>75.89825439453125</ele>
				<time>2022-11-13T03:25:16Z</time>
				<extensions>
					<speed>0.8899999856948853</speed>
				</extensions>
			</trkpt>
			<trkpt lat="22.15725262" lon="113.56274289">
				<ele>75.04608154296875</ele>
				<time>2022-11-13T03:25:17Z</time>
				<extensions>
					<speed>1.0399999618530273</speed>
				</extensions>
			</trkpt>
			<trkpt lat="22.15726606" lon="113.56274919">
				<ele>76.01123046875</ele>
				<time>2022-11-13T03:25:18Z</time>
				<extensions>
					<speed>1.5299999713897705</speed>
				</extensions>
			</trkpt>
			<trkpt lat="22.157708" lon="113.56318436">
				<ele>79.30548095703125</ele>
				<time>2022-11-13T03:26:00Z</time>
				<extensions>
					<speed>0.8999999761581421</speed>
				</extensions>
			</trkpt>
			<trkpt lat="22.15770748" lon="113.56318917">
				<ele>79.1102294921875</ele>
				<time>2022-11-13T03:26:01Z</time>
				<extensions>
					<speed>0.8999999761581421</speed>
				</extensions>
			</trkpt>
			<trkpt lat="22.15769829" lon="113.56320626">
				<ele>79.1231689453125</ele>
				<time>2022-11-13T03:26:02Z</time>
				<extensions>
					<speed>0.9900000095367432</speed>
				</extensions>
			</trkpt>
			<trkpt lat="22.15769188" lon="113.5632194">
				<ele>80.7025146484375</ele>
				<time>2022-11-13T03:26:03Z</time>
				<extensions>
					<speed>0.9200000166893005</speed>
				</extensions>
			</trkpt>
			<trkpt lat="22.15768607" lon="113.56323477">
				<ele>79.7783203125</ele>
				<time>2022-11-13T03:26:04Z</time>
				<extensions>
					<speed>1.1200000047683716</speed>
				</extensions>
			</trkpt>
			<trkpt lat="22.15768121" lon="113.5632497">
				<ele>79.81365966796875</ele>
				<time>2022-11-13T03:26:05Z</time>
				<extensions>
					<speed>0.949999988079071</speed>
				</extensions>
			</trkpt>
			<trkpt lat="22.15767688" lon="113.563262">
				<ele>79.95672607421875</ele>
				<time>2022-11-13T03:26:06Z</time>
				<extensions>
					<speed>0.8199999928474426</speed>
				</extensions>
			</trkpt>
			<trkpt lat="22.15767137" lon="113.56327303">
				<ele>79.5361328125</ele>
				<time>2022-11-13T03:26:07Z</time>
				<extensions>
					<speed>0.8700000047683716</speed>
				</extensions>
			</trkpt>
			<trkpt lat="22.15766484" lon="113.56328542">
				<ele>78.97589111328125</ele>
				<time>2022-11-13T03:26:08Z</time>
				<extensions>
					<speed>1.1299999952316284</speed>
				</extensions>
			</trkpt>
			<trkpt lat="22.15765935" lon="113.56329721">
				<ele>79.14697265625</ele>
				<time>2022-11-13T03:26:09Z</time>
				<extensions>
					<speed>0.8600000143051147</speed>
				</extensions>
			</trkpt>
			<trkpt lat="22.15765562" lon="113.56330699">
				<ele>79.77423095703125</ele>
				<time>2022-11-13T03:26:10Z</time>
				<extensions>
					<speed>0.7200000286102295</speed>
				</extensions>
			</trkpt>
			<trkpt lat="22.15765166" lon="113.56331766">
				<ele>78.5657958984375</ele>
				<time>2022-11-13T03:26:11Z</time>
				<extensions>
					<speed>1.2400000095367432</speed>
				</extensions>
			</trkpt>
			<trkpt lat="22.15764752" lon="113.56332886">
				<ele>78.61212158203125</ele>
				<time>2022-11-13T03:26:12Z</time>
				<extensions>
					<speed>0.949999988079071</speed>
				</extensions>
			</trkpt>
			<trkpt lat="22.15764488" lon="113.56333826">
				<ele>78.86865234375</ele>
				<time>2022-11-13T03:26:13Z</time>
				<extensions>
					<speed>0.8600000143051147</speed>
				</extensions>
			</trkpt>
			<trkpt lat="22.15764266" lon="113.5633491">
				<ele>78.34112548828125</ele>
				<time>2022-11-13T03:26:14Z</time>
				<extensions>
					<speed>1.2200000286102295</speed>
				</extensions>
			</trkpt>
			<trkpt lat="22.15764015" lon="113.56336018">
				<ele>78.1748046875</ele>
				<time>2022-11-13T03:26:15Z</time>
				<extensions>
					<speed>0.9800000190734863</speed>
				</extensions>
			</trkpt>
			<trkpt lat="22.15764074" lon="113.56336886">
				<ele>77.7353515625</ele>
				<time>2022-11-13T03:26:16Z</time>
				<extensions>
					<speed>0.8399999737739563</speed>
				</extensions>
			</trkpt>
			<trkpt lat="22.15764522" lon="113.5633764">
				<ele>78.38409423828125</ele>
				<time>2022-11-13T03:26:17Z</time>
				<extensions>
					<speed>0.8500000238418579</speed>
				</extensions>
			</trkpt>
			<trkpt lat="22.1576514" lon="113.56338773">
				<ele>78.457275390625</ele>
				<time>2022-11-13T03:26:18Z</time>
				<extensions>
					<speed>1.3700000047683716</speed>
				</extensions>
			</trkpt>
			<trkpt lat="22.15765804" lon="113.56339576">
				<ele>79.3155517578125</ele>
				<time>2022-11-13T03:26:19Z</time>
				<extensions>
					<speed>0.7099999785423279</speed>
				</extensions>
			</trkpt>
			<trkpt lat="22.15766282" lon="113.56340477">
				<ele>79.2576904296875</ele>
				<time>2022-11-13T03:26:20Z</time>
				<extensions>
					<speed>1.4199999570846558</speed>
				</extensions>
			</trkpt>
			<trkpt lat="22.15766882" lon="113.56341669">
				<ele>78.708984375</ele>
				<time>2022-11-13T03:26:21Z</time>
				<extensions>
					<speed>1.090000033378601</speed>
				</extensions>
			</trkpt>
			<trkpt lat="22.15767429" lon="113.56342635">
				<ele>79.0828857421875</ele>
				<time>2022-11-13T03:26:22Z</time>
				<extensions>
					<speed>0.9599999785423279</speed>
				</extensions>
			</trkpt>
			<trkpt lat="22.15767752" lon="113.56343734">
				<ele>78.619140625</ele>
				<time>2022-11-13T03:26:23Z</time>
				<extensions>
					<speed>1.1799999475479126</speed>
				</extensions>
			</trkpt>
			<trkpt lat="22.15768274" lon="113.56345081">
				<ele>78.6724853515625</ele>
				<time>2022-11-13T03:26:24Z</time>
				<extensions>
					<speed>1.5199999809265137</speed>
				</extensions>
			</trkpt>
			<trkpt lat="22.15768831" lon="113.56346329">
				<ele>78.2320556640625</ele>
				<time>2022-11-13T03:26:25Z</time>
				<extensions>
					<speed>1.149999976158142</speed>
				</extensions>
			</trkpt>
			<trkpt lat="22.15769551" lon="113.56347487">
				<ele>78.7320556640625</ele>
				<time>2022-11-13T03:26:26Z</time>
				<extensions>
					<speed>1.309999942779541</speed>
				</extensions>
			</trkpt>
			<trkpt lat="22.1577008" lon="113.56349055">
				<ele>79.003173828125</ele>
				<time>2022-11-13T03:26:27Z</time>
				<extensions>
					<speed>1.6399999856948853</speed>
				</extensions>
			</trkpt>
			<trkpt lat="22.15770407" lon="113.56350423">
				<ele>78.70751953125</ele>
				<time>2022-11-13T03:26:28Z</time>
				<extensions>
					<speed>1.0099999904632568</speed>
				</extensions>
			</trkpt>
			<trkpt lat="22.15770491" lon="113.56351455">
				<ele>78.45831298828125</ele>
				<time>2022-11-13T03:26:29Z</time>
				<extensions>
					<speed>0.8399999737739563</speed>
				</extensions>
			</trkpt>
			<trkpt lat="22.15770487" lon="113.56352475">
				<ele>77.92779541015625</ele>
				<time>2022-11-13T03:26:30Z</time>
				<extensions>
					<speed>0.7599999904632568</speed>
				</extensions>
			</trkpt>
			<trkpt lat="22.15770337" lon="113.56353457">
				<ele>77.97637939453125</ele>
				<time>2022-11-13T03:26:31Z</time>
				<extensions>
					<speed>0.7900000214576721</speed>
				</extensions>
			</trkpt>
			<trkpt lat="22.15769975" lon="113.56354526">
				<ele>77.8076171875</ele>
				<time>2022-11-13T03:26:32Z</time>
				<extensions>
					<speed>1.0099999904632568</speed>
				</extensions>
			</trkpt>
			<trkpt lat="22.15769729" lon="113.5635568">
				<ele>76.9884033203125</ele>
				<time>2022-11-13T03:26:33Z</time>
				<extensions>
					<speed>1.0299999713897705</speed>
				</extensions>
			</trkpt>
			<trkpt lat="22.15769633" lon="113.56356576">
				<ele>77.19964599609375</ele>
				<time>2022-11-13T03:26:34Z</time>
				<extensions>
					<speed>0.75</speed>
				</extensions>
			</trkpt>
			<trkpt lat="22.15769625" lon="113.563573">
				<ele>77.19964599609375</ele>
				<time>2022-11-13T03:26:35Z</time>
				<extensions>
					<speed>0.75</speed>
				</extensions>
			</trkpt>
			<trkpt lat="22.15770296" lon="113.563574">
				<ele>77.8282470703125</ele>
				<time>2022-11-13T03:26:36Z</time>
				<extensions>
					<speed>0.0</speed>
				</extensions>
			</trkpt>
			<trkpt lat="22.15770519" lon="113.56357889">
				<ele>77.94671630859375</ele>
				<time>2022-11-13T03:26:37Z</time>
				<extensions>
					<speed>0.75</speed>
				</extensions>
			</trkpt>
			<trkpt lat="22.15770582" lon="113.56358299">
				<ele>79.53253173828125</ele>
				<time>2022-11-13T03:26:38Z</time>
				<extensions>
					<speed>0.18000000715255737</speed>
				</extensions>
			</trkpt>
			<trkpt lat="22.15770799" lon="113.56358909">
				<ele>79.848388671875</ele>
				<time>2022-11-13T03:26:39Z</time>
				<extensions>
					<speed>0.7699999809265137</speed>
				</extensions>
			</trkpt>
			<trkpt lat="22.15771175" lon="113.56360035">
				<ele>79.266845703125</ele>
				<time>2022-11-13T03:26:40Z</time>
				<extensions>
					<speed>0.8199999928474426</speed>
				</extensions>
			</trkpt>
			<trkpt lat="22.15771645" lon="113.56361309">
				<ele>78.88653564453125</ele>
				<time>2022-11-13T03:26:41Z</time>
				<extensions>
					<speed>0.9300000071525574</speed>
				</extensions>
			</trkpt>
			<trkpt lat="22.15772214" lon="113.56362822">
				<ele>77.91461181640625</ele>
				<time>2022-11-13T03:26:42Z</time>
				<extensions>
					<speed>1.1799999475479126</speed>
				</extensions>
			</trkpt>
			<trkpt lat="22.1577301" lon="113.56364532">
				<ele>77.99884033203125</ele>
				<time>2022-11-13T03:26:43Z</time>
				<extensions>
					<speed>1.6299999952316284</speed>
				</extensions>
			</trkpt>
			<trkpt lat="22.15773842" lon="113.56366287">
				<ele>78.008544921875</ele>
				<time>2022-11-13T03:26:44Z</time>
				<extensions>
					<speed>1.399999976158142</speed>
				</extensions>
			</trkpt>
			<trkpt lat="22.15774556" lon="113.56367872">
				<ele>79.0177001953125</ele>
				<time>2022-11-13T03:26:45Z</time>
				<extensions>
					<speed>1.440000057220459</speed>
				</extensions>
			</trkpt>
			<trkpt lat="22.15775379" lon="113.56369841">
				<ele>78.59051513671875</ele>
				<time>2022-11-13T03:26:46Z</time>
				<extensions>
					<speed>2.1700000762939453</speed>
				</extensions>
			</trkpt>
			<trkpt lat="22.15776131" lon="113.56371148">
				<ele>79.5611572265625</ele>
				<time>2022-11-13T03:26:47Z</time>
				<extensions>
					<speed>0.6100000143051147</speed>
				</extensions>
			</trkpt>
			<trkpt lat="22.15776635" lon="113.56371915">
				<ele>79.9251708984375</ele>
				<time>2022-11-13T03:26:48Z</time>
				<extensions>
					<speed>0.8700000047683716</speed>
				</extensions>
			</trkpt>
			<trkpt lat="22.15777187" lon="113.56372725">
				<ele>79.21759033203125</ele>
				<time>2022-11-13T03:26:49Z</time>
				<extensions>
					<speed>0.8600000143051147</speed>
				</extensions>
			</trkpt>
			<trkpt lat="22.15777821" lon="113.56373487">
				<ele>79.7989501953125</ele>
				<time>2022-11-13T03:26:50Z</time>
				<extensions>
					<speed>0.8899999856948853</speed>
				</extensions>
			</trkpt>
			<trkpt lat="22.15778717" lon="113.56374825">
				<ele>79.10650634765625</ele>
				<time>2022-11-13T03:26:51Z</time>
				<extensions>
					<speed>1.7000000476837158</speed>
				</extensions>
			</trkpt>
			<trkpt lat="22.15780068" lon="113.56376372">
				<ele>79.75628662109375</ele>
				<time>2022-11-13T03:26:52Z</time>
				<extensions>
					<speed>1.7699999809265137</speed>
				</extensions>
			</trkpt>
			<trkpt lat="22.15781171" lon="113.56377433">
				<ele>79.4085693359375</ele>
				<time>2022-11-13T03:26:53Z</time>
				<extensions>
					<speed>1.0700000524520874</speed>
				</extensions>
			</trkpt>
			<trkpt lat="22.15782034" lon="113.56378153">
				<ele>79.309326171875</ele>
				<time>2022-11-13T03:26:54Z</time>
				<extensions>
					<speed>0.9300000071525574</speed>
				</extensions>
			</trkpt>
			<trkpt lat="22.15782593" lon="113.56378505">
				<ele>78.34149169921875</ele>
				<time>2022-11-13T03:26:55Z</time>
				<extensions>
					<speed>0.27000001072883606</speed>
				</extensions>
			</trkpt>
			<trkpt lat="22.15872175" lon="113.56368025">
				<ele>85.3917236328125</ele>
				<time>2022-11-13T03:28:09Z</time>
				<extensions>
					<speed>1.2000000476837158</speed>
				</extensions>
			</trkpt>
			<trkpt lat="22.15872776" lon="113.56368056">
				<ele>85.2535400390625</ele>
				<time>2022-11-13T03:28:10Z</time>
				<extensions>
					<speed>1.2000000476837158</speed>
				</extensions>
			</trkpt>
			<trkpt lat="22.15875122" lon="113.56366715">
				<ele>87.45794677734375</ele>
				<time>2022-11-13T03:28:11Z</time>
				<extensions>
					<speed>1.0499999523162842</speed>
				</extensions>
			</trkpt>
			<trkpt lat="22.15876488" lon="113.56367604">
				<ele>87.2708740234375</ele>
				<time>2022-11-13T03:28:12Z</time>
				<extensions>
					<speed>0.8899999856948853</speed>
				</extensions>
			</trkpt>
			<trkpt lat="22.15877441" lon="113.56370067">
				<ele>83.7557373046875</ele>
				<time>2022-11-13T03:28:13Z</time>
				<extensions>
					<speed>0.8299999833106995</speed>
				</extensions>
			</trkpt>
			<trkpt lat="22.15878025" lon="113.56368666">
				<ele>85.08087158203125</ele>
				<time>2022-11-13T03:28:14Z</time>
				<extensions>
					<speed>0.1899999976158142</speed>
				</extensions>
			</trkpt>
			<trkpt lat="22.1587941" lon="113.56369077">
				<ele>84.7313232421875</ele>
				<time>2022-11-13T03:28:15Z</time>
				<extensions>
					<speed>1.4199999570846558</speed>
				</extensions>
			</trkpt>
			<trkpt lat="22.15880367" lon="113.56369209">
				<ele>84.23126220703125</ele>
				<time>2022-11-13T03:28:16Z</time>
				<extensions>
					<speed>1.1699999570846558</speed>
				</extensions>
			</trkpt>
			<trkpt lat="22.16141325" lon="113.5641472">
				<ele>85.05413818359375</ele>
				<time>2022-11-13T03:32:13Z</time>
				<extensions>
					<speed>1.1299999952316284</speed>
				</extensions>
			</trkpt>
			<trkpt lat="22.16141545" lon="113.56415298">
				<ele>85.0264892578125</ele>
				<time>2022-11-13T03:32:14Z</time>
				<extensions>
					<speed>1.1299999952316284</speed>
				</extensions>
			</trkpt>
			<trkpt lat="22.16140364" lon="113.56416045">
				<ele>87.93115234375</ele>
				<time>2022-11-13T03:32:15Z</time>
				<extensions>
					<speed>0.9200000166893005</speed>
				</extensions>
			</trkpt>
			<trkpt lat="22.16141478" lon="113.56416113">
				<ele>88.96673583984375</ele>
				<time>2022-11-13T03:32:16Z</time>
				<extensions>
					<speed>0.9800000190734863</speed>
				</extensions>
			</trkpt>
			<trkpt lat="22.16141819" lon="113.56417302">
				<ele>88.38055419921875</ele>
				<time>2022-11-13T03:32:17Z</time>
				<extensions>
					<speed>1.1799999475479126</speed>
				</extensions>
			</trkpt>
			<trkpt lat="22.16143085" lon="113.5641882">
				<ele>88.25018310546875</ele>
				<time>2022-11-13T03:32:18Z</time>
				<extensions>
					<speed>1.2400000095367432</speed>
				</extensions>
			</trkpt>
			<trkpt lat="22.161428" lon="113.56419416">
				<ele>87.5234375</ele>
				<time>2022-11-13T03:32:19Z</time>
				<extensions>
					<speed>0.8999999761581421</speed>
				</extensions>
			</trkpt>
			<trkpt lat="22.16142585" lon="113.56420462">
				<ele>87.57037353515625</ele>
				<time>2022-11-13T03:32:20Z</time>
				<extensions>
					<speed>0.949999988079071</speed>
				</extensions>
			</trkpt>
			<trkpt lat="22.16142171" lon="113.5642213">
				<ele>86.9423828125</ele>
				<time>2022-11-13T03:32:21Z</time>
				<extensions>
					<speed>1.190000057220459</speed>
				</extensions>
			</trkpt>
			<trkpt lat="22.16141721" lon="113.56423052">
				<ele>87.11737060546875</ele>
				<time>2022-11-13T03:32:22Z</time>
				<extensions>
					<speed>0.9200000166893005</speed>
				</extensions>
			</trkpt>
			<trkpt lat="22.16142172" lon="113.56424296">
				<ele>87.5067138671875</ele>
				<time>2022-11-13T03:32:23Z</time>
				<extensions>
					<speed>1.2000000476837158</speed>
				</extensions>
			</trkpt>
			<trkpt lat="22.16142371" lon="113.5642549">
				<ele>86.9879150390625</ele>
				<time>2022-11-13T03:32:24Z</time>
				<extensions>
					<speed>1.0099999904632568</speed>
				</extensions>
			</trkpt>
			<trkpt lat="22.16142541" lon="113.56426509">
				<ele>86.8756103515625</ele>
				<time>2022-11-13T03:32:25Z</time>
				<extensions>
					<speed>1.0199999809265137</speed>
				</extensions>
			</trkpt>
			<trkpt lat="22.16142599" lon="113.56427479">
				<ele>86.67962646484375</ele>
				<time>2022-11-13T03:32:26Z</time>
				<extensions>
					<speed>1.0</speed>
				</extensions>
			</trkpt>
			<trkpt lat="22.16142514" lon="113.56428615">
				<ele>86.37152099609375</ele>
				<time>2022-11-13T03:32:27Z</time>
				<extensions>
					<speed>1.190000057220459</speed>
				</extensions>
			</trkpt>
			<trkpt lat="22.16142271" lon="113.56429788">
				<ele>85.842041015625</ele>
				<time>2022-11-13T03:32:28Z</time>
				<extensions>
					<speed>1.0299999713897705</speed>
				</extensions>
			</trkpt>
			<trkpt lat="22.16142135" lon="113.56430964">
				<ele>86.15411376953125</ele>
				<time>2022-11-13T03:32:29Z</time>
				<extensions>
					<speed>1.1299999952316284</speed>
				</extensions>
			</trkpt>
			<trkpt lat="22.16105194" lon="113.56645082">
				<ele>92.49774169921875</ele>
				<time>2022-11-13T03:35:14Z</time>
				<extensions>
					<speed>1.399999976158142</speed>
				</extensions>
			</trkpt>
			<trkpt lat="22.16102823" lon="113.56641089">
				<ele>93.8975830078125</ele>
				<time>2022-11-13T03:35:15Z</time>
				<extensions>
					<speed>1.100000023841858</speed>
				</extensions>
			</trkpt>
			<trkpt lat="22.1610085" lon="113.56641568">
				<ele>94.774169921875</ele>
				<time>2022-11-13T03:35:16Z</time>
				<extensions>
					<speed>0.9700000286102295</speed>
				</extensions>
			</trkpt>
			<trkpt lat="22.16100035" lon="113.56642735">
				<ele>95.94329833984375</ele>
				<time>2022-11-13T03:35:17Z</time>
				<extensions>
					<speed>1.309999942779541</speed>
				</extensions>
			</trkpt>
			<trkpt lat="22.16098722" lon="113.56643583">
				<ele>96.5189208984375</ele>
				<time>2022-11-13T03:35:18Z</time>
				<extensions>
					<speed>1.190000057220459</speed>
				</extensions>
			</trkpt>
			<trkpt lat="22.16097964" lon="113.56644461">
				<ele>96.9522705078125</ele>
				<time>2022-11-13T03:35:19Z</time>
				<extensions>
					<speed>0.8799999952316284</speed>
				</extensions>
			</trkpt>
			<trkpt lat="22.16097009" lon="113.56645028">
				<ele>96.68121337890625</ele>
				<time>2022-11-13T03:35:20Z</time>
				<extensions>
					<speed>1.3300000429153442</speed>
				</extensions>
			</trkpt>
			<trkpt lat="22.16096575" lon="113.56645882">
				<ele>96.8236083984375</ele>
				<time>2022-11-13T03:35:21Z</time>
				<extensions>
					<speed>0.8199999928474426</speed>
				</extensions>
			</trkpt>
			<trkpt lat="22.16095825" lon="113.566466">
				<ele>96.69354248046875</ele>
				<time>2022-11-13T03:35:22Z</time>
				<extensions>
					<speed>1.159999966621399</speed>
				</extensions>
			</trkpt>
			<trkpt lat="22.16095639" lon="113.56647695">
				<ele>96.80523681640625</ele>
				<time>2022-11-13T03:35:23Z</time>
				<extensions>
					<speed>1.3600000143051147</speed>
				</extensions>
			</trkpt>
			<trkpt lat="22.16095577" lon="113.56648904">
				<ele>95.579833984375</ele>
				<time>2022-11-13T03:35:24Z</time>
				<extensions>
					<speed>1.4600000381469727</speed>
				</extensions>
			</trkpt>
			<trkpt lat="22.16095255" lon="113.56649794">
				<ele>93.96453857421875</ele>
				<time>2022-11-13T03:35:25Z</time>
				<extensions>
					<speed>0.9900000095367432</speed>
				</extensions>
			</trkpt>
			<trkpt lat="22.16094991" lon="113.56650482">
				<ele>93.36383056640625</ele>
				<time>2022-11-13T03:35:26Z</time>
				<extensions>
					<speed>0.9800000190734863</speed>
				</extensions>
			</trkpt>
			<trkpt lat="22.16094538" lon="113.56651202">
				<ele>93.21368408203125</ele>
				<time>2022-11-13T03:35:27Z</time>
				<extensions>
					<speed>1.2799999713897705</speed>
				</extensions>
			</trkpt>
			<trkpt lat="22.16093916" lon="113.56651955">
				<ele>92.95306396484375</ele>
				<time>2022-11-13T03:35:28Z</time>
				<extensions>
					<speed>1.1100000143051147</speed>
				</extensions>
			</trkpt>
			<trkpt lat="22.16093238" lon="113.56652586">
				<ele>92.67254638671875</ele>
				<time>2022-11-13T03:35:29Z</time>
				<extensions>
					<speed>1.2599999904632568</speed>
				</extensions>
			</trkpt>
			<trkpt lat="22.16092477" lon="113.5665314">
				<ele>92.5341796875</ele>
				<time>2022-11-13T03:35:30Z</time>
				<extensions>
					<speed>1.0299999713897705</speed>
				</extensions>
			</trkpt>
			<trkpt lat="22.16091635" lon="113.56653881">
				<ele>91.24554443359375</ele>
				<time>2022-11-13T03:35:31Z</time>
				<extensions>
					<speed>1.409999966621399</speed>
				</extensions>
			</trkpt>
			<trkpt lat="22.16090927" lon="113.56654612">
				<ele>90.69512939453125</ele>
				<time>2022-11-13T03:35:32Z</time>
				<extensions>
					<speed>0.8899999856948853</speed>
				</extensions>
			</trkpt>
			<trkpt lat="22.16090411" lon="113.56655565">
				<ele>90.8955078125</ele>
				<time>2022-11-13T03:35:33Z</time>
				<extensions>
					<speed>1.2100000381469727</speed>
				</extensions>
			</trkpt>
			<trkpt lat="22.16089817" lon="113.56656533">
				<ele>91.13995361328125</ele>
				<time>2022-11-13T03:35:34Z</time>
				<extensions>
					<speed>1.0700000524520874</speed>
				</extensions>
			</trkpt>
			<trkpt lat="22.16088933" lon="113.56657586">
				<ele>90.6236572265625</ele>
				<time>2022-11-13T03:35:35Z</time>
				<extensions>
					<speed>1.4800000190734863</speed>
				</extensions>
			</trkpt>
			<trkpt lat="22.16088041" lon="113.56658401">
				<ele>91.2464599609375</ele>
				<time>2022-11-13T03:35:36Z</time>
				<extensions>
					<speed>0.9200000166893005</speed>
				</extensions>
			</trkpt>
			<trkpt lat="22.16087107" lon="113.56659061">
				<ele>91.5225830078125</ele>
				<time>2022-11-13T03:35:37Z</time>
				<extensions>
					<speed>1.2000000476837158</speed>
				</extensions>
			</trkpt>
			<trkpt lat="22.15990532" lon="113.56684989">
				<ele>94.5289306640625</ele>
				<time>2022-11-13T03:37:07Z</time>
				<extensions>
					<speed>1.2699999809265137</speed>
				</extensions>
			</trkpt>
			<trkpt lat="22.15989932" lon="113.56685222">
				<ele>94.4241943359375</ele>
				<time>2022-11-13T03:37:08Z</time>
				<extensions>
					<speed>1.2699999809265137</speed>
				</extensions>
			</trkpt>
			<trkpt lat="22.15988574" lon="113.56688948">
				<ele>96.97674560546875</ele>
				<time>2022-11-13T03:37:09Z</time>
				<extensions>
					<speed>1.340000033378601</speed>
				</extensions>
			</trkpt>
			<trkpt lat="22.15988475" lon="113.56690759">
				<ele>99.6181640625</ele>
				<time>2022-11-13T03:37:10Z</time>
				<extensions>
					<speed>1.0399999618530273</speed>
				</extensions>
			</trkpt>
			<trkpt lat="22.15985904" lon="113.56691304">
				<ele>98.295166015625</ele>
				<time>2022-11-13T03:37:11Z</time>
				<extensions>
					<speed>1.649999976158142</speed>
				</extensions>
			</trkpt>
			<trkpt lat="22.15984631" lon="113.56692019">
				<ele>98.660888671875</ele>
				<time>2022-11-13T03:37:12Z</time>
				<extensions>
					<speed>1.0700000524520874</speed>
				</extensions>
			</trkpt>
			<trkpt lat="22.15982919" lon="113.56692363">
				<ele>97.4266357421875</ele>
				<time>2022-11-13T03:37:13Z</time>
				<extensions>
					<speed>1.1299999952316284</speed>
				</extensions>
			</trkpt>
			<trkpt lat="22.15981717" lon="113.56692871">
				<ele>97.49749755859375</ele>
				<time>2022-11-13T03:37:14Z</time>
				<extensions>
					<speed>1.2699999809265137</speed>
				</extensions>
			</trkpt>
			<trkpt lat="22.15980015" lon="113.56693542">
				<ele>97.35906982421875</ele>
				<time>2022-11-13T03:37:15Z</time>
				<extensions>
					<speed>0.9800000190734863</speed>
				</extensions>
			</trkpt>
			<trkpt lat="22.1597904" lon="113.56694388">
				<ele>96.75555419921875</ele>
				<time>2022-11-13T03:37:16Z</time>
				<extensions>
					<speed>1.0800000429153442</speed>
				</extensions>
			</trkpt>
			<trkpt lat="22.15977767" lon="113.5669549">
				<ele>97.52105712890625</ele>
				<time>2022-11-13T03:37:17Z</time>
				<extensions>
					<speed>1.659999966621399</speed>
				</extensions>
			</trkpt>
			<trkpt lat="22.15976423" lon="113.56696311">
				<ele>98.02593994140625</ele>
				<time>2022-11-13T03:37:18Z</time>
				<extensions>
					<speed>1.5399999618530273</speed>
				</extensions>
			</trkpt>
			<trkpt lat="22.15974956" lon="113.56696932">
				<ele>98.62200927734375</ele>
				<time>2022-11-13T03:37:19Z</time>
				<extensions>
					<speed>1.5399999618530273</speed>
				</extensions>
			</trkpt>
			<trkpt lat="22.15973542" lon="113.56697561">
				<ele>99.46533203125</ele>
				<time>2022-11-13T03:37:20Z</time>
				<extensions>
					<speed>1.5199999809265137</speed>
				</extensions>
			</trkpt>
			<trkpt lat="22.1597224" lon="113.56697926">
				<ele>99.58721923828125</ele>
				<time>2022-11-13T03:37:21Z</time>
				<extensions>
					<speed>1.1299999952316284</speed>
				</extensions>
			</trkpt>
			<trkpt lat="22.15971117" lon="113.56698225">
				<ele>99.13665771484375</ele>
				<time>2022-11-13T03:37:22Z</time>
				<extensions>
					<speed>1.090000033378601</speed>
				</extensions>
			</trkpt>
			<trkpt lat="22.15969818" lon="113.56698421">
				<ele>98.7386474609375</ele>
				<time>2022-11-13T03:37:23Z</time>
				<extensions>
					<speed>1.4199999570846558</speed>
				</extensions>
			</trkpt>
			<trkpt lat="22.15968477" lon="113.56698568">
				<ele>98.5643310546875</ele>
				<time>2022-11-13T03:37:24Z</time>
				<extensions>
					<speed>1.2000000476837158</speed>
				</extensions>
			</trkpt>
			<trkpt lat="22.15967245" lon="113.56698737">
				<ele>98.0523681640625</ele>
				<time>2022-11-13T03:37:25Z</time>
				<extensions>
					<speed>1.159999966621399</speed>
				</extensions>
			</trkpt>
			<trkpt lat="22.15965932" lon="113.56698654">
				<ele>97.40509033203125</ele>
				<time>2022-11-13T03:37:26Z</time>
				<extensions>
					<speed>1.3300000429153442</speed>
				</extensions>
			</trkpt>
			<trkpt lat="22.15964588" lon="113.56698635">
				<ele>97.72857666015625</ele>
				<time>2022-11-13T03:37:27Z</time>
				<extensions>
					<speed>1.3300000429153442</speed>
				</extensions>
			</trkpt>
			<trkpt lat="22.15963471" lon="113.56698824">
				<ele>97.998779296875</ele>
				<time>2022-11-13T03:37:28Z</time>
				<extensions>
					<speed>1.1100000143051147</speed>
				</extensions>
			</trkpt>
			<trkpt lat="22.15962462" lon="113.56699253">
				<ele>98.52923583984375</ele>
				<time>2022-11-13T03:37:29Z</time>
				<extensions>
					<speed>1.2300000190734863</speed>
				</extensions>
			</trkpt>
			<trkpt lat="22.15961528" lon="113.56699953">
				<ele>98.87945556640625</ele>
				<time>2022-11-13T03:37:30Z</time>
				<extensions>
					<speed>1.2599999904632568</speed>
				</extensions>
			</trkpt>
			<trkpt lat="22.15986346" lon="113.56848567">
				<ele>107.7384033203125</ele>
				<time>2022-11-13T03:39:28Z</time>
				<extensions>
					<speed>1.1299999952316284</speed>
				</extensions>
			</trkpt>
			<trkpt lat="22.15986326" lon="113.56849182">
				<ele>107.61334228515625</ele>
				<time>2022-11-13T03:39:29Z</time>
				<extensions>
					<speed>1.1299999952316284</speed>
				</extensions>
			</trkpt>
			<trkpt lat="22.15987666" lon="113.56848768">
				<ele>102.58355712890625</ele>
				<time>2022-11-13T03:39:30Z</time>
				<extensions>
					<speed>0.9399999976158142</speed>
				</extensions>
			</trkpt>
			<trkpt lat="22.15989405" lon="113.56850885">
				<ele>103.84527587890625</ele>
				<time>2022-11-13T03:39:31Z</time>
				<extensions>
					<speed>0.949999988079071</speed>
				</extensions>
			</trkpt>
			<trkpt lat="22.1598882" lon="113.56853155">
				<ele>102.16839599609375</ele>
				<time>2022-11-13T03:39:32Z</time>
				<extensions>
					<speed>1.4600000381469727</speed>
				</extensions>
			</trkpt>
			<trkpt lat="22.15989252" lon="113.56854994">
				<ele>102.63397216796875</ele>
				<time>2022-11-13T03:39:33Z</time>
				<extensions>
					<speed>1.1399999856948853</speed>
				</extensions>
			</trkpt>
			<trkpt lat="22.15989704" lon="113.56856074">
				<ele>103.08184814453125</ele>
				<time>2022-11-13T03:39:34Z</time>
				<extensions>
					<speed>0.8299999833106995</speed>
				</extensions>
			</trkpt>
			<trkpt lat="22.15989432" lon="113.56856866">
				<ele>102.92041015625</ele>
				<time>2022-11-13T03:39:35Z</time>
				<extensions>
					<speed>0.8799999952316284</speed>
				</extensions>
			</trkpt>
			<trkpt lat="22.15988464" lon="113.56858408">
				<ele>102.07855224609375</ele>
				<time>2022-11-13T03:39:36Z</time>
				<extensions>
					<speed>1.8700000047683716</speed>
				</extensions>
			</trkpt>
			<trkpt lat="22.15988594" lon="113.56859285">
				<ele>101.5982666015625</ele>
				<time>2022-11-13T03:39:37Z</time>
				<extensions>
					<speed>1.3300000429153442</speed>
				</extensions>
			</trkpt>
			<trkpt lat="22.15988324" lon="113.56860473">
				<ele>102.3455810546875</ele>
				<time>2022-11-13T03:39:38Z</time>
				<extensions>
					<speed>1.690000057220459</speed>
				</extensions>
			</trkpt>
			<trkpt lat="22.15987942" lon="113.56861698">
				<ele>102.20501708984375</ele>
				<time>2022-11-13T03:39:39Z</time>
				<extensions>
					<speed>1.2599999904632568</speed>
				</extensions>
			</trkpt>
			<trkpt lat="22.15987412" lon="113.56862524">
				<ele>101.0511474609375</ele>
				<time>2022-11-13T03:39:40Z</time>
				<extensions>
					<speed>1.2100000381469727</speed>
				</extensions>
			</trkpt>
			<trkpt lat="22.15986998" lon="113.56863225">
				<ele>100.3240966796875</ele>
				<time>2022-11-13T03:39:41Z</time>
				<extensions>
					<speed>0.8299999833106995</speed>
				</extensions>
			</trkpt>
			<trkpt lat="22.15986104" lon="113.56863966">
				<ele>99.73388671875</ele>
				<time>2022-11-13T03:39:42Z</time>
				<extensions>
					<speed>1.649999976158142</speed>
				</extensions>
			</trkpt>
			<trkpt lat="22.15985179" lon="113.5686482">
				<ele>98.57489013671875</ele>
				<time>2022-11-13T03:39:43Z</time>
				<extensions>
					<speed>1.1699999570846558</speed>
				</extensions>
			</trkpt>
			<trkpt lat="22.15984749" lon="113.56865942">
				<ele>98.11181640625</ele>
				<time>2022-11-13T03:39:44Z</time>
				<extensions>
					<speed>1.659999966621399</speed>
				</extensions>
			</trkpt>
			<trkpt lat="22.15892706" lon="113.57141488">
				<ele>64.36669921875</ele>
				<time>2022-11-13T03:43:25Z</time>
				<extensions>
					<speed>1.3899999856948853</speed>
				</extensions>
			</trkpt>
			<trkpt lat="22.1588772" lon="113.5714028">
				<ele>70.49542236328125</ele>
				<time>2022-11-13T03:43:26Z</time>
				<extensions>
					<speed>1.3700000047683716</speed>
				</extensions>
			</trkpt>
			<trkpt lat="22.15884916" lon="113.57139674">
				<ele>75.09454345703125</ele>
				<time>2022-11-13T03:43:27Z</time>
				<extensions>
					<speed>0.8899999856948853</speed>
				</extensions>
			</trkpt>
			<trkpt lat="22.15883307" lon="113.57140226">
				<ele>78.72906494140625</ele>
				<time>2022-11-13T03:43:28Z</time>
				<extensions>
					<speed>1.2799999713897705</speed>
				</extensions>
			</trkpt>
			<trkpt lat="22.15882438" lon="113.5714025">
				<ele>79.043212890625</ele>
				<time>2022-11-13T03:43:29Z</time>
				<extensions>
					<speed>0.9599999785423279</speed>
				</extensions>
			</trkpt>
			<trkpt lat="22.15880785" lon="113.57141053">
				<ele>80.61041259765625</ele>
				<time>2022-11-13T03:43:30Z</time>
				<extensions>
					<speed>1.3300000429153442</speed>
				</extensions>
			</trkpt>
			<trkpt lat="22.15879322" lon="113.57141912">
				<ele>81.1217041015625</ele>
				<time>2022-11-13T03:43:31Z</time>
				<extensions>
					<speed>1.5199999809265137</speed>
				</extensions>
			</trkpt>
			<trkpt lat="22.15878357" lon="113.57142737">
				<ele>82.40887451171875</ele>
				<time>2022-11-13T03:43:32Z</time>
				<extensions>
					<speed>1.3799999952316284</speed>
				</extensions>
			</trkpt>
			<trkpt lat="22.15877467" lon="113.57143639">
				<ele>82.976806640625</ele>
				<time>2022-11-13T03:43:33Z</time>
				<extensions>
					<speed>1.2999999523162842</speed>
				</extensions>
			</trkpt>
			<trkpt lat="22.1587659" lon="113.57144642">
				<ele>83.45703125</ele>
				<time>2022-11-13T03:43:34Z</time>
				<extensions>
					<speed>1.1799999475479126</speed>
				</extensions>
			</trkpt>
			<trkpt lat="22.15875524" lon="113.57145486">
				<ele>84.49810791015625</ele>
				<time>2022-11-13T03:43:35Z</time>
				<extensions>
					<speed>1.2999999523162842</speed>
				</extensions>
			</trkpt>
			<trkpt lat="22.15874729" lon="113.57145977">
				<ele>83.33837890625</ele>
				<time>2022-11-13T03:43:36Z</time>
				<extensions>
					<speed>0.8500000238418579</speed>
				</extensions>
			</trkpt>
			<trkpt lat="22.15874176" lon="113.57145706">
				<ele>83.22930908203125</ele>
				<time>2022-11-13T03:43:37Z</time>
				<extensions>
					<speed>0.0</speed>
				</extensions>
			</trkpt>
			<trkpt lat="22.15873584" lon="113.57145152">
				<ele>83.12811279296875</ele>
				<time>2022-11-13T03:43:38Z</time>
				<extensions>
					<speed>0.7400000095367432</speed>
				</extensions>
			</trkpt>
			<trkpt lat="22.15872919" lon="113.57144188">
				<ele>82.561279296875</ele>
				<time>2022-11-13T03:43:39Z</time>
				<extensions>
					<speed>1.149999976158142</speed>
				</extensions>
			</trkpt>
			<trkpt lat="22.1587252" lon="113.57142819">
				<ele>82.28204345703125</ele>
				<time>2022-11-13T03:43:40Z</time>
				<extensions>
					<speed>0.9399999976158142</speed>
				</extensions>
			</trkpt>
			<trkpt lat="22.15872479" lon="113.57141318">
				<ele>82.11712646484375</ele>
				<time>2022-11-13T03:43:41Z</time>
				<extensions>
					<speed>1.0700000524520874</speed>
				</extensions>
			</trkpt>
			<trkpt lat="22.15872583" lon="113.57139912">
				<ele>82.52044677734375</ele>
				<time>2022-11-13T03:43:42Z</time>
				<extensions>
					<speed>0.7599999904632568</speed>
				</extensions>
			</trkpt>
			<trkpt lat="22.15872408" lon="113.57138395">
				<ele>82.9598388671875</ele>
				<time>2022-11-13T03:43:43Z</time>
				<extensions>
					<speed>1.2999999523162842</speed>
				</extensions>
			</trkpt>
			<trkpt lat="22.15872093" lon="113.57136749">
				<ele>82.76513671875</ele>
				<time>2022-11-13T03:43:44Z</time>
				<extensions>
					<speed>1.159999966621399</speed>
				</extensions>
			</trkpt>
			<trkpt lat="22.15871553" lon="113.57135252">
				<ele>82.3717041015625</ele>
				<time>2022-11-13T03:43:45Z</time>
				<extensions>
					<speed>1.1100000143051147</speed>
				</extensions>
			</trkpt>
			<trkpt lat="22.15871016" lon="113.57133541">
				<ele>80.951171875</ele>
				<time>2022-11-13T03:43:46Z</time>
				<extensions>
					<speed>1.399999976158142</speed>
				</extensions>
			</trkpt>
			<trkpt lat="22.15870473" lon="113.57131975">
				<ele>81.8458251953125</ele>
				<time>2022-11-13T03:43:47Z</time>
				<extensions>
					<speed>0.9900000095367432</speed>
				</extensions>
			</trkpt>
			<trkpt lat="22.15870063" lon="113.57130672">
				<ele>81.8228759765625</ele>
				<time>2022-11-13T03:43:48Z</time>
				<extensions>
					<speed>1.0</speed>
				</extensions>
			</trkpt>
			<trkpt lat="22.15869767" lon="113.57129506">
				<ele>81.46380615234375</ele>
				<time>2022-11-13T03:43:49Z</time>
				<extensions>
					<speed>0.8700000047683716</speed>
				</extensions>
			</trkpt>
			<trkpt lat="22.15869602" lon="113.57128182">
				<ele>80.828125</ele>
				<time>2022-11-13T03:43:50Z</time>
				<extensions>
					<speed>1.2000000476837158</speed>
				</extensions>
			</trkpt>
			<trkpt lat="22.1586945" lon="113.5712666">
				<ele>80.76611328125</ele>
				<time>2022-11-13T03:43:51Z</time>
				<extensions>
					<speed>1.2699999809265137</speed>
				</extensions>
			</trkpt>
			<trkpt lat="22.15869494" lon="113.57125606">
				<ele>79.1275634765625</ele>
				<time>2022-11-13T03:43:52Z</time>
				<extensions>
					<speed>0.800000011920929</speed>
				</extensions>
			</trkpt>
			<trkpt lat="22.15869523" lon="113.5712428">
				<ele>79.053955078125</ele>
				<time>2022-11-13T03:43:53Z</time>
				<extensions>
					<speed>1.559999942779541</speed>
				</extensions>
			</trkpt>
			<trkpt lat="22.15869627" lon="113.57122861">
				<ele>78.2498779296875</ele>
				<time>2022-11-13T03:43:54Z</time>
				<extensions>
					<speed>1.1699999570846558</speed>
				</extensions>
			</trkpt>
			<trkpt lat="22.15869649" lon="113.57121598">
				<ele>77.92803955078125</ele>
				<time>2022-11-13T03:43:55Z</time>
				<extensions>
					<speed>1.0800000429153442</speed>
				</extensions>
			</trkpt>
			<trkpt lat="22.15869739" lon="113.57120414">
				<ele>77.7623291015625</ele>
				<time>2022-11-13T03:43:56Z</time>
				<extensions>
					<speed>1.090000033378601</speed>
				</extensions>
			</trkpt>
			<trkpt lat="22.1586993" lon="113.57119383">
				<ele>77.90069580078125</ele>
				<time>2022-11-13T03:43:57Z</time>
				<extensions>
					<speed>0.9399999976158142</speed>
				</extensions>
			</trkpt>
			<trkpt lat="22.15870157" lon="113.57118631">
				<ele>78.0823974609375</ele>
				<time>2022-11-13T03:43:58Z</time>
				<extensions>
					<speed>0.5400000214576721</speed>
				</extensions>
			</trkpt>
			<trkpt lat="22.15870357" lon="113.57118141">
				<ele>78.66510009765625</ele>
				<time>2022-11-13T03:43:59Z</time>
				<extensions>
					<speed>0.38999998569488525</speed>
				</extensions>
			</trkpt>
			<trkpt lat="22.15870722" lon="113.57117924">
				<ele>78.95196533203125</ele>
				<time>2022-11-13T03:44:00Z</time>
				<extensions>
					<speed>0.44999998807907104</speed>
				</extensions>
			</trkpt>
			<trkpt lat="22.15871241" lon="113.57117813">
				<ele>79.50518798828125</ele>
				<time>2022-11-13T03:44:01Z</time>
				<extensions>
					<speed>0.5299999713897705</speed>
				</extensions>
			</trkpt>
			<trkpt lat="22.1587186" lon="113.57117944">
				<ele>79.95947265625</ele>
				<time>2022-11-13T03:44:02Z</time>
				<extensions>
					<speed>0.5799999833106995</speed>
				</extensions>
			</trkpt>
			<trkpt lat="22.15872465" lon="113.57118096">
				<ele>80.5118408203125</ele>
				<time>2022-11-13T03:44:03Z</time>
				<extensions>
					<speed>0.5400000214576721</speed>
				</extensions>
			</trkpt>
			<trkpt lat="22.15873047" lon="113.57118087">
				<ele>81.2474365234375</ele>
				<time>2022-11-13T03:44:04Z</time>
				<extensions>
					<speed>0.5</speed>
				</extensions>
			</trkpt>
			<trkpt lat="22.15873656" lon="113.57117906">
				<ele>81.9183349609375</ele>
				<time>2022-11-13T03:44:05Z</time>
				<extensions>
					<speed>0.5899999737739563</speed>
				</extensions>
			</trkpt>
			<trkpt lat="22.15874384" lon="113.57117562">
				<ele>81.96197509765625</ele>
				<time>2022-11-13T03:44:06Z</time>
				<extensions>
					<speed>0.7799999713897705</speed>
				</extensions>
			</trkpt>
			<trkpt lat="22.15875283" lon="113.57117126">
				<ele>82.00274658203125</ele>
				<time>2022-11-13T03:44:07Z</time>
				<extensions>
					<speed>0.9200000166893005</speed>
				</extensions>
			</trkpt>
			<trkpt lat="22.15876018" lon="113.57116675">
				<ele>82.32708740234375</ele>
				<time>2022-11-13T03:44:08Z</time>
				<extensions>
					<speed>0.6100000143051147</speed>
				</extensions>
			</trkpt>
			<trkpt lat="22.15876492" lon="113.5711626">
				<ele>82.8773193359375</ele>
				<time>2022-11-13T03:44:09Z</time>
				<extensions>
					<speed>0.4699999988079071</speed>
				</extensions>
			</trkpt>
			<trkpt lat="22.15876947" lon="113.57115874">
				<ele>82.83905029296875</ele>
				<time>2022-11-13T03:44:10Z</time>
				<extensions>
					<speed>0.550000011920929</speed>
				</extensions>
			</trkpt>
			<trkpt lat="22.15877412" lon="113.57115294">
				<ele>83.19122314453125</ele>
				<time>2022-11-13T03:44:11Z</time>
				<extensions>
					<speed>0.7300000190734863</speed>
				</extensions>
			</trkpt>
			<trkpt lat="22.15877831" lon="113.57114423">
				<ele>83.0689697265625</ele>
				<time>2022-11-13T03:44:12Z</time>
				<extensions>
					<speed>0.9100000262260437</speed>
				</extensions>
			</trkpt>
			<trkpt lat="22.15878172" lon="113.57113514">
				<ele>83.6129150390625</ele>
				<time>2022-11-13T03:44:13Z</time>
				<extensions>
					<speed>0.7900000214576721</speed>
				</extensions>
			</trkpt>
			<trkpt lat="22.15878296" lon="113.57112616">
				<ele>84.19354248046875</ele>
				<time>2022-11-13T03:44:14Z</time>
				<extensions>
					<speed>0.7200000286102295</speed>
				</extensions>
			</trkpt>
			<trkpt lat="22.15878407" lon="113.57111631">
				<ele>83.6578369140625</ele>
				<time>2022-11-13T03:44:15Z</time>
				<extensions>
					<speed>0.8799999952316284</speed>
				</extensions>
			</trkpt>
			<trkpt lat="22.15878543" lon="113.57110422">
				<ele>83.91680908203125</ele>
				<time>2022-11-13T03:44:16Z</time>
				<extensions>
					<speed>1.2400000095367432</speed>
				</extensions>
			</trkpt>
			<trkpt lat="22.15878837" lon="113.57108967">
				<ele>83.5745849609375</ele>
				<time>2022-11-13T03:44:17Z</time>
				<extensions>
					<speed>1.399999976158142</speed>
				</extensions>
			</trkpt>
			<trkpt lat="22.15879169" lon="113.57107404">
				<ele>83.15057373046875</ele>
				<time>2022-11-13T03:44:18Z</time>
				<extensions>
					<speed>1.409999966621399</speed>
				</extensions>
			</trkpt>
			<trkpt lat="22.15879415" lon="113.57105859">
				<ele>83.3697509765625</ele>
				<time>2022-11-13T03:44:19Z</time>
				<extensions>
					<speed>1.309999942779541</speed>
				</extensions>
			</trkpt>
			<trkpt lat="22.1587968" lon="113.57104217">
				<ele>83.49200439453125</ele>
				<time>2022-11-13T03:44:20Z</time>
				<extensions>
					<speed>1.600000023841858</speed>
				</extensions>
			</trkpt>
			<trkpt lat="22.15879877" lon="113.57102408">
				<ele>83.18603515625</ele>
				<time>2022-11-13T03:44:21Z</time>
				<extensions>
					<speed>1.6200000047683716</speed>
				</extensions>
			</trkpt>
			<trkpt lat="22.1588003" lon="113.57100947">
				<ele>83.71319580078125</ele>
				<time>2022-11-13T03:44:22Z</time>
				<extensions>
					<speed>1.1799999475479126</speed>
				</extensions>
			</trkpt>
			<trkpt lat="22.15880087" lon="113.57099652">
				<ele>84.1124267578125</ele>
				<time>2022-11-13T03:44:23Z</time>
				<extensions>
					<speed>1.2100000381469727</speed>
				</extensions>
			</trkpt>
			<trkpt lat="22.15880143" lon="113.5709822">
				<ele>83.845703125</ele>
				<time>2022-11-13T03:44:24Z</time>
				<extensions>
					<speed>1.3700000047683716</speed>
				</extensions>
			</trkpt>
			<trkpt lat="22.15880276" lon="113.57096699">
				<ele>84.626953125</ele>
				<time>2022-11-13T03:44:25Z</time>
				<extensions>
					<speed>1.4199999570846558</speed>
				</extensions>
			</trkpt>
			<trkpt lat="22.15880479" lon="113.57095231">
				<ele>84.523193359375</ele>
				<time>2022-11-13T03:44:26Z</time>
				<extensions>
					<speed>1.3899999856948853</speed>
				</extensions>
			</trkpt>
			<trkpt lat="22.15880719" lon="113.57093725">
				<ele>84.66754150390625</ele>
				<time>2022-11-13T03:44:27Z</time>
				<extensions>
					<speed>1.5199999809265137</speed>
				</extensions>
			</trkpt>
			<trkpt lat="22.15881042" lon="113.57092217">
				<ele>84.853759765625</ele>
				<time>2022-11-13T03:44:28Z</time>
				<extensions>
					<speed>1.4900000095367432</speed>
				</extensions>
			</trkpt>
			<trkpt lat="22.15881416" lon="113.57090904">
				<ele>84.4207763671875</ele>
				<time>2022-11-13T03:44:29Z</time>
				<extensions>
					<speed>1.3200000524520874</speed>
				</extensions>
			</trkpt>
			<trkpt lat="22.15881824" lon="113.57089621">
				<ele>84.80126953125</ele>
				<time>2022-11-13T03:44:30Z</time>
				<extensions>
					<speed>1.4199999570846558</speed>
				</extensions>
			</trkpt>
			<trkpt lat="22.1588215" lon="113.57088283">
				<ele>85.20001220703125</ele>
				<time>2022-11-13T03:44:31Z</time>
				<extensions>
					<speed>1.2899999618530273</speed>
				</extensions>
			</trkpt>
			<trkpt lat="22.15882471" lon="113.57087009">
				<ele>85.5806884765625</ele>
				<time>2022-11-13T03:44:32Z</time>
				<extensions>
					<speed>1.2000000476837158</speed>
				</extensions>
			</trkpt>
			<trkpt lat="22.158828" lon="113.5708578">
				<ele>86.0062255859375</ele>
				<time>2022-11-13T03:44:33Z</time>
				<extensions>
					<speed>1.1299999952316284</speed>
				</extensions>
			</trkpt>
			<trkpt lat="22.15883103" lon="113.57084493">
				<ele>86.41351318359375</ele>
				<time>2022-11-13T03:44:34Z</time>
				<extensions>
					<speed>1.340000033378601</speed>
				</extensions>
			</trkpt>
			<trkpt lat="22.15883424" lon="113.57082906">
				<ele>86.598876953125</ele>
				<time>2022-11-13T03:44:35Z</time>
				<extensions>
					<speed>1.6799999475479126</speed>
				</extensions>
			</trkpt>
			<trkpt lat="22.15883796" lon="113.57081287">
				<ele>86.8746337890625</ele>
				<time>2022-11-13T03:44:36Z</time>
				<extensions>
					<speed>1.4500000476837158</speed>
				</extensions>
			</trkpt>
			<trkpt lat="22.15884129" lon="113.5707979">
				<ele>87.159423828125</ele>
				<time>2022-11-13T03:44:37Z</time>
				<extensions>
					<speed>1.2999999523162842</speed>
				</extensions>
			</trkpt>
			<trkpt lat="22.15884359" lon="113.57078668">
				<ele>87.571533203125</ele>
				<time>2022-11-13T03:44:38Z</time>
				<extensions>
					<speed>0.8100000023841858</speed>
				</extensions>
			</trkpt>
			<trkpt lat="22.15884393" lon="113.5707755">
				<ele>87.68896484375</ele>
				<time>2022-11-13T03:44:39Z</time>
				<extensions>
					<speed>1.2100000381469727</speed>
				</extensions>
			</trkpt>
			<trkpt lat="22.15884301" lon="113.57076377">
				<ele>88.0135498046875</ele>
				<time>2022-11-13T03:44:40Z</time>
				<extensions>
					<speed>0.949999988079071</speed>
				</extensions>
			</trkpt>
			<trkpt lat="22.15884104" lon="113.57075276">
				<ele>87.5931396484375</ele>
				<time>2022-11-13T03:44:41Z</time>
				<extensions>
					<speed>1.0299999713897705</speed>
				</extensions>
			</trkpt>
			<trkpt lat="22.1588384" lon="113.57074153">
				<ele>87.80419921875</ele>
				<time>2022-11-13T03:44:42Z</time>
				<extensions>
					<speed>1.0700000524520874</speed>
				</extensions>
			</trkpt>
			<trkpt lat="22.15883694" lon="113.57072856">
				<ele>87.71746826171875</ele>
				<time>2022-11-13T03:44:43Z</time>
				<extensions>
					<speed>1.350000023841858</speed>
				</extensions>
			</trkpt>
			<trkpt lat="22.15883586" lon="113.57071649">
				<ele>87.58135986328125</ele>
				<time>2022-11-13T03:44:44Z</time>
				<extensions>
					<speed>1.0299999713897705</speed>
				</extensions>
			</trkpt>
			<trkpt lat="22.15883431" lon="113.5707038">
				<ele>87.4532470703125</ele>
				<time>2022-11-13T03:44:45Z</time>
				<extensions>
					<speed>1.4500000476837158</speed>
				</extensions>
			</trkpt>
			<trkpt lat="22.15882963" lon="113.57069195">
				<ele>88.405517578125</ele>
				<time>2022-11-13T03:44:46Z</time>
				<extensions>
					<speed>1.2100000381469727</speed>
				</extensions>
			</trkpt>
			<trkpt lat="22.15882467" lon="113.57067959">
				<ele>87.96429443359375</ele>
				<time>2022-11-13T03:44:47Z</time>
				<extensions>
					<speed>1.3600000143051147</speed>
				</extensions>
			</trkpt>
			<trkpt lat="22.15881924" lon="113.57066729">
				<ele>88.52813720703125</ele>
				<time>2022-11-13T03:44:48Z</time>
				<extensions>
					<speed>1.3600000143051147</speed>
				</extensions>
			</trkpt>
			<trkpt lat="22.15881588" lon="113.57065766">
				<ele>87.99835205078125</ele>
				<time>2022-11-13T03:44:49Z</time>
				<extensions>
					<speed>0.9399999976158142</speed>
				</extensions>
			</trkpt>
			<trkpt lat="22.15881288" lon="113.570649">
				<ele>87.4224853515625</ele>
				<time>2022-11-13T03:44:50Z</time>
				<extensions>
					<speed>0.9599999785423279</speed>
				</extensions>
			</trkpt>
			<trkpt lat="22.15880936" lon="113.57063825">
				<ele>86.56634521484375</ele>
				<time>2022-11-13T03:44:51Z</time>
				<extensions>
					<speed>1.350000023841858</speed>
				</extensions>
			</trkpt>
			<trkpt lat="22.15880582" lon="113.57062696">
				<ele>86.88360595703125</ele>
				<time>2022-11-13T03:44:52Z</time>
				<extensions>
					<speed>0.9900000095367432</speed>
				</extensions>
			</trkpt>
			<trkpt lat="22.15866132" lon="113.5698005">
				<ele>80.28765869140625</ele>
				<time>2022-11-13T03:45:46Z</time>
				<extensions>
					<speed>1.6100000143051147</speed>
				</extensions>
			</trkpt>
			<trkpt lat="22.15866022" lon="113.56979193">
				<ele>80.34136962890625</ele>
				<time>2022-11-13T03:45:47Z</time>
				<extensions>
					<speed>1.6100000143051147</speed>
				</extensions>
			</trkpt>
			<trkpt lat="22.15865526" lon="113.56977723">
				<ele>85.18310546875</ele>
				<time>2022-11-13T03:45:48Z</time>
				<extensions>
					<speed>1.309999942779541</speed>
				</extensions>
			</trkpt>
			<trkpt lat="22.15865283" lon="113.56976823">
				<ele>86.58880615234375</ele>
				<time>2022-11-13T03:45:49Z</time>
				<extensions>
					<speed>1.3700000047683716</speed>
				</extensions>
			</trkpt>
			<trkpt lat="22.15805514" lon="113.56892945">
				<ele>75.45294189453125</ele>
				<time>2022-11-13T03:47:02Z</time>
				<extensions>
					<speed>1.1200000047683716</speed>
				</extensions>
			</trkpt>
			<trkpt lat="22.15805276" lon="113.56892382">
				<ele>75.4591064453125</ele>
				<time>2022-11-13T03:47:03Z</time>
				<extensions>
					<speed>1.1200000047683716</speed>
				</extensions>
			</trkpt>
			<trkpt lat="22.15807134" lon="113.56891838">
				<ele>79.45538330078125</ele>
				<time>2022-11-13T03:47:04Z</time>
				<extensions>
					<speed>1.190000057220459</speed>
				</extensions>
			</trkpt>
			<trkpt lat="22.1580554" lon="113.56890242">
				<ele>79.7869873046875</ele>
				<time>2022-11-13T03:47:05Z</time>
				<extensions>
					<speed>1.309999942779541</speed>
				</extensions>
			</trkpt>
			<trkpt lat="22.15804715" lon="113.56888306">
				<ele>79.8211669921875</ele>
				<time>2022-11-13T03:47:06Z</time>
				<extensions>
					<speed>2.049999952316284</speed>
				</extensions>
			</trkpt>
			<trkpt lat="22.15804306" lon="113.56886898">
				<ele>79.93499755859375</ele>
				<time>2022-11-13T03:47:07Z</time>
				<extensions>
					<speed>1.3799999952316284</speed>
				</extensions>
			</trkpt>
			<trkpt lat="22.15803444" lon="113.5688628">
				<ele>80.6717529296875</ele>
				<time>2022-11-13T03:47:08Z</time>
				<extensions>
					<speed>1.4199999570846558</speed>
				</extensions>
			</trkpt>
			<trkpt lat="22.15802869" lon="113.56885137">
				<ele>80.88677978515625</ele>
				<time>2022-11-13T03:47:09Z</time>
				<extensions>
					<speed>1.2000000476837158</speed>
				</extensions>
			</trkpt>
			<trkpt lat="22.15801798" lon="113.56883409">
				<ele>80.7344970703125</ele>
				<time>2022-11-13T03:47:10Z</time>
				<extensions>
					<speed>1.559999942779541</speed>
				</extensions>
			</trkpt>
			<trkpt lat="22.1580018" lon="113.56883185">
				<ele>82.571044921875</ele>
				<time>2022-11-13T03:47:11Z</time>
				<extensions>
					<speed>1.5299999713897705</speed>
				</extensions>
			</trkpt>
			<trkpt lat="22.15799857" lon="113.56881976">
				<ele>82.7720947265625</ele>
				<time>2022-11-13T03:47:12Z</time>
				<extensions>
					<speed>1.3700000047683716</speed>
				</extensions>
			</trkpt>
			<trkpt lat="22.15799543" lon="113.56880481">
				<ele>82.18682861328125</ele>
				<time>2022-11-13T03:47:13Z</time>
				<extensions>
					<speed>1.850000023841858</speed>
				</extensions>
			</trkpt>
			<trkpt lat="22.15783505" lon="113.56846612">
				<ele>85.16925048828125</ele>
				<time>2022-11-13T03:47:37Z</time>
				<extensions>
					<speed>1.2999999523162842</speed>
				</extensions>
			</trkpt>
			<trkpt lat="22.15783389" lon="113.56846529">
				<ele>85.090087890625</ele>
				<time>2022-11-13T03:47:38Z</time>
				<extensions>
					<speed>1.2999999523162842</speed>
				</extensions>
			</trkpt>
			<trkpt lat="22.15782717" lon="113.56845582">
				<ele>84.7703857421875</ele>
				<time>2022-11-13T03:47:39Z</time>
				<extensions>
					<speed>1.3600000143051147</speed>
				</extensions>
			</trkpt>
			<trkpt lat="22.1578203" lon="113.56844508">
				<ele>83.48406982421875</ele>
				<time>2022-11-13T03:47:40Z</time>
				<extensions>
					<speed>1.350000023841858</speed>
				</extensions>
			</trkpt>
			<trkpt lat="22.15781324" lon="113.56843468">
				<ele>83.55328369140625</ele>
				<time>2022-11-13T03:47:41Z</time>
				<extensions>
					<speed>1.2999999523162842</speed>
				</extensions>
			</trkpt>
			<trkpt lat="22.15780655" lon="113.56842397">
				<ele>83.21392822265625</ele>
				<time>2022-11-13T03:47:42Z</time>
				<extensions>
					<speed>1.2599999904632568</speed>
				</extensions>
			</trkpt>
			<trkpt lat="22.15780255" lon="113.5684132">
				<ele>82.4451904296875</ele>
				<time>2022-11-13T03:47:43Z</time>
				<extensions>
					<speed>0.9800000190734863</speed>
				</extensions>
			</trkpt>
			<trkpt lat="22.1578001" lon="113.56840025">
				<ele>82.07177734375</ele>
				<time>2022-11-13T03:47:44Z</time>
				<extensions>
					<speed>1.659999966621399</speed>
				</extensions>
			</trkpt>
			<trkpt lat="22.19444529" lon="113.55297689">
				<ele>48.33843994140625</ele>
				<time>2022-11-13T04:16:29Z</time>
				<extensions>
					<speed>1.399999976158142</speed>
				</extensions>
			</trkpt>
			<trkpt lat="22.19471433" lon="113.55320225">
				<ele>82.6361083984375</ele>
				<time>2022-11-13T04:16:30Z</time>
				<extensions>
					<speed>0.8199999928474426</speed>
				</extensions>
			</trkpt>
			<trkpt lat="22.19443899" lon="113.55295169">
				<ele>53.42645263671875</ele>
				<time>2022-11-13T04:16:31Z</time>
				<extensions>
					<speed>0.7699999809265137</speed>
				</extensions>
			</trkpt>
			<trkpt lat="22.19445463" lon="113.55294932">
				<ele>49.7491455078125</ele>
				<time>2022-11-13T04:16:32Z</time>
				<extensions>
					<speed>0.6399999856948853</speed>
				</extensions>
			</trkpt>
			<trkpt lat="22.19443499" lon="113.55294698">
				<ele>46.32806396484375</ele>
				<time>2022-11-13T04:16:33Z</time>
				<extensions>
					<speed>0.7400000095367432</speed>
				</extensions>
			</trkpt>
			<trkpt lat="22.19442157" lon="113.55294635">
				<ele>44.04388427734375</ele>
				<time>2022-11-13T04:16:34Z</time>
				<extensions>
					<speed>1.340000033378601</speed>
				</extensions>
			</trkpt>
			<trkpt lat="22.19441874" lon="113.55295491">
				<ele>43.290283203125</ele>
				<time>2022-11-13T04:16:35Z</time>
				<extensions>
					<speed>0.6800000071525574</speed>
				</extensions>
			</trkpt>
			<trkpt lat="22.1944262" lon="113.55296166">
				<ele>44.64788818359375</ele>
				<time>2022-11-13T04:16:36Z</time>
				<extensions>
					<speed>1.25</speed>
				</extensions>
			</trkpt>
			<trkpt lat="22.19443754" lon="113.55296959">
				<ele>45.5523681640625</ele>
				<time>2022-11-13T04:16:37Z</time>
				<extensions>
					<speed>0.8700000047683716</speed>
				</extensions>
			</trkpt>
			<trkpt lat="22.19444925" lon="113.55297429">
				<ele>46.10986328125</ele>
				<time>2022-11-13T04:16:38Z</time>
				<extensions>
					<speed>0.5199999809265137</speed>
				</extensions>
			</trkpt>
			<trkpt lat="22.19445695" lon="113.55297855">
				<ele>47.70794677734375</ele>
				<time>2022-11-13T04:16:39Z</time>
				<extensions>
					<speed>0.7799999713897705</speed>
				</extensions>
			</trkpt>
			<trkpt lat="22.19446627" lon="113.55298712">
				<ele>49.1334228515625</ele>
				<time>2022-11-13T04:16:40Z</time>
				<extensions>
					<speed>1.190000057220459</speed>
				</extensions>
			</trkpt>
			<trkpt lat="22.19447379" lon="113.55299421">
				<ele>50.173583984375</ele>
				<time>2022-11-13T04:16:41Z</time>
				<extensions>
					<speed>0.8700000047683716</speed>
				</extensions>
			</trkpt>
			<trkpt lat="22.19448072" lon="113.55299652">
				<ele>50.0555419921875</ele>
				<time>2022-11-13T04:16:42Z</time>
				<extensions>
					<speed>0.6800000071525574</speed>
				</extensions>
			</trkpt>
			<trkpt lat="22.19449075" lon="113.55300329">
				<ele>50.70379638671875</ele>
				<time>2022-11-13T04:16:43Z</time>
				<extensions>
					<speed>1.6399999856948853</speed>
				</extensions>
			</trkpt>
			<trkpt lat="22.1945003" lon="113.55301028">
				<ele>51.8902587890625</ele>
				<time>2022-11-13T04:16:44Z</time>
				<extensions>
					<speed>0.7699999809265137</speed>
				</extensions>
			</trkpt>
			<trkpt lat="22.19451105" lon="113.55301121">
				<ele>50.75537109375</ele>
				<time>2022-11-13T04:16:45Z</time>
				<extensions>
					<speed>1.1399999856948853</speed>
				</extensions>
			</trkpt>
			<trkpt lat="22.19452127" lon="113.553011">
				<ele>50.38427734375</ele>
				<time>2022-11-13T04:16:46Z</time>
				<extensions>
					<speed>0.8999999761581421</speed>
				</extensions>
			</trkpt>
			<trkpt lat="22.19453056" lon="113.55300869">
				<ele>50.15728759765625</ele>
				<time>2022-11-13T04:16:47Z</time>
				<extensions>
					<speed>0.8600000143051147</speed>
				</extensions>
			</trkpt>
			<trkpt lat="22.194539" lon="113.55300541">
				<ele>50.01141357421875</ele>
				<time>2022-11-13T04:16:48Z</time>
				<extensions>
					<speed>0.7300000190734863</speed>
				</extensions>
			</trkpt>
			<trkpt lat="22.19454725" lon="113.55300388">
				<ele>51.02001953125</ele>
				<time>2022-11-13T04:16:49Z</time>
				<extensions>
					<speed>0.7300000190734863</speed>
				</extensions>
			</trkpt>
			<trkpt lat="22.19455854" lon="113.55300595">
				<ele>51.7276611328125</ele>
				<time>2022-11-13T04:16:50Z</time>
				<extensions>
					<speed>1.149999976158142</speed>
				</extensions>
			</trkpt>
			<trkpt lat="22.19457432" lon="113.55301224">
				<ele>50.341064453125</ele>
				<time>2022-11-13T04:16:51Z</time>
				<extensions>
					<speed>1.340000033378601</speed>
				</extensions>
			</trkpt>
			<trkpt lat="22.19458703" lon="113.5530119">
				<ele>50.06982421875</ele>
				<time>2022-11-13T04:16:52Z</time>
				<extensions>
					<speed>0.3700000047683716</speed>
				</extensions>
			</trkpt>
			<trkpt lat="22.1945961" lon="113.55300751">
				<ele>48.59326171875</ele>
				<time>2022-11-13T04:16:53Z</time>
				<extensions>
					<speed>0.0</speed>
				</extensions>
			</trkpt>
			<trkpt lat="22.19460467" lon="113.55300327">
				<ele>48.91082763671875</ele>
				<time>2022-11-13T04:16:54Z</time>
				<extensions>
					<speed>0.44999998807907104</speed>
				</extensions>
			</trkpt>
			<trkpt lat="22.19461461" lon="113.55300202">
				<ele>48.2408447265625</ele>
				<time>2022-11-13T04:16:55Z</time>
				<extensions>
					<speed>0.6800000071525574</speed>
				</extensions>
			</trkpt>
			<trkpt lat="22.1946252" lon="113.55300557">
				<ele>48.2266845703125</ele>
				<time>2022-11-13T04:16:56Z</time>
				<extensions>
					<speed>0.8899999856948853</speed>
				</extensions>
			</trkpt>
			<trkpt lat="22.19463448" lon="113.5530106">
				<ele>49.1004638671875</ele>
				<time>2022-11-13T04:16:57Z</time>
				<extensions>
					<speed>0.6100000143051147</speed>
				</extensions>
			</trkpt>
			<trkpt lat="22.19464161" lon="113.55301491">
				<ele>49.70526123046875</ele>
				<time>2022-11-13T04:16:58Z</time>
				<extensions>
					<speed>0.46000000834465027</speed>
				</extensions>
			</trkpt>
			<trkpt lat="22.19464702" lon="113.5530152">
				<ele>48.40380859375</ele>
				<time>2022-11-13T04:16:59Z</time>
				<extensions>
					<speed>0.0</speed>
				</extensions>
			</trkpt>
			<trkpt lat="22.1946466" lon="113.55301429">
				<ele>47.69195556640625</ele>
				<time>2022-11-13T04:17:00Z</time>
				<extensions>
					<speed>0.0</speed>
				</extensions>
			</trkpt>
			<trkpt lat="22.19464121" lon="113.55301104">
				<ele>45.85723876953125</ele>
				<time>2022-11-13T04:17:01Z</time>
				<extensions>
					<speed>0.7099999785423279</speed>
				</extensions>
			</trkpt>
			<trkpt lat="22.19464121" lon="113.55301104">
				<ele>45.85723876953125</ele>
				<time>2022-11-13T04:17:01Z</time>
				<extensions>
					<speed>0.7099999785423279</speed>
				</extensions>
			</trkpt>
			<trkpt lat="22.19463496" lon="113.55300272">
				<ele>43.25830078125</ele>
				<time>2022-11-13T04:17:02Z</time>
				<extensions>
					<speed>0.6000000238418579</speed>
				</extensions>
			</trkpt>
			<trkpt lat="22.19462762" lon="113.55299025">
				<ele>41.3077392578125</ele>
				<time>2022-11-13T04:17:03Z</time>
				<extensions>
					<speed>0.8199999928474426</speed>
				</extensions>
			</trkpt>
			<trkpt lat="22.19461821" lon="113.5529798">
				<ele>41.68865966796875</ele>
				<time>2022-11-13T04:17:04Z</time>
				<extensions>
					<speed>0.6200000047683716</speed>
				</extensions>
			</trkpt>
			<trkpt lat="22.19460624" lon="113.55296672">
				<ele>38.57025146484375</ele>
				<time>2022-11-13T04:17:05Z</time>
				<extensions>
					<speed>0.9800000190734863</speed>
				</extensions>
			</trkpt>
			<trkpt lat="22.19459406" lon="113.5529522">
				<ele>35.72900390625</ele>
				<time>2022-11-13T04:17:06Z</time>
				<extensions>
					<speed>0.7799999713897705</speed>
				</extensions>
			</trkpt>
			<trkpt lat="22.19458304" lon="113.55294014">
				<ele>34.2369384765625</ele>
				<time>2022-11-13T04:17:07Z</time>
				<extensions>
					<speed>0.5400000214576721</speed>
				</extensions>
			</trkpt>
			<trkpt lat="22.19457127" lon="113.55293028">
				<ele>34.2012939453125</ele>
				<time>2022-11-13T04:17:08Z</time>
				<extensions>
					<speed>0.6399999856948853</speed>
				</extensions>
			</trkpt>
			<trkpt lat="22.19455805" lon="113.55292268">
				<ele>34.28253173828125</ele>
				<time>2022-11-13T04:17:09Z</time>
				<extensions>
					<speed>0.44999998807907104</speed>
				</extensions>
			</trkpt>
			<trkpt lat="22.19454119" lon="113.55290913">
				<ele>33.072509765625</ele>
				<time>2022-11-13T04:17:10Z</time>
				<extensions>
					<speed>1.4299999475479126</speed>
				</extensions>
			</trkpt>
			<trkpt lat="22.19452722" lon="113.55289897">
				<ele>32.7938232421875</ele>
				<time>2022-11-13T04:17:11Z</time>
				<extensions>
					<speed>0.6399999856948853</speed>
				</extensions>
			</trkpt>
			<trkpt lat="22.19451326" lon="113.55288954">
				<ele>33.02679443359375</ele>
				<time>2022-11-13T04:17:12Z</time>
				<extensions>
					<speed>1.7200000286102295</speed>
				</extensions>
			</trkpt>
			<trkpt lat="22.19450024" lon="113.55288267">
				<ele>32.79827880859375</ele>
				<time>2022-11-13T04:17:13Z</time>
				<extensions>
					<speed>0.8899999856948853</speed>
				</extensions>
			</trkpt>
			<trkpt lat="22.19448984" lon="113.55287793">
				<ele>31.8551025390625</ele>
				<time>2022-11-13T04:17:14Z</time>
				<extensions>
					<speed>1.059999942779541</speed>
				</extensions>
			</trkpt>
			<trkpt lat="22.19447809" lon="113.55286781">
				<ele>30.16650390625</ele>
				<time>2022-11-13T04:17:15Z</time>
				<extensions>
					<speed>1.399999976158142</speed>
				</extensions>
			</trkpt>
			<trkpt lat="22.19446638" lon="113.55285664">
				<ele>28.75042724609375</ele>
				<time>2022-11-13T04:17:16Z</time>
				<extensions>
					<speed>0.8999999761581421</speed>
				</extensions>
			</trkpt>
			<trkpt lat="22.18643337" lon="113.55704111">
				<ele>12.6307373046875</ele>
				<time>2022-11-13T04:42:44Z</time>
				<extensions>
					<speed>0.0</speed>
				</extensions>
			</trkpt>
			<trkpt lat="22.18643369" lon="113.55704114">
				<ele>12.42388916015625</ele>
				<time>2022-11-13T04:42:45Z</time>
				<extensions>
					<speed>0.0</speed>
				</extensions>
			</trkpt>
			<trkpt lat="22.1864345" lon="113.55704123">
				<ele>11.905670166015625</ele>
				<time>2022-11-13T04:42:46Z</time>
				<extensions>
					<speed>0.0</speed>
				</extensions>
			</trkpt>
			<trkpt lat="22.18636907" lon="113.55698175">
				<ele>8.243377685546875</ele>
				<time>2022-11-13T04:42:47Z</time>
				<extensions>
					<speed>0.15000000596046448</speed>
				</extensions>
			</trkpt>
			<trkpt lat="22.1863767" lon="113.55699187">
				<ele>10.040679931640625</ele>
				<time>2022-11-13T04:42:48Z</time>
				<extensions>
					<speed>0.23999999463558197</speed>
				</extensions>
			</trkpt>
			<trkpt lat="22.18637896" lon="113.55700326">
				<ele>7.80419921875</ele>
				<time>2022-11-13T04:42:49Z</time>
				<extensions>
					<speed>0.0</speed>
				</extensions>
			</trkpt>
			<trkpt lat="22.18637612" lon="113.55701582">
				<ele>7.421600341796875</ele>
				<time>2022-11-13T04:42:50Z</time>
				<extensions>
					<speed>0.1599999964237213</speed>
				</extensions>
			</trkpt>
			<trkpt lat="22.18637863" lon="113.55702958">
				<ele>6.61419677734375</ele>
				<time>2022-11-13T04:42:51Z</time>
				<extensions>
					<speed>0.0</speed>
				</extensions>
			</trkpt>
			<trkpt lat="22.18638266" lon="113.55703467">
				<ele>6.657958984375</ele>
				<time>2022-11-13T04:42:52Z</time>
				<extensions>
					<speed>0.0</speed>
				</extensions>
			</trkpt>
			<trkpt lat="22.18638419" lon="113.55704002">
				<ele>5.5101318359375</ele>
				<time>2022-11-13T04:42:53Z</time>
				<extensions>
					<speed>0.0</speed>
				</extensions>
			</trkpt>
			<trkpt lat="22.18637837" lon="113.55704147">
				<ele>5.87847900390625</ele>
				<time>2022-11-13T04:42:54Z</time>
				<extensions>
					<speed>0.0</speed>
				</extensions>
			</trkpt>
			<trkpt lat="22.18637049" lon="113.55703644">
				<ele>6.137664794921875</ele>
				<time>2022-11-13T04:42:55Z</time>
				<extensions>
					<speed>0.0</speed>
				</extensions>
			</trkpt>
			<trkpt lat="22.18636059" lon="113.55703362">
				<ele>4.978546142578125</ele>
				<time>2022-11-13T04:42:56Z</time>
				<extensions>
					<speed>0.0</speed>
				</extensions>
			</trkpt>
			<trkpt lat="22.18636493" lon="113.55704127">
				<ele>3.72991943359375</ele>
				<time>2022-11-13T04:42:57Z</time>
				<extensions>
					<speed>0.0</speed>
				</extensions>
			</trkpt>
			<trkpt lat="22.1863706" lon="113.55704682">
				<ele>3.299407958984375</ele>
				<time>2022-11-13T04:42:58Z</time>
				<extensions>
					<speed>0.0</speed>
				</extensions>
			</trkpt>
			<trkpt lat="22.18637703" lon="113.55704944">
				<ele>3.218902587890625</ele>
				<time>2022-11-13T04:42:59Z</time>
				<extensions>
					<speed>0.0</speed>
				</extensions>
			</trkpt>
			<trkpt lat="22.1863795" lon="113.55705041">
				<ele>3.89459228515625</ele>
				<time>2022-11-13T04:43:00Z</time>
				<extensions>
					<speed>0.0</speed>
				</extensions>
			</trkpt>
			<trkpt lat="22.18637856" lon="113.55705527">
				<ele>3.8548583984375</ele>
				<time>2022-11-13T04:43:01Z</time>
				<extensions>
					<speed>0.3400000035762787</speed>
				</extensions>
			</trkpt>
			<trkpt lat="22.18638335" lon="113.55705585">
				<ele>2.10296630859375</ele>
				<time>2022-11-13T04:43:02Z</time>
				<extensions>
					<speed>0.0</speed>
				</extensions>
			</trkpt>
			<trkpt lat="22.18638992" lon="113.5570675">
				<ele>2.95294189453125</ele>
				<time>2022-11-13T04:43:03Z</time>
				<extensions>
					<speed>0.550000011920929</speed>
				</extensions>
			</trkpt>
			<trkpt lat="22.18641204" lon="113.55706565">
				<ele>4.89544677734375</ele>
				<time>2022-11-13T04:43:04Z</time>
				<extensions>
					<speed>1.3600000143051147</speed>
				</extensions>
			</trkpt>
			<trkpt lat="22.18641204" lon="113.55706565">
				<ele>4.89544677734375</ele>
				<time>2022-11-13T04:43:04Z</time>
				<extensions>
					<speed>1.3600000143051147</speed>
				</extensions>
			</trkpt>
			<trkpt lat="22.18642305" lon="113.55706778">
				<ele>5.0706787109375</ele>
				<time>2022-11-13T04:43:05Z</time>
				<extensions>
					<speed>0.8399999737739563</speed>
				</extensions>
			</trkpt>
			<trkpt lat="22.1864345" lon="113.55706784">
				<ele>5.869598388671875</ele>
				<time>2022-11-13T04:43:06Z</time>
				<extensions>
					<speed>1.1699999570846558</speed>
				</extensions>
			</trkpt>
			<trkpt lat="22.18644459" lon="113.55706788">
				<ele>6.20806884765625</ele>
				<time>2022-11-13T04:43:07Z</time>
				<extensions>
					<speed>0.800000011920929</speed>
				</extensions>
			</trkpt>
			<trkpt lat="22.1864567" lon="113.55706942">
				<ele>6.2021484375</ele>
				<time>2022-11-13T04:43:08Z</time>
				<extensions>
					<speed>1.6100000143051147</speed>
				</extensions>
			</trkpt>
			<trkpt lat="22.18647049" lon="113.55707173">
				<ele>7.373870849609375</ele>
				<time>2022-11-13T04:43:09Z</time>
				<extensions>
					<speed>1.159999966621399</speed>
				</extensions>
			</trkpt>
			<trkpt lat="22.1864838" lon="113.5570738">
				<ele>8.6187744140625</ele>
				<time>2022-11-13T04:43:10Z</time>
				<extensions>
					<speed>1.3700000047683716</speed>
				</extensions>
			</trkpt>
			<trkpt lat="22.1864977" lon="113.55707573">
				<ele>9.361114501953125</ele>
				<time>2022-11-13T04:43:11Z</time>
				<extensions>
					<speed>1.25</speed>
				</extensions>
			</trkpt>
			<trkpt lat="22.18651201" lon="113.55707604">
				<ele>9.85394287109375</ele>
				<time>2022-11-13T04:43:12Z</time>
				<extensions>
					<speed>1.2699999809265137</speed>
				</extensions>
			</trkpt>
			<trkpt lat="22.18652621" lon="113.55707615">
				<ele>10.620147705078125</ele>
				<time>2022-11-13T04:43:13Z</time>
				<extensions>
					<speed>1.2999999523162842</speed>
				</extensions>
			</trkpt>
			<trkpt lat="22.18654026" lon="113.5570769">
				<ele>10.4525146484375</ele>
				<time>2022-11-13T04:43:14Z</time>
				<extensions>
					<speed>1.1399999856948853</speed>
				</extensions>
			</trkpt>
			<trkpt lat="22.18655428" lon="113.55707811">
				<ele>10.4075927734375</ele>
				<time>2022-11-13T04:43:15Z</time>
				<extensions>
					<speed>1.309999942779541</speed>
				</extensions>
			</trkpt>
			<trkpt lat="22.18656849" lon="113.557078">
				<ele>10.47003173828125</ele>
				<time>2022-11-13T04:43:16Z</time>
				<extensions>
					<speed>1.190000057220459</speed>
				</extensions>
			</trkpt>
			<trkpt lat="22.18658133" lon="113.55707576">
				<ele>10.8922119140625</ele>
				<time>2022-11-13T04:43:17Z</time>
				<extensions>
					<speed>0.9800000190734863</speed>
				</extensions>
			</trkpt>
			<trkpt lat="22.18659414" lon="113.55707338">
				<ele>10.62689208984375</ele>
				<time>2022-11-13T04:43:18Z</time>
				<extensions>
					<speed>1.309999942779541</speed>
				</extensions>
			</trkpt>
			<trkpt lat="22.18660566" lon="113.55707096">
				<ele>10.94830322265625</ele>
				<time>2022-11-13T04:43:19Z</time>
				<extensions>
					<speed>1.0800000429153442</speed>
				</extensions>
			</trkpt>
			<trkpt lat="22.1866156" lon="113.55706902">
				<ele>11.4757080078125</ele>
				<time>2022-11-13T04:43:20Z</time>
				<extensions>
					<speed>0.9900000095367432</speed>
				</extensions>
			</trkpt>
			<trkpt lat="22.18662438" lon="113.55706607">
				<ele>11.28594970703125</ele>
				<time>2022-11-13T04:43:21Z</time>
				<extensions>
					<speed>0.800000011920929</speed>
				</extensions>
			</trkpt>
			<trkpt lat="22.1866332" lon="113.55706126">
				<ele>11.32879638671875</ele>
				<time>2022-11-13T04:43:22Z</time>
				<extensions>
					<speed>1.149999976158142</speed>
				</extensions>
			</trkpt>
			<trkpt lat="22.18663883" lon="113.55705776">
				<ele>10.172637939453125</ele>
				<time>2022-11-13T04:43:23Z</time>
				<extensions>
					<speed>0.6600000262260437</speed>
				</extensions>
			</trkpt>
			<trkpt lat="22.18663821" lon="113.55705594">
				<ele>9.44866943359375</ele>
				<time>2022-11-13T04:43:24Z</time>
				<extensions>
					<speed>0.4300000071525574</speed>
				</extensions>
			</trkpt>
			<trkpt lat="22.18663245" lon="113.55705995">
				<ele>8.047332763671875</ele>
				<time>2022-11-13T04:43:25Z</time>
				<extensions>
					<speed>0.0</speed>
				</extensions>
			</trkpt>
			<trkpt lat="22.18663164" lon="113.55706486">
				<ele>7.1953125</ele>
				<time>2022-11-13T04:43:26Z</time>
				<extensions>
					<speed>0.0</speed>
				</extensions>
			</trkpt>
			<trkpt lat="22.18663315" lon="113.55706686">
				<ele>7.1312255859375</ele>
				<time>2022-11-13T04:43:27Z</time>
				<extensions>
					<speed>0.0</speed>
				</extensions>
			</trkpt>
			<trkpt lat="22.1866336" lon="113.55706498">
				<ele>7.57464599609375</ele>
				<time>2022-11-13T04:43:28Z</time>
				<extensions>
					<speed>0.0</speed>
				</extensions>
			</trkpt>
			<trkpt lat="22.18663469" lon="113.55706276">
				<ele>7.459991455078125</ele>
				<time>2022-11-13T04:43:29Z</time>
				<extensions>
					<speed>0.0</speed>
				</extensions>
			</trkpt>
			<trkpt lat="22.18663464" lon="113.5570613">
				<ele>7.21319580078125</ele>
				<time>2022-11-13T04:43:30Z</time>
				<extensions>
					<speed>0.0</speed>
				</extensions>
			</trkpt>
			<trkpt lat="22.18663472" lon="113.55706026">
				<ele>6.950347900390625</ele>
				<time>2022-11-13T04:43:31Z</time>
				<extensions>
					<speed>0.0</speed>
				</extensions>
			</trkpt>
			<trkpt lat="22.19925379" lon="113.5475611">
				<ele>19.29095458984375</ele>
				<time>2022-11-13T04:54:09Z</time>
				<extensions>
					<speed>1.2599999904632568</speed>
				</extensions>
			</trkpt>
			<trkpt lat="22.19925012" lon="113.54755798">
				<ele>19.14739990234375</ele>
				<time>2022-11-13T04:54:10Z</time>
				<extensions>
					<speed>1.2599999904632568</speed>
				</extensions>
			</trkpt>
			<trkpt lat="22.19924117" lon="113.5475504">
				<ele>18.7978515625</ele>
				<time>2022-11-13T04:54:11Z</time>
				<extensions>
					<speed>1.2599999904632568</speed>
				</extensions>
			</trkpt>
			<trkpt lat="22.1992257" lon="113.54752426">
				<ele>24.8018798828125</ele>
				<time>2022-11-13T04:54:12Z</time>
				<extensions>
					<speed>0.0</speed>
				</extensions>
			</trkpt>
			<trkpt lat="22.19922447" lon="113.54752475">
				<ele>22.2266845703125</ele>
				<time>2022-11-13T04:54:13Z</time>
				<extensions>
					<speed>0.7400000095367432</speed>
				</extensions>
			</trkpt>
			<trkpt lat="22.19923548" lon="113.54751734">
				<ele>22.326416015625</ele>
				<time>2022-11-13T04:54:14Z</time>
				<extensions>
					<speed>0.6299999952316284</speed>
				</extensions>
			</trkpt>
			<trkpt lat="22.19924551" lon="113.54750229">
				<ele>22.884765625</ele>
				<time>2022-11-13T04:54:15Z</time>
				<extensions>
					<speed>0.7799999713897705</speed>
				</extensions>
			</trkpt>
			<trkpt lat="22.19924316" lon="113.54750922">
				<ele>22.05133056640625</ele>
				<time>2022-11-13T04:54:16Z</time>
				<extensions>
					<speed>0.27000001072883606</speed>
				</extensions>
			</trkpt>
			<trkpt lat="22.19923397" lon="113.54751103">
				<ele>21.99578857421875</ele>
				<time>2022-11-13T04:54:17Z</time>
				<extensions>
					<speed>0.0</speed>
				</extensions>
			</trkpt>
			<trkpt lat="22.19923026" lon="113.547513">
				<ele>21.44537353515625</ele>
				<time>2022-11-13T04:54:18Z</time>
				<extensions>
					<speed>0.0</speed>
				</extensions>
			</trkpt>
			<trkpt lat="22.19922659" lon="113.54751511">
				<ele>21.05230712890625</ele>
				<time>2022-11-13T04:54:19Z</time>
				<extensions>
					<speed>0.0</speed>
				</extensions>
			</trkpt>
			<trkpt lat="22.19922143" lon="113.54751209">
				<ele>21.01812744140625</ele>
				<time>2022-11-13T04:54:20Z</time>
				<extensions>
					<speed>0.4099999964237213</speed>
				</extensions>
			</trkpt>
			<trkpt lat="22.19921222" lon="113.54751588">
				<ele>20.98846435546875</ele>
				<time>2022-11-13T04:54:21Z</time>
				<extensions>
					<speed>0.2199999988079071</speed>
				</extensions>
			</trkpt>
			<trkpt lat="22.19921397" lon="113.54751661">
				<ele>20.0771484375</ele>
				<time>2022-11-13T04:54:22Z</time>
				<extensions>
					<speed>0.0</speed>
				</extensions>
			</trkpt>
			<trkpt lat="22.19921599" lon="113.54752266">
				<ele>19.573486328125</ele>
				<time>2022-11-13T04:54:23Z</time>
				<extensions>
					<speed>0.0</speed>
				</extensions>
			</trkpt>
			<trkpt lat="22.19921093" lon="113.54752683">
				<ele>19.12225341796875</ele>
				<time>2022-11-13T04:54:24Z</time>
				<extensions>
					<speed>0.18000000715255737</speed>
				</extensions>
			</trkpt>
			<trkpt lat="22.19920637" lon="113.54753324">
				<ele>16.519287109375</ele>
				<time>2022-11-13T04:54:25Z</time>
				<extensions>
					<speed>0.0</speed>
				</extensions>
			</trkpt>
			<trkpt lat="22.19920134" lon="113.54754117">
				<ele>15.94464111328125</ele>
				<time>2022-11-13T04:54:26Z</time>
				<extensions>
					<speed>0.36000001430511475</speed>
				</extensions>
			</trkpt>
			<trkpt lat="22.19919876" lon="113.54754303">
				<ele>14.920654296875</ele>
				<time>2022-11-13T04:54:27Z</time>
				<extensions>
					<speed>0.3100000023841858</speed>
				</extensions>
			</trkpt>
			<trkpt lat="22.19919964" lon="113.54754643">
				<ele>15.0146484375</ele>
				<time>2022-11-13T04:54:28Z</time>
				<extensions>
					<speed>0.38999998569488525</speed>
				</extensions>
			</trkpt>
			<trkpt lat="22.19920031" lon="113.54754919">
				<ele>14.4951171875</ele>
				<time>2022-11-13T04:54:29Z</time>
				<extensions>
					<speed>0.33000001311302185</speed>
				</extensions>
			</trkpt>
			<trkpt lat="22.19919102" lon="113.54754903">
				<ele>13.931640625</ele>
				<time>2022-11-13T04:54:56Z</time>
				<extensions>
					<speed>0.0</speed>
				</extensions>
			</trkpt>
			<trkpt lat="22.19919147" lon="113.5475485">
				<ele>13.89691162109375</ele>
				<time>2022-11-13T04:54:57Z</time>
				<extensions>
					<speed>0.0</speed>
				</extensions>
			</trkpt>
			<trkpt lat="22.19919213" lon="113.54754791">
				<ele>13.88909912109375</ele>
				<time>2022-11-13T04:54:58Z</time>
				<extensions>
					<speed>0.0</speed>
				</extensions>
			</trkpt>
			<trkpt lat="22.19919293" lon="113.54754706">
				<ele>13.92999267578125</ele>
				<time>2022-11-13T04:54:59Z</time>
				<extensions>
					<speed>0.0</speed>
				</extensions>
			</trkpt>
			<trkpt lat="22.19919374" lon="113.54754634">
				<ele>13.9754638671875</ele>
				<time>2022-11-13T04:55:00Z</time>
				<extensions>
					<speed>0.0</speed>
				</extensions>
			</trkpt>
			<trkpt lat="22.199194" lon="113.54754586">
				<ele>13.88397216796875</ele>
				<time>2022-11-13T04:55:01Z</time>
				<extensions>
					<speed>0.0</speed>
				</extensions>
			</trkpt>
			<trkpt lat="22.19919467" lon="113.54754506">
				<ele>13.79644775390625</ele>
				<time>2022-11-13T04:55:02Z</time>
				<extensions>
					<speed>0.0</speed>
				</extensions>
			</trkpt>
			<trkpt lat="22.199198" lon="113.5475425">
				<ele>13.644775390625</ele>
				<time>2022-11-13T04:55:03Z</time>
				<extensions>
					<speed>0.0</speed>
				</extensions>
			</trkpt>
			<trkpt lat="22.19920081" lon="113.54754046">
				<ele>13.66583251953125</ele>
				<time>2022-11-13T04:55:04Z</time>
				<extensions>
					<speed>0.0</speed>
				</extensions>
			</trkpt>
			<trkpt lat="22.19920195" lon="113.54753923">
				<ele>13.66668701171875</ele>
				<time>2022-11-13T04:55:05Z</time>
				<extensions>
					<speed>0.0</speed>
				</extensions>
			</trkpt>
			<trkpt lat="22.19920189" lon="113.54753821">
				<ele>13.59503173828125</ele>
				<time>2022-11-13T04:55:06Z</time>
				<extensions>
					<speed>0.0</speed>
				</extensions>
			</trkpt>
			<trkpt lat="22.19920137" lon="113.54753643">
				<ele>13.32928466796875</ele>
				<time>2022-11-13T04:55:07Z</time>
				<extensions>
					<speed>0.0</speed>
				</extensions>
			</trkpt>
			<trkpt lat="22.19919839" lon="113.54753505">
				<ele>12.9593505859375</ele>
				<time>2022-11-13T04:55:08Z</time>
				<extensions>
					<speed>0.0</speed>
				</extensions>
			</trkpt>
			<trkpt lat="22.19919628" lon="113.54753399">
				<ele>12.8775634765625</ele>
				<time>2022-11-13T04:55:09Z</time>
				<extensions>
					<speed>0.0</speed>
				</extensions>
			</trkpt>
			<trkpt lat="22.1991943" lon="113.54753316">
				<ele>12.74273681640625</ele>
				<time>2022-11-13T04:55:10Z</time>
				<extensions>
					<speed>0.0</speed>
				</extensions>
			</trkpt>
			<trkpt lat="22.19919326" lon="113.54753277">
				<ele>12.73907470703125</ele>
				<time>2022-11-13T04:55:11Z</time>
				<extensions>
					<speed>0.0</speed>
				</extensions>
			</trkpt>
			<trkpt lat="22.19919264" lon="113.54753257">
				<ele>12.7294921875</ele>
				<time>2022-11-13T04:55:12Z</time>
				<extensions>
					<speed>0.0</speed>
				</extensions>
			</trkpt>
			<trkpt lat="22.19919233" lon="113.54753247">
				<ele>12.7294921875</ele>
				<time>2022-11-13T04:55:13Z</time>
				<extensions>
					<speed>0.0</speed>
				</extensions>
			</trkpt>
			<trkpt lat="22.19919217" lon="113.54753242">
				<ele>12.7294921875</ele>
				<time>2022-11-13T04:55:14Z</time>
				<extensions>
					<speed>0.0</speed>
				</extensions>
			</trkpt>
			<trkpt lat="22.19919209" lon="113.5475324">
				<ele>12.7294921875</ele>
				<time>2022-11-13T04:55:15Z</time>
				<extensions>
					<speed>0.0</speed>
				</extensions>
			</trkpt>
			<trkpt lat="22.19919228" lon="113.54753219">
				<ele>12.73028564453125</ele>
				<time>2022-11-13T04:55:16Z</time>
				<extensions>
					<speed>0.0</speed>
				</extensions>
			</trkpt>
			<trkpt lat="22.19919443" lon="113.54753108">
				<ele>12.87896728515625</ele>
				<time>2022-11-13T04:55:17Z</time>
				<extensions>
					<speed>0.0</speed>
				</extensions>
			</trkpt>
			<trkpt lat="22.19919554" lon="113.54753075">
				<ele>12.82147216796875</ele>
				<time>2022-11-13T04:55:18Z</time>
				<extensions>
					<speed>0.0</speed>
				</extensions>
			</trkpt>
			<trkpt lat="22.19919627" lon="113.54753047">
				<ele>12.81695556640625</ele>
				<time>2022-11-13T04:55:19Z</time>
				<extensions>
					<speed>0.0</speed>
				</extensions>
			</trkpt>
			<trkpt lat="22.19919668" lon="113.54753">
				<ele>12.74114990234375</ele>
				<time>2022-11-13T04:55:20Z</time>
				<extensions>
					<speed>0.0</speed>
				</extensions>
			</trkpt>
			<trkpt lat="22.19919723" lon="113.54753021">
				<ele>12.70281982421875</ele>
				<time>2022-11-13T04:55:21Z</time>
				<extensions>
					<speed>0.0</speed>
				</extensions>
			</trkpt>
			<trkpt lat="22.1991977" lon="113.54753019">
				<ele>12.70452880859375</ele>
				<time>2022-11-13T04:55:22Z</time>
				<extensions>
					<speed>0.0</speed>
				</extensions>
			</trkpt>
			<trkpt lat="22.19919793" lon="113.54753018">
				<ele>12.70452880859375</ele>
				<time>2022-11-13T04:55:23Z</time>
				<extensions>
					<speed>0.0</speed>
				</extensions>
			</trkpt>
			<trkpt lat="22.19919788" lon="113.54753046">
				<ele>12.7265625</ele>
				<time>2022-11-13T04:55:24Z</time>
				<extensions>
					<speed>0.0</speed>
				</extensions>
			</trkpt>
			<trkpt lat="22.19919766" lon="113.54753008">
				<ele>12.73333740234375</ele>
				<time>2022-11-13T04:55:25Z</time>
				<extensions>
					<speed>0.0</speed>
				</extensions>
			</trkpt>
			<trkpt lat="22.19919798" lon="113.5475298">
				<ele>12.666748046875</ele>
				<time>2022-11-13T04:55:26Z</time>
				<extensions>
					<speed>0.0</speed>
				</extensions>
			</trkpt>
			<trkpt lat="22.19919807" lon="113.54752983">
				<ele>12.59625244140625</ele>
				<time>2022-11-13T04:55:27Z</time>
				<extensions>
					<speed>0.0</speed>
				</extensions>
			</trkpt>
			<trkpt lat="22.1991978" lon="113.54753034">
				<ele>12.5491943359375</ele>
				<time>2022-11-13T04:55:28Z</time>
				<extensions>
					<speed>0.0</speed>
				</extensions>
			</trkpt>
			<trkpt lat="22.19919765" lon="113.54753051">
				<ele>12.51904296875</ele>
				<time>2022-11-13T04:55:29Z</time>
				<extensions>
					<speed>0.0</speed>
				</extensions>
			</trkpt>
			<trkpt lat="22.19919795" lon="113.54753175">
				<ele>12.202880859375</ele>
				<time>2022-11-13T04:55:30Z</time>
				<extensions>
					<speed>0.0</speed>
				</extensions>
			</trkpt>
			<trkpt lat="22.19919842" lon="113.5475302">
				<ele>12.198486328125</ele>
				<time>2022-11-13T04:55:31Z</time>
				<extensions>
					<speed>0.0</speed>
				</extensions>
			</trkpt>
			<trkpt lat="22.19919937" lon="113.54752861">
				<ele>11.930267333984375</ele>
				<time>2022-11-13T04:55:32Z</time>
				<extensions>
					<speed>0.0</speed>
				</extensions>
			</trkpt>
			<trkpt lat="22.19920002" lon="113.5475297">
				<ele>12.01788330078125</ele>
				<time>2022-11-13T04:55:33Z</time>
				<extensions>
					<speed>0.0</speed>
				</extensions>
			</trkpt>
			<trkpt lat="22.19919998" lon="113.54753176">
				<ele>12.0526123046875</ele>
				<time>2022-11-13T04:55:34Z</time>
				<extensions>
					<speed>0.0</speed>
				</extensions>
			</trkpt>
			<trkpt lat="22.19920002" lon="113.54753287">
				<ele>12.0242919921875</ele>
				<time>2022-11-13T04:55:35Z</time>
				<extensions>
					<speed>0.0</speed>
				</extensions>
			</trkpt>
			<trkpt lat="22.19919975" lon="113.54753352">
				<ele>12.0677490234375</ele>
				<time>2022-11-13T04:55:36Z</time>
				<extensions>
					<speed>0.0</speed>
				</extensions>
			</trkpt>
			<trkpt lat="22.19919997" lon="113.54753305">
				<ele>12.030029296875</ele>
				<time>2022-11-13T04:55:37Z</time>
				<extensions>
					<speed>0.0</speed>
				</extensions>
			</trkpt>
			<trkpt lat="22.19919997" lon="113.54753305">
				<ele>12.030029296875</ele>
				<time>2022-11-13T04:55:37Z</time>
				<extensions>
					<speed>0.0</speed>
				</extensions>
			</trkpt>
			<trkpt lat="22.19920042" lon="113.54753381">
				<ele>11.963409423828125</ele>
				<time>2022-11-13T04:55:38Z</time>
				<extensions>
					<speed>0.0</speed>
				</extensions>
			</trkpt>
			<trkpt lat="22.19920086" lon="113.54753376">
				<ele>11.905364990234375</ele>
				<time>2022-11-13T04:55:39Z</time>
				<extensions>
					<speed>0.0</speed>
				</extensions>
			</trkpt>
			<trkpt lat="22.19920158" lon="113.547533">
				<ele>11.99603271484375</ele>
				<time>2022-11-13T04:55:40Z</time>
				<extensions>
					<speed>0.0</speed>
				</extensions>
			</trkpt>
			<trkpt lat="22.19920078" lon="113.54753031">
				<ele>11.948150634765625</ele>
				<time>2022-11-13T04:55:41Z</time>
				<extensions>
					<speed>0.0</speed>
				</extensions>
			</trkpt>
			<trkpt lat="22.19920053" lon="113.54752681">
				<ele>12.6783447265625</ele>
				<time>2022-11-13T04:55:42Z</time>
				<extensions>
					<speed>0.0</speed>
				</extensions>
			</trkpt>
			<trkpt lat="22.19920112" lon="113.54751891">
				<ele>12.69598388671875</ele>
				<time>2022-11-13T04:55:43Z</time>
				<extensions>
					<speed>0.0</speed>
				</extensions>
			</trkpt>
			<trkpt lat="22.19920332" lon="113.54751023">
				<ele>12.4981689453125</ele>
				<time>2022-11-13T04:55:44Z</time>
				<extensions>
					<speed>0.0</speed>
				</extensions>
			</trkpt>
			<trkpt lat="22.19920602" lon="113.54750396">
				<ele>12.55908203125</ele>
				<time>2022-11-13T04:55:45Z</time>
				<extensions>
					<speed>0.0</speed>
				</extensions>
			</trkpt>
			<trkpt lat="22.19920704" lon="113.54749866">
				<ele>12.4041748046875</ele>
				<time>2022-11-13T04:55:46Z</time>
				<extensions>
					<speed>0.0</speed>
				</extensions>
			</trkpt>
			<trkpt lat="22.19920849" lon="113.54749447">
				<ele>12.35931396484375</ele>
				<time>2022-11-13T04:55:47Z</time>
				<extensions>
					<speed>0.0</speed>
				</extensions>
			</trkpt>
			<trkpt lat="22.19921202" lon="113.54749217">
				<ele>12.35595703125</ele>
				<time>2022-11-13T04:55:48Z</time>
				<extensions>
					<speed>0.0</speed>
				</extensions>
			</trkpt>
			<trkpt lat="22.19921535" lon="113.54749093">
				<ele>12.37628173828125</ele>
				<time>2022-11-13T04:55:49Z</time>
				<extensions>
					<speed>0.0</speed>
				</extensions>
			</trkpt>
			<trkpt lat="22.19921635" lon="113.54748804">
				<ele>12.47979736328125</ele>
				<time>2022-11-13T04:55:50Z</time>
				<extensions>
					<speed>0.0</speed>
				</extensions>
			</trkpt>
			<trkpt lat="22.19921742" lon="113.54748708">
				<ele>12.42608642578125</ele>
				<time>2022-11-13T04:55:51Z</time>
				<extensions>
					<speed>0.0</speed>
				</extensions>
			</trkpt>
			<trkpt lat="22.19921879" lon="113.54748686">
				<ele>12.43328857421875</ele>
				<time>2022-11-13T04:55:52Z</time>
				<extensions>
					<speed>0.0</speed>
				</extensions>
			</trkpt>
			<trkpt lat="22.19921946" lon="113.54748675">
				<ele>12.43243408203125</ele>
				<time>2022-11-13T04:55:53Z</time>
				<extensions>
					<speed>0.0</speed>
				</extensions>
			</trkpt>
			<trkpt lat="22.19921989" lon="113.54748725">
				<ele>12.41375732421875</ele>
				<time>2022-11-13T04:55:54Z</time>
				<extensions>
					<speed>0.0</speed>
				</extensions>
			</trkpt>
			<trkpt lat="22.19922043" lon="113.54748706">
				<ele>12.46331787109375</ele>
				<time>2022-11-13T04:55:55Z</time>
				<extensions>
					<speed>0.0</speed>
				</extensions>
			</trkpt>
			<trkpt lat="22.19922073" lon="113.54748698">
				<ele>12.491455078125</ele>
				<time>2022-11-13T04:55:56Z</time>
				<extensions>
					<speed>0.0</speed>
				</extensions>
			</trkpt>
			<trkpt lat="22.19922081" lon="113.54748716">
				<ele>12.55145263671875</ele>
				<time>2022-11-13T04:55:57Z</time>
				<extensions>
					<speed>0.0</speed>
				</extensions>
			</trkpt>
			<trkpt lat="22.19922086" lon="113.54748717">
				<ele>12.568603515625</ele>
				<time>2022-11-13T04:55:58Z</time>
				<extensions>
					<speed>0.0</speed>
				</extensions>
			</trkpt>
			<trkpt lat="22.1998337" lon="113.54752078">
				<ele>13.81219482421875</ele>
				<time>2022-11-13T04:57:52Z</time>
				<extensions>
					<speed>1.0399999618530273</speed>
				</extensions>
			</trkpt>
			<trkpt lat="22.19983784" lon="113.54751735">
				<ele>13.6053466796875</ele>
				<time>2022-11-13T04:57:53Z</time>
				<extensions>
					<speed>1.0399999618530273</speed>
				</extensions>
			</trkpt>
			<trkpt lat="22.19984267" lon="113.54753609">
				<ele>15.51055908203125</ele>
				<time>2022-11-13T04:57:54Z</time>
				<extensions>
					<speed>0.7900000214576721</speed>
				</extensions>
			</trkpt>
			<trkpt lat="22.19983881" lon="113.54754183">
				<ele>17.52130126953125</ele>
				<time>2022-11-13T04:57:55Z</time>
				<extensions>
					<speed>0.47999998927116394</speed>
				</extensions>
			</trkpt>
			<trkpt lat="22.19983204" lon="113.54753033">
				<ele>15.83935546875</ele>
				<time>2022-11-13T04:57:56Z</time>
				<extensions>
					<speed>1.649999976158142</speed>
				</extensions>
			</trkpt>
			<trkpt lat="22.19983959" lon="113.54753045">
				<ele>14.158447265625</ele>
				<time>2022-11-13T04:57:57Z</time>
				<extensions>
					<speed>1.2300000190734863</speed>
				</extensions>
			</trkpt>
			<trkpt lat="22.19984485" lon="113.54752062">
				<ele>13.02386474609375</ele>
				<time>2022-11-13T04:57:58Z</time>
				<extensions>
					<speed>1.2100000381469727</speed>
				</extensions>
			</trkpt>
			<trkpt lat="22.19984842" lon="113.54750765">
				<ele>13.86077880859375</ele>
				<time>2022-11-13T04:57:59Z</time>
				<extensions>
					<speed>1.149999976158142</speed>
				</extensions>
			</trkpt>
			<trkpt lat="22.19985794" lon="113.54749097">
				<ele>14.061279296875</ele>
				<time>2022-11-13T04:58:00Z</time>
				<extensions>
					<speed>1.4299999475479126</speed>
				</extensions>
			</trkpt>
			<trkpt lat="22.19987148" lon="113.54747133">
				<ele>13.958740234375</ele>
				<time>2022-11-13T04:58:01Z</time>
				<extensions>
					<speed>1.8600000143051147</speed>
				</extensions>
			</trkpt>
			<trkpt lat="22.19988078" lon="113.54746093">
				<ele>13.95098876953125</ele>
				<time>2022-11-13T04:58:02Z</time>
				<extensions>
					<speed>1.2799999713897705</speed>
				</extensions>
			</trkpt>
			<trkpt lat="22.19988965" lon="113.54745352">
				<ele>13.65313720703125</ele>
				<time>2022-11-13T04:58:03Z</time>
				<extensions>
					<speed>1.149999976158142</speed>
				</extensions>
			</trkpt>
			<trkpt lat="22.19989904" lon="113.54744583">
				<ele>11.983154296875</ele>
				<time>2022-11-13T04:58:04Z</time>
				<extensions>
					<speed>1.3300000429153442</speed>
				</extensions>
			</trkpt>
			<trkpt lat="22.19990844" lon="113.54743763">
				<ele>12.2127685546875</ele>
				<time>2022-11-13T04:58:05Z</time>
				<extensions>
					<speed>1.149999976158142</speed>
				</extensions>
			</trkpt>
			<trkpt lat="22.19991731" lon="113.54742857">
				<ele>11.67474365234375</ele>
				<time>2022-11-13T04:58:06Z</time>
				<extensions>
					<speed>1.2100000381469727</speed>
				</extensions>
			</trkpt>
			<trkpt lat="22.19992568" lon="113.54741964">
				<ele>12.70489501953125</ele>
				<time>2022-11-13T04:58:07Z</time>
				<extensions>
					<speed>1.2300000190734863</speed>
				</extensions>
			</trkpt>
			<trkpt lat="22.19993465" lon="113.5474103">
				<ele>12.97320556640625</ele>
				<time>2022-11-13T04:58:08Z</time>
				<extensions>
					<speed>1.340000033378601</speed>
				</extensions>
			</trkpt>
			<trkpt lat="22.19994194" lon="113.54740156">
				<ele>13.3045654296875</ele>
				<time>2022-11-13T04:58:09Z</time>
				<extensions>
					<speed>0.9300000071525574</speed>
				</extensions>
			</trkpt>
			<trkpt lat="22.19994758" lon="113.54739381">
				<ele>12.916259765625</ele>
				<time>2022-11-13T04:58:10Z</time>
				<extensions>
					<speed>0.8299999833106995</speed>
				</extensions>
			</trkpt>
			<trkpt lat="22.19995386" lon="113.54738542">
				<ele>12.28814697265625</ele>
				<time>2022-11-13T04:58:11Z</time>
				<extensions>
					<speed>1.0499999523162842</speed>
				</extensions>
			</trkpt>
			<trkpt lat="22.19996089" lon="113.54737757">
				<ele>12.65704345703125</ele>
				<time>2022-11-13T04:58:12Z</time>
				<extensions>
					<speed>1.0299999713897705</speed>
				</extensions>
			</trkpt>
			<trkpt lat="22.19996674" lon="113.54736997">
				<ele>13.2611083984375</ele>
				<time>2022-11-13T04:58:13Z</time>
				<extensions>
					<speed>0.8799999952316284</speed>
				</extensions>
			</trkpt>
			<trkpt lat="22.19997268" lon="113.54736134">
				<ele>13.96295166015625</ele>
				<time>2022-11-13T04:58:14Z</time>
				<extensions>
					<speed>1.090000033378601</speed>
				</extensions>
			</trkpt>
			<trkpt lat="22.19997878" lon="113.54735205">
				<ele>13.5870361328125</ele>
				<time>2022-11-13T04:58:15Z</time>
				<extensions>
					<speed>0.9599999785423279</speed>
				</extensions>
			</trkpt>
			<trkpt lat="22.19998309" lon="113.54734592">
				<ele>13.98358154296875</ele>
				<time>2022-11-13T04:58:16Z</time>
				<extensions>
					<speed>0.5</speed>
				</extensions>
			</trkpt>
			<trkpt lat="22.19998753" lon="113.54734281">
				<ele>14.62127685546875</ele>
				<time>2022-11-13T04:58:17Z</time>
				<extensions>
					<speed>0.6399999856948853</speed>
				</extensions>
			</trkpt>
			<trkpt lat="22.19999373" lon="113.5473393">
				<ele>15.15167236328125</ele>
				<time>2022-11-13T04:58:18Z</time>
				<extensions>
					<speed>0.9399999976158142</speed>
				</extensions>
			</trkpt>
			<trkpt lat="22.20000183" lon="113.5473336">
				<ele>14.7728271484375</ele>
				<time>2022-11-13T04:58:19Z</time>
				<extensions>
					<speed>1.0800000429153442</speed>
				</extensions>
			</trkpt>
			<trkpt lat="22.20000918" lon="113.54732885">
				<ele>15.1298828125</ele>
				<time>2022-11-13T04:58:20Z</time>
				<extensions>
					<speed>0.7900000214576721</speed>
				</extensions>
			</trkpt>
			<trkpt lat="22.20001529" lon="113.54732722">
				<ele>16.08502197265625</ele>
				<time>2022-11-13T04:58:21Z</time>
				<extensions>
					<speed>0.5799999833106995</speed>
				</extensions>
			</trkpt>
			<trkpt lat="22.20002409" lon="113.54732846">
				<ele>16.62335205078125</ele>
				<time>2022-11-13T04:58:22Z</time>
				<extensions>
					<speed>0.8999999761581421</speed>
				</extensions>
			</trkpt>
			<trkpt lat="22.20003185" lon="113.54733202">
				<ele>15.4453125</ele>
				<time>2022-11-13T04:58:23Z</time>
				<extensions>
					<speed>0.1899999976158142</speed>
				</extensions>
			</trkpt>
			<trkpt lat="22.20004071" lon="113.54733967">
				<ele>15.15240478515625</ele>
				<time>2022-11-13T04:58:24Z</time>
				<extensions>
					<speed>0.8799999952316284</speed>
				</extensions>
			</trkpt>
			<trkpt lat="22.2000525" lon="113.54735171">
				<ele>14.722412109375</ele>
				<time>2022-11-13T04:58:25Z</time>
				<extensions>
					<speed>1.0499999523162842</speed>
				</extensions>
			</trkpt>
			<trkpt lat="22.20006428" lon="113.54736432">
				<ele>14.32537841796875</ele>
				<time>2022-11-13T04:58:26Z</time>
				<extensions>
					<speed>0.8299999833106995</speed>
				</extensions>
			</trkpt>
			<trkpt lat="22.20008093" lon="113.54738079">
				<ele>14.18597412109375</ele>
				<time>2022-11-13T04:58:27Z</time>
				<extensions>
					<speed>0.0</speed>
				</extensions>
			</trkpt>
			<trkpt lat="22.20009419" lon="113.54739261">
				<ele>14.37225341796875</ele>
				<time>2022-11-13T04:58:28Z</time>
				<extensions>
					<speed>1.600000023841858</speed>
				</extensions>
			</trkpt>
			<trkpt lat="22.20010762" lon="113.54740173">
				<ele>14.87109375</ele>
				<time>2022-11-13T04:58:29Z</time>
				<extensions>
					<speed>0.9300000071525574</speed>
				</extensions>
			</trkpt>
			<trkpt lat="22.20012001" lon="113.54740881">
				<ele>15.60614013671875</ele>
				<time>2022-11-13T04:58:30Z</time>
				<extensions>
					<speed>1.090000033378601</speed>
				</extensions>
			</trkpt>
			<trkpt lat="22.20013232" lon="113.54741622">
				<ele>15.48272705078125</ele>
				<time>2022-11-13T04:58:31Z</time>
				<extensions>
					<speed>1.1200000047683716</speed>
				</extensions>
			</trkpt>
			<trkpt lat="22.20014529" lon="113.54742515">
				<ele>15.6478271484375</ele>
				<time>2022-11-13T04:58:32Z</time>
				<extensions>
					<speed>1.25</speed>
				</extensions>
			</trkpt>
			<trkpt lat="22.20015804" lon="113.54743288">
				<ele>16.28240966796875</ele>
				<time>2022-11-13T04:58:33Z</time>
				<extensions>
					<speed>0.9300000071525574</speed>
				</extensions>
			</trkpt>
			<trkpt lat="22.20016917" lon="113.54743911">
				<ele>16.1295166015625</ele>
				<time>2022-11-13T04:58:34Z</time>
				<extensions>
					<speed>0.8700000047683716</speed>
				</extensions>
			</trkpt>
			<trkpt lat="22.2001811" lon="113.54744605">
				<ele>16.3311767578125</ele>
				<time>2022-11-13T04:58:35Z</time>
				<extensions>
					<speed>1.2200000286102295</speed>
				</extensions>
			</trkpt>
			<trkpt lat="22.20019284" lon="113.54745429">
				<ele>16.800048828125</ele>
				<time>2022-11-13T04:58:36Z</time>
				<extensions>
					<speed>1.149999976158142</speed>
				</extensions>
			</trkpt>
			<trkpt lat="22.20020051" lon="113.54746171">
				<ele>15.70355224609375</ele>
				<time>2022-11-13T04:58:37Z</time>
				<extensions>
					<speed>0.9100000262260437</speed>
				</extensions>
			</trkpt>
			<trkpt lat="22.2002079" lon="113.5474692">
				<ele>15.201171875</ele>
				<time>2022-11-13T04:58:38Z</time>
				<extensions>
					<speed>1.0399999618530273</speed>
				</extensions>
			</trkpt>
			<trkpt lat="22.20021334" lon="113.54747727">
				<ele>14.50262451171875</ele>
				<time>2022-11-13T04:58:39Z</time>
				<extensions>
					<speed>0.8299999833106995</speed>
				</extensions>
			</trkpt>
			<trkpt lat="22.20022108" lon="113.5474844">
				<ele>14.5460205078125</ele>
				<time>2022-11-13T04:58:40Z</time>
				<extensions>
					<speed>1.350000023841858</speed>
				</extensions>
			</trkpt>
			<trkpt lat="22.20022863" lon="113.54748925">
				<ele>13.8861083984375</ele>
				<time>2022-11-13T04:58:41Z</time>
				<extensions>
					<speed>0.8299999833106995</speed>
				</extensions>
			</trkpt>
			<trkpt lat="22.20023249" lon="113.54748988">
				<ele>13.52166748046875</ele>
				<time>2022-11-13T04:58:42Z</time>
				<extensions>
					<speed>0.44999998807907104</speed>
				</extensions>
			</trkpt>
			<trkpt lat="22.20023487" lon="113.54749124">
				<ele>13.37799072265625</ele>
				<time>2022-11-13T04:58:43Z</time>
				<extensions>
					<speed>0.6399999856948853</speed>
				</extensions>
			</trkpt>
			<trkpt lat="22.2002367" lon="113.54749434">
				<ele>13.693603515625</ele>
				<time>2022-11-13T04:58:44Z</time>
				<extensions>
					<speed>0.6100000143051147</speed>
				</extensions>
			</trkpt>
			<trkpt lat="22.20023842" lon="113.54749709">
				<ele>12.8428955078125</ele>
				<time>2022-11-13T04:58:45Z</time>
				<extensions>
					<speed>0.5699999928474426</speed>
				</extensions>
			</trkpt>
			<trkpt lat="22.20024408" lon="113.54750158">
				<ele>12.62493896484375</ele>
				<time>2022-11-13T04:58:46Z</time>
				<extensions>
					<speed>0.8899999856948853</speed>
				</extensions>
			</trkpt>
			<trkpt lat="22.20025311" lon="113.54750671">
				<ele>13.02392578125</ele>
				<time>2022-11-13T04:58:47Z</time>
				<extensions>
					<speed>1.0800000429153442</speed>
				</extensions>
			</trkpt>
			<trkpt lat="22.20026478" lon="113.54751391">
				<ele>11.802276611328125</ele>
				<time>2022-11-13T04:58:48Z</time>
				<extensions>
					<speed>1.1299999952316284</speed>
				</extensions>
			</trkpt>
			<trkpt lat="22.20027481" lon="113.5475204">
				<ele>9.91046142578125</ele>
				<time>2022-11-13T04:58:49Z</time>
				<extensions>
					<speed>0.7400000095367432</speed>
				</extensions>
			</trkpt>
			<trkpt lat="22.20028489" lon="113.54752661">
				<ele>9.921844482421875</ele>
				<time>2022-11-13T04:58:50Z</time>
				<extensions>
					<speed>0.7799999713897705</speed>
				</extensions>
			</trkpt>
			<trkpt lat="22.20029503" lon="113.54753318">
				<ele>8.932525634765625</ele>
				<time>2022-11-13T04:58:51Z</time>
				<extensions>
					<speed>0.800000011920929</speed>
				</extensions>
			</trkpt>
			<trkpt lat="22.20030445" lon="113.54754224">
				<ele>8.158447265625</ele>
				<time>2022-11-13T04:58:52Z</time>
				<extensions>
					<speed>0.949999988079071</speed>
				</extensions>
			</trkpt>
			<trkpt lat="22.20031142" lon="113.54755237">
				<ele>6.896759033203125</ele>
				<time>2022-11-13T04:58:53Z</time>
				<extensions>
					<speed>0.8100000023841858</speed>
				</extensions>
			</trkpt>
			<trkpt lat="22.20031761" lon="113.54756408">
				<ele>7.13934326171875</ele>
				<time>2022-11-13T04:58:54Z</time>
				<extensions>
					<speed>1.1699999570846558</speed>
				</extensions>
			</trkpt>
			<trkpt lat="22.20032252" lon="113.54757861">
				<ele>6.479034423828125</ele>
				<time>2022-11-13T04:58:55Z</time>
				<extensions>
					<speed>1.2799999713897705</speed>
				</extensions>
			</trkpt>
			<trkpt lat="22.20032547" lon="113.54759506">
				<ele>7.06689453125</ele>
				<time>2022-11-13T04:58:56Z</time>
				<extensions>
					<speed>1.3600000143051147</speed>
				</extensions>
			</trkpt>
			<trkpt lat="22.20032715" lon="113.54760944">
				<ele>7.571563720703125</ele>
				<time>2022-11-13T04:58:57Z</time>
				<extensions>
					<speed>1.0099999904632568</speed>
				</extensions>
			</trkpt>
			<trkpt lat="22.20032848" lon="113.54762115">
				<ele>7.541534423828125</ele>
				<time>2022-11-13T04:58:58Z</time>
				<extensions>
					<speed>0.9399999976158142</speed>
				</extensions>
			</trkpt>
			<trkpt lat="22.20032859" lon="113.54763502">
				<ele>8.212890625</ele>
				<time>2022-11-13T04:58:59Z</time>
				<extensions>
					<speed>1.2999999523162842</speed>
				</extensions>
			</trkpt>
			<trkpt lat="22.20032855" lon="113.54764812">
				<ele>7.6759033203125</ele>
				<time>2022-11-13T04:59:00Z</time>
				<extensions>
					<speed>1.1299999952316284</speed>
				</extensions>
			</trkpt>
			<trkpt lat="22.20032574" lon="113.54766178">
				<ele>8.030670166015625</ele>
				<time>2022-11-13T04:59:01Z</time>
				<extensions>
					<speed>1.350000023841858</speed>
				</extensions>
			</trkpt>
			<trkpt lat="22.20032574" lon="113.54766178">
				<ele>8.030670166015625</ele>
				<time>2022-11-13T04:59:01Z</time>
				<extensions>
					<speed>1.350000023841858</speed>
				</extensions>
			</trkpt>
			<trkpt lat="22.20032101" lon="113.54767704">
				<ele>7.908935546875</ele>
				<time>2022-11-13T04:59:02Z</time>
				<extensions>
					<speed>1.3700000047683716</speed>
				</extensions>
			</trkpt>
			<trkpt lat="22.20031698" lon="113.54769">
				<ele>8.607025146484375</ele>
				<time>2022-11-13T04:59:03Z</time>
				<extensions>
					<speed>0.9100000262260437</speed>
				</extensions>
			</trkpt>
			<trkpt lat="22.20031304" lon="113.547704">
				<ele>8.5599365234375</ele>
				<time>2022-11-13T04:59:04Z</time>
				<extensions>
					<speed>1.340000033378601</speed>
				</extensions>
			</trkpt>
			<trkpt lat="22.20030975" lon="113.5477187">
				<ele>7.6290283203125</ele>
				<time>2022-11-13T04:59:05Z</time>
				<extensions>
					<speed>0.8600000143051147</speed>
				</extensions>
			</trkpt>
			<trkpt lat="22.20030932" lon="113.54773332">
				<ele>8.348846435546875</ele>
				<time>2022-11-13T04:59:06Z</time>
				<extensions>
					<speed>1.059999942779541</speed>
				</extensions>
			</trkpt>
			<trkpt lat="22.20030927" lon="113.54775016">
				<ele>8.40447998046875</ele>
				<time>2022-11-13T04:59:07Z</time>
				<extensions>
					<speed>1.3200000524520874</speed>
				</extensions>
			</trkpt>
			<trkpt lat="22.20030907" lon="113.54776119">
				<ele>7.52886962890625</ele>
				<time>2022-11-13T04:59:08Z</time>
				<extensions>
					<speed>0.49000000953674316</speed>
				</extensions>
			</trkpt>
			<trkpt lat="22.20030965" lon="113.54777404">
				<ele>7.74090576171875</ele>
				<time>2022-11-13T04:59:09Z</time>
				<extensions>
					<speed>1.5099999904632568</speed>
				</extensions>
			</trkpt>
			<trkpt lat="22.20031262" lon="113.54778823">
				<ele>7.498291015625</ele>
				<time>2022-11-13T04:59:10Z</time>
				<extensions>
					<speed>1.2799999713897705</speed>
				</extensions>
			</trkpt>
			<trkpt lat="22.20031721" lon="113.54780101">
				<ele>8.54974365234375</ele>
				<time>2022-11-13T04:59:11Z</time>
				<extensions>
					<speed>1.3600000143051147</speed>
				</extensions>
			</trkpt>
			<trkpt lat="22.20032178" lon="113.54781367">
				<ele>8.791595458984375</ele>
				<time>2022-11-13T04:59:12Z</time>
				<extensions>
					<speed>1.2999999523162842</speed>
				</extensions>
			</trkpt>
			<trkpt lat="22.20032455" lon="113.54782658">
				<ele>10.063720703125</ele>
				<time>2022-11-13T04:59:13Z</time>
				<extensions>
					<speed>1.2100000381469727</speed>
				</extensions>
			</trkpt>
			<trkpt lat="22.20032776" lon="113.5478385">
				<ele>11.648345947265625</ele>
				<time>2022-11-13T04:59:14Z</time>
				<extensions>
					<speed>1.0800000429153442</speed>
				</extensions>
			</trkpt>
			<trkpt lat="22.20033269" lon="113.54785157">
				<ele>12.54168701171875</ele>
				<time>2022-11-13T04:59:15Z</time>
				<extensions>
					<speed>1.5099999904632568</speed>
				</extensions>
			</trkpt>
			<trkpt lat="22.20033943" lon="113.5478614">
				<ele>14.13336181640625</ele>
				<time>2022-11-13T04:59:16Z</time>
				<extensions>
					<speed>0.9399999976158142</speed>
				</extensions>
			</trkpt>
			<trkpt lat="22.2003476" lon="113.54786917">
				<ele>13.215576171875</ele>
				<time>2022-11-13T04:59:17Z</time>
				<extensions>
					<speed>1.0700000524520874</speed>
				</extensions>
			</trkpt>
			<trkpt lat="22.20063415" lon="113.54815682">
				<ele>2.500152587890625</ele>
				<time>2022-11-13T04:59:54Z</time>
				<extensions>
					<speed>1.2899999618530273</speed>
				</extensions>
			</trkpt>
			<trkpt lat="22.20063828" lon="113.54816672">
				<ele>2.551025390625</ele>
				<time>2022-11-13T04:59:55Z</time>
				<extensions>
					<speed>1.2899999618530273</speed>
				</extensions>
			</trkpt>
			<trkpt lat="22.20064404" lon="113.54816389">
				<ele>8.024505615234375</ele>
				<time>2022-11-13T04:59:56Z</time>
				<extensions>
					<speed>1.1299999952316284</speed>
				</extensions>
			</trkpt>
			<trkpt lat="22.20065195" lon="113.54816137">
				<ele>8.852691650390625</ele>
				<time>2022-11-13T04:59:57Z</time>
				<extensions>
					<speed>1.1200000047683716</speed>
				</extensions>
			</trkpt>
			<trkpt lat="22.20311026" lon="113.5447814">
				<ele>0.983245849609375</ele>
				<time>2022-11-13T05:10:18Z</time>
				<extensions>
					<speed>0.17000000178813934</speed>
				</extensions>
			</trkpt>
			<trkpt lat="22.20311006" lon="113.54478073">
				<ele>0.836151123046875</ele>
				<time>2022-11-13T05:10:19Z</time>
				<extensions>
					<speed>0.17000000178813934</speed>
				</extensions>
			</trkpt>
			<trkpt lat="22.20310955" lon="113.54477907">
				<ele>0.4757080078125</ele>
				<time>2022-11-13T05:10:20Z</time>
				<extensions>
					<speed>0.17000000178813934</speed>
				</extensions>
			</trkpt>
			<trkpt lat="22.20310723" lon="113.5447782">
				<ele>2.370086669921875</ele>
				<time>2022-11-13T05:10:21Z</time>
				<extensions>
					<speed>0.0</speed>
				</extensions>
			</trkpt>
			<trkpt lat="22.20309555" lon="113.54477731">
				<ele>1.070556640625</ele>
				<time>2022-11-13T05:10:22Z</time>
				<extensions>
					<speed>0.0</speed>
				</extensions>
			</trkpt>
			<trkpt lat="22.2030895" lon="113.54478657">
				<ele>0.168914794921875</ele>
				<time>2022-11-13T05:10:23Z</time>
				<extensions>
					<speed>0.0</speed>
				</extensions>
			</trkpt>
			<trkpt lat="22.20309364" lon="113.54479282">
				<ele>-0.259368896484375</ele>
				<time>2022-11-13T05:10:24Z</time>
				<extensions>
					<speed>0.0</speed>
				</extensions>
			</trkpt>
			<trkpt lat="22.20309622" lon="113.54479195">
				<ele>-1.551544189453125</ele>
				<time>2022-11-13T05:10:25Z</time>
				<extensions>
					<speed>0.0</speed>
				</extensions>
			</trkpt>
			<trkpt lat="22.20309756" lon="113.54479898">
				<ele>-2.88055419921875</ele>
				<time>2022-11-13T05:10:26Z</time>
				<extensions>
					<speed>0.0</speed>
				</extensions>
			</trkpt>
			<trkpt lat="22.20309397" lon="113.54479745">
				<ele>-4.09619140625</ele>
				<time>2022-11-13T05:10:27Z</time>
				<extensions>
					<speed>0.0</speed>
				</extensions>
			</trkpt>
			<trkpt lat="22.20309265" lon="113.54479996">
				<ele>-5.46527099609375</ele>
				<time>2022-11-13T05:10:28Z</time>
				<extensions>
					<speed>0.0</speed>
				</extensions>
			</trkpt>
			<trkpt lat="22.20308567" lon="113.5447954">
				<ele>-4.01910400390625</ele>
				<time>2022-11-13T05:10:29Z</time>
				<extensions>
					<speed>0.25999999046325684</speed>
				</extensions>
			</trkpt>
			<trkpt lat="22.20309033" lon="113.54480667">
				<ele>-2.55218505859375</ele>
				<time>2022-11-13T05:10:30Z</time>
				<extensions>
					<speed>0.0</speed>
				</extensions>
			</trkpt>
			<trkpt lat="22.20308871" lon="113.54480431">
				<ele>-1.8255615234375</ele>
				<time>2022-11-13T05:10:31Z</time>
				<extensions>
					<speed>0.0</speed>
				</extensions>
			</trkpt>
			<trkpt lat="22.20308952" lon="113.54480681">
				<ele>-2.063690185546875</ele>
				<time>2022-11-13T05:10:32Z</time>
				<extensions>
					<speed>0.0</speed>
				</extensions>
			</trkpt>
			<trkpt lat="22.20308952" lon="113.54480681">
				<ele>-2.063690185546875</ele>
				<time>2022-11-13T05:10:32Z</time>
				<extensions>
					<speed>0.0</speed>
				</extensions>
			</trkpt>
			<trkpt lat="22.20308511" lon="113.54480605">
				<ele>-1.61676025390625</ele>
				<time>2022-11-13T05:10:33Z</time>
				<extensions>
					<speed>0.0</speed>
				</extensions>
			</trkpt>
			<trkpt lat="22.20308097" lon="113.54480223">
				<ele>-2.396942138671875</ele>
				<time>2022-11-13T05:10:34Z</time>
				<extensions>
					<speed>0.0</speed>
				</extensions>
			</trkpt>
			<trkpt lat="22.20307336" lon="113.54479904">
				<ele>-2.7928466796875</ele>
				<time>2022-11-13T05:10:35Z</time>
				<extensions>
					<speed>0.0</speed>
				</extensions>
			</trkpt>
			<trkpt lat="22.20306983" lon="113.54479715">
				<ele>-2.94219970703125</ele>
				<time>2022-11-13T05:10:36Z</time>
				<extensions>
					<speed>0.0</speed>
				</extensions>
			</trkpt>
			<trkpt lat="22.20306493" lon="113.54479583">
				<ele>-2.9091796875</ele>
				<time>2022-11-13T05:10:37Z</time>
				<extensions>
					<speed>0.0</speed>
				</extensions>
			</trkpt>
			<trkpt lat="22.20306501" lon="113.54479579">
				<ele>-2.529022216796875</ele>
				<time>2022-11-13T05:10:38Z</time>
				<extensions>
					<speed>0.0</speed>
				</extensions>
			</trkpt>
			<trkpt lat="22.2030611" lon="113.54479351">
				<ele>-2.65936279296875</ele>
				<time>2022-11-13T05:10:39Z</time>
				<extensions>
					<speed>0.0</speed>
				</extensions>
			</trkpt>
			<trkpt lat="22.20306178" lon="113.5447905">
				<ele>-2.227783203125</ele>
				<time>2022-11-13T05:10:40Z</time>
				<extensions>
					<speed>0.0</speed>
				</extensions>
			</trkpt>
			<trkpt lat="22.20306067" lon="113.54479228">
				<ele>-2.00677490234375</ele>
				<time>2022-11-13T05:10:41Z</time>
				<extensions>
					<speed>0.0</speed>
				</extensions>
			</trkpt>
			<trkpt lat="22.20305926" lon="113.54479347">
				<ele>-2.592437744140625</ele>
				<time>2022-11-13T05:10:42Z</time>
				<extensions>
					<speed>0.0</speed>
				</extensions>
			</trkpt>
			<trkpt lat="22.2030541" lon="113.54479439">
				<ele>-3.205657958984375</ele>
				<time>2022-11-13T05:10:43Z</time>
				<extensions>
					<speed>0.0</speed>
				</extensions>
			</trkpt>
			<trkpt lat="22.20305192" lon="113.54479645">
				<ele>-3.508636474609375</ele>
				<time>2022-11-13T05:10:44Z</time>
				<extensions>
					<speed>0.0</speed>
				</extensions>
			</trkpt>
			<trkpt lat="22.20305038" lon="113.54479796">
				<ele>-3.90350341796875</ele>
				<time>2022-11-13T05:10:45Z</time>
				<extensions>
					<speed>0.0</speed>
				</extensions>
			</trkpt>
			<trkpt lat="22.20304831" lon="113.54479739">
				<ele>-3.953826904296875</ele>
				<time>2022-11-13T05:10:46Z</time>
				<extensions>
					<speed>0.0</speed>
				</extensions>
			</trkpt>
			<trkpt lat="22.20304879" lon="113.54479822">
				<ele>-3.89776611328125</ele>
				<time>2022-11-13T05:10:47Z</time>
				<extensions>
					<speed>0.0</speed>
				</extensions>
			</trkpt>
			<trkpt lat="22.20304808" lon="113.54480176">
				<ele>-3.936767578125</ele>
				<time>2022-11-13T05:10:48Z</time>
				<extensions>
					<speed>0.0</speed>
				</extensions>
			</trkpt>
			<trkpt lat="22.20304843" lon="113.54480147">
				<ele>-4.100494384765625</ele>
				<time>2022-11-13T05:10:49Z</time>
				<extensions>
					<speed>0.0</speed>
				</extensions>
			</trkpt>
			<trkpt lat="22.20304949" lon="113.54479966">
				<ele>-3.940948486328125</ele>
				<time>2022-11-13T05:10:50Z</time>
				<extensions>
					<speed>0.0</speed>
				</extensions>
			</trkpt>
			<trkpt lat="22.20305109" lon="113.54480271">
				<ele>-3.3812255859375</ele>
				<time>2022-11-13T05:10:51Z</time>
				<extensions>
					<speed>0.0</speed>
				</extensions>
			</trkpt>
			<trkpt lat="22.20305692" lon="113.54480106">
				<ele>-3.349945068359375</ele>
				<time>2022-11-13T05:10:52Z</time>
				<extensions>
					<speed>0.0</speed>
				</extensions>
			</trkpt>
			<trkpt lat="22.20305891" lon="113.54480117">
				<ele>-2.975799560546875</ele>
				<time>2022-11-13T05:10:53Z</time>
				<extensions>
					<speed>0.0</speed>
				</extensions>
			</trkpt>
			<trkpt lat="22.20305981" lon="113.54479937">
				<ele>-2.336212158203125</ele>
				<time>2022-11-13T05:10:54Z</time>
				<extensions>
					<speed>0.0</speed>
				</extensions>
			</trkpt>
			<trkpt lat="22.20306315" lon="113.54479312">
				<ele>-3.219635009765625</ele>
				<time>2022-11-13T05:10:55Z</time>
				<extensions>
					<speed>0.0</speed>
				</extensions>
			</trkpt>
			<trkpt lat="22.20306674" lon="113.54478886">
				<ele>-3.39935302734375</ele>
				<time>2022-11-13T05:10:56Z</time>
				<extensions>
					<speed>0.0</speed>
				</extensions>
			</trkpt>
			<trkpt lat="22.20306582" lon="113.54478802">
				<ele>-3.853118896484375</ele>
				<time>2022-11-13T05:10:57Z</time>
				<extensions>
					<speed>0.20999999344348907</speed>
				</extensions>
			</trkpt>
			<trkpt lat="22.2030688" lon="113.5447911">
				<ele>-3.7928466796875</ele>
				<time>2022-11-13T05:10:58Z</time>
				<extensions>
					<speed>0.0</speed>
				</extensions>
			</trkpt>
			<trkpt lat="22.20307109" lon="113.5447893">
				<ele>-3.573211669921875</ele>
				<time>2022-11-13T05:10:59Z</time>
				<extensions>
					<speed>0.0</speed>
				</extensions>
			</trkpt>
			<trkpt lat="22.20307212" lon="113.54478725">
				<ele>-3.44940185546875</ele>
				<time>2022-11-13T05:11:00Z</time>
				<extensions>
					<speed>0.0</speed>
				</extensions>
			</trkpt>
			<trkpt lat="22.20307695" lon="113.54478731">
				<ele>-3.2215576171875</ele>
				<time>2022-11-13T05:11:01Z</time>
				<extensions>
					<speed>0.0</speed>
				</extensions>
			</trkpt>
			<trkpt lat="22.20308229" lon="113.54478796">
				<ele>-3.428466796875</ele>
				<time>2022-11-13T05:11:02Z</time>
				<extensions>
					<speed>0.0</speed>
				</extensions>
			</trkpt>
			<trkpt lat="22.20308748" lon="113.54478976">
				<ele>-3.471099853515625</ele>
				<time>2022-11-13T05:11:03Z</time>
				<extensions>
					<speed>0.0</speed>
				</extensions>
			</trkpt>
			<trkpt lat="22.20309029" lon="113.54479086">
				<ele>-3.100830078125</ele>
				<time>2022-11-13T05:11:04Z</time>
				<extensions>
					<speed>0.0</speed>
				</extensions>
			</trkpt>
			<trkpt lat="22.20308924" lon="113.54479608">
				<ele>-2.181488037109375</ele>
				<time>2022-11-13T05:11:05Z</time>
				<extensions>
					<speed>0.0</speed>
				</extensions>
			</trkpt>
			<trkpt lat="22.20308734" lon="113.54480111">
				<ele>-1.401153564453125</ele>
				<time>2022-11-13T05:11:06Z</time>
				<extensions>
					<speed>0.0</speed>
				</extensions>
			</trkpt>
			<trkpt lat="22.20320676" lon="113.54045975">
				<ele>15.90667724609375</ele>
				<time>2022-11-13T06:13:58Z</time>
				<extensions>
					<speed>0.0</speed>
				</extensions>
			</trkpt>
			<trkpt lat="22.20324225" lon="113.5404111">
				<ele>-1.973876953125</ele>
				<time>2022-11-13T06:13:59Z</time>
				<extensions>
					<speed>0.30000001192092896</speed>
				</extensions>
			</trkpt>
			<trkpt lat="22.20315205" lon="113.54038098">
				<ele>31.6717529296875</ele>
				<time>2022-11-13T06:14:00Z</time>
				<extensions>
					<speed>0.5099999904632568</speed>
				</extensions>
			</trkpt>
			<trkpt lat="22.20315153" lon="113.54039529">
				<ele>32.81036376953125</ele>
				<time>2022-11-13T06:14:01Z</time>
				<extensions>
					<speed>0.0</speed>
				</extensions>
			</trkpt>
			<trkpt lat="22.20316089" lon="113.54037147">
				<ele>27.77728271484375</ele>
				<time>2022-11-13T06:14:02Z</time>
				<extensions>
					<speed>0.0</speed>
				</extensions>
			</trkpt>
			<trkpt lat="22.2031482" lon="113.54035689">
				<ele>29.509033203125</ele>
				<time>2022-11-13T06:14:03Z</time>
				<extensions>
					<speed>0.0</speed>
				</extensions>
			</trkpt>
			<trkpt lat="22.20315046" lon="113.5403446">
				<ele>26.40484619140625</ele>
				<time>2022-11-13T06:14:04Z</time>
				<extensions>
					<speed>0.2199999988079071</speed>
				</extensions>
			</trkpt>
			<trkpt lat="22.20315758" lon="113.54032485">
				<ele>21.04315185546875</ele>
				<time>2022-11-13T06:14:05Z</time>
				<extensions>
					<speed>0.6200000047683716</speed>
				</extensions>
			</trkpt>
			<trkpt lat="22.2031638" lon="113.54030373">
				<ele>20.42822265625</ele>
				<time>2022-11-13T06:14:06Z</time>
				<extensions>
					<speed>0.8799999952316284</speed>
				</extensions>
			</trkpt>
			<trkpt lat="22.20315816" lon="113.54029545">
				<ele>20.7431640625</ele>
				<time>2022-11-13T06:14:07Z</time>
				<extensions>
					<speed>0.949999988079071</speed>
				</extensions>
			</trkpt>
			<trkpt lat="22.20315893" lon="113.54028843">
				<ele>20.1842041015625</ele>
				<time>2022-11-13T06:14:08Z</time>
				<extensions>
					<speed>0.8399999737739563</speed>
				</extensions>
			</trkpt>
			<trkpt lat="22.2031618" lon="113.54029158">
				<ele>20.49737548828125</ele>
				<time>2022-11-13T06:14:09Z</time>
				<extensions>
					<speed>0.7099999785423279</speed>
				</extensions>
			</trkpt>
			<trkpt lat="22.20316331" lon="113.54028294">
				<ele>21.1104736328125</ele>
				<time>2022-11-13T06:14:10Z</time>
				<extensions>
					<speed>1.0299999713897705</speed>
				</extensions>
			</trkpt>
			<trkpt lat="22.20317221" lon="113.54027014">
				<ele>18.1197509765625</ele>
				<time>2022-11-13T06:14:11Z</time>
				<extensions>
					<speed>1.1200000047683716</speed>
				</extensions>
			</trkpt>
			<trkpt lat="22.20317407" lon="113.54026126">
				<ele>17.093994140625</ele>
				<time>2022-11-13T06:14:12Z</time>
				<extensions>
					<speed>0.9599999785423279</speed>
				</extensions>
			</trkpt>
			<trkpt lat="22.20317813" lon="113.54024982">
				<ele>16.64453125</ele>
				<time>2022-11-13T06:14:13Z</time>
				<extensions>
					<speed>1.690000057220459</speed>
				</extensions>
			</trkpt>
			<trkpt lat="22.20318025" lon="113.54023523">
				<ele>16.16082763671875</ele>
				<time>2022-11-13T06:14:14Z</time>
				<extensions>
					<speed>1.440000057220459</speed>
				</extensions>
			</trkpt>
			<trkpt lat="22.20318148" lon="113.5402234">
				<ele>15.4061279296875</ele>
				<time>2022-11-13T06:14:15Z</time>
				<extensions>
					<speed>0.9399999976158142</speed>
				</extensions>
			</trkpt>
			<trkpt lat="22.20318353" lon="113.5402136">
				<ele>14.17333984375</ele>
				<time>2022-11-13T06:14:16Z</time>
				<extensions>
					<speed>0.9599999785423279</speed>
				</extensions>
			</trkpt>
			<trkpt lat="22.20318308" lon="113.54019818">
				<ele>14.3153076171875</ele>
				<time>2022-11-13T06:14:17Z</time>
				<extensions>
					<speed>1.690000057220459</speed>
				</extensions>
			</trkpt>
			<trkpt lat="22.20318198" lon="113.54018568">
				<ele>14.5181884765625</ele>
				<time>2022-11-13T06:14:18Z</time>
				<extensions>
					<speed>0.7699999809265137</speed>
				</extensions>
			</trkpt>
			<trkpt lat="22.20318033" lon="113.54017521">
				<ele>13.86907958984375</ele>
				<time>2022-11-13T06:14:19Z</time>
				<extensions>
					<speed>1.0299999713897705</speed>
				</extensions>
			</trkpt>
			<trkpt lat="22.20317671" lon="113.54016282">
				<ele>13.54425048828125</ele>
				<time>2022-11-13T06:14:20Z</time>
				<extensions>
					<speed>1.3899999856948853</speed>
				</extensions>
			</trkpt>
			<trkpt lat="22.20317297" lon="113.54015162">
				<ele>13.7354736328125</ele>
				<time>2022-11-13T06:14:21Z</time>
				<extensions>
					<speed>0.8100000023841858</speed>
				</extensions>
			</trkpt>
			<trkpt lat="22.20317227" lon="113.54014543">
				<ele>14.15155029296875</ele>
				<time>2022-11-13T06:14:22Z</time>
				<extensions>
					<speed>0.0</speed>
				</extensions>
			</trkpt>
			<trkpt lat="22.20317079" lon="113.54014221">
				<ele>13.1673583984375</ele>
				<time>2022-11-13T06:14:23Z</time>
				<extensions>
					<speed>0.3799999952316284</speed>
				</extensions>
			</trkpt>
			<trkpt lat="22.20316845" lon="113.54013847">
				<ele>14.0096435546875</ele>
				<time>2022-11-13T06:14:24Z</time>
				<extensions>
					<speed>0.2199999988079071</speed>
				</extensions>
			</trkpt>
			<trkpt lat="22.2031659" lon="113.54013986">
				<ele>15.01708984375</ele>
				<time>2022-11-13T06:14:25Z</time>
				<extensions>
					<speed>0.5899999737739563</speed>
				</extensions>
			</trkpt>
			<trkpt lat="22.20316251" lon="113.54014384">
				<ele>15.10516357421875</ele>
				<time>2022-11-13T06:14:26Z</time>
				<extensions>
					<speed>0.5299999713897705</speed>
				</extensions>
			</trkpt>
			<trkpt lat="22.20315972" lon="113.54014786">
				<ele>15.07049560546875</ele>
				<time>2022-11-13T06:14:27Z</time>
				<extensions>
					<speed>0.5199999809265137</speed>
				</extensions>
			</trkpt>
			<trkpt lat="22.20315616" lon="113.54015096">
				<ele>15.06707763671875</ele>
				<time>2022-11-13T06:14:28Z</time>
				<extensions>
					<speed>0.5199999809265137</speed>
				</extensions>
			</trkpt>
			<trkpt lat="22.20423439" lon="113.54579212">
				<ele>40.0992431640625</ele>
				<time>2022-11-13T06:40:30Z</time>
				<extensions>
					<speed>0.2199999988079071</speed>
				</extensions>
			</trkpt>
			<trkpt lat="22.2042524" lon="113.54572953">
				<ele>42.497802734375</ele>
				<time>2022-11-13T06:40:31Z</time>
				<extensions>
					<speed>0.0</speed>
				</extensions>
			</trkpt>
			<trkpt lat="22.20428087" lon="113.54567127">
				<ele>70.98614501953125</ele>
				<time>2022-11-13T06:40:32Z</time>
				<extensions>
					<speed>0.0</speed>
				</extensions>
			</trkpt>
			<trkpt lat="22.20428512" lon="113.54562518">
				<ele>39.85577392578125</ele>
				<time>2022-11-13T06:40:33Z</time>
				<extensions>
					<speed>0.0</speed>
				</extensions>
			</trkpt>
			<trkpt lat="22.20428235" lon="113.54566384">
				<ele>34.90771484375</ele>
				<time>2022-11-13T06:40:34Z</time>
				<extensions>
					<speed>0.0</speed>
				</extensions>
			</trkpt>
			<trkpt lat="22.20429526" lon="113.54566382">
				<ele>31.73388671875</ele>
				<time>2022-11-13T06:40:35Z</time>
				<extensions>
					<speed>0.0</speed>
				</extensions>
			</trkpt>
			<trkpt lat="22.20431448" lon="113.54568715">
				<ele>27.2906494140625</ele>
				<time>2022-11-13T06:40:36Z</time>
				<extensions>
					<speed>0.1899999976158142</speed>
				</extensions>
			</trkpt>
			<trkpt lat="22.20428879" lon="113.54572383">
				<ele>25.85125732421875</ele>
				<time>2022-11-13T06:40:37Z</time>
				<extensions>
					<speed>0.0</speed>
				</extensions>
			</trkpt>
			<trkpt lat="22.2042867" lon="113.54575832">
				<ele>27.37579345703125</ele>
				<time>2022-11-13T06:40:38Z</time>
				<extensions>
					<speed>0.0</speed>
				</extensions>
			</trkpt>
			<trkpt lat="22.20428321" lon="113.54578823">
				<ele>32.0938720703125</ele>
				<time>2022-11-13T06:40:39Z</time>
				<extensions>
					<speed>0.0</speed>
				</extensions>
			</trkpt>
			<trkpt lat="22.20429066" lon="113.54578603">
				<ele>31.4713134765625</ele>
				<time>2022-11-13T06:40:40Z</time>
				<extensions>
					<speed>0.0</speed>
				</extensions>
			</trkpt>
			<trkpt lat="22.20429055" lon="113.54578521">
				<ele>30.82855224609375</ele>
				<time>2022-11-13T06:40:41Z</time>
				<extensions>
					<speed>0.0</speed>
				</extensions>
			</trkpt>
			<trkpt lat="22.20430497" lon="113.54576815">
				<ele>28.303466796875</ele>
				<time>2022-11-13T06:40:42Z</time>
				<extensions>
					<speed>0.3400000035762787</speed>
				</extensions>
			</trkpt>
			<trkpt lat="22.2043101" lon="113.54577754">
				<ele>29.88079833984375</ele>
				<time>2022-11-13T06:40:43Z</time>
				<extensions>
					<speed>0.25</speed>
				</extensions>
			</trkpt>
			<trkpt lat="22.2043133" lon="113.54579454">
				<ele>29.09649658203125</ele>
				<time>2022-11-13T06:40:44Z</time>
				<extensions>
					<speed>0.0</speed>
				</extensions>
			</trkpt>
			<trkpt lat="22.20432239" lon="113.54579812">
				<ele>29.29632568359375</ele>
				<time>2022-11-13T06:40:45Z</time>
				<extensions>
					<speed>0.0</speed>
				</extensions>
			</trkpt>
			<trkpt lat="22.20433379" lon="113.54579675">
				<ele>28.07183837890625</ele>
				<time>2022-11-13T06:40:46Z</time>
				<extensions>
					<speed>0.0</speed>
				</extensions>
			</trkpt>
			<trkpt lat="22.20434309" lon="113.54578929">
				<ele>25.41876220703125</ele>
				<time>2022-11-13T06:40:47Z</time>
				<extensions>
					<speed>0.0</speed>
				</extensions>
			</trkpt>
			<trkpt lat="22.20433378" lon="113.54578802">
				<ele>26.2730712890625</ele>
				<time>2022-11-13T06:40:48Z</time>
				<extensions>
					<speed>0.0</speed>
				</extensions>
			</trkpt>
			<trkpt lat="22.20432957" lon="113.54578723">
				<ele>27.28985595703125</ele>
				<time>2022-11-13T06:40:49Z</time>
				<extensions>
					<speed>0.0</speed>
				</extensions>
			</trkpt>
			<trkpt lat="22.20432736" lon="113.5457882">
				<ele>27.6866455078125</ele>
				<time>2022-11-13T06:40:50Z</time>
				<extensions>
					<speed>0.0</speed>
				</extensions>
			</trkpt>
			<trkpt lat="22.20433128" lon="113.54579862">
				<ele>28.9656982421875</ele>
				<time>2022-11-13T06:40:51Z</time>
				<extensions>
					<speed>1.7200000286102295</speed>
				</extensions>
			</trkpt>
			<trkpt lat="22.20433878" lon="113.54579915">
				<ele>30.5640869140625</ele>
				<time>2022-11-13T06:40:52Z</time>
				<extensions>
					<speed>0.8100000023841858</speed>
				</extensions>
			</trkpt>
			<trkpt lat="22.20434721" lon="113.54580448">
				<ele>31.7232666015625</ele>
				<time>2022-11-13T06:40:53Z</time>
				<extensions>
					<speed>1.2200000286102295</speed>
				</extensions>
			</trkpt>
			<trkpt lat="22.20435561" lon="113.5458091">
				<ele>30.89996337890625</ele>
				<time>2022-11-13T06:40:54Z</time>
				<extensions>
					<speed>0.8500000238418579</speed>
				</extensions>
			</trkpt>
			<trkpt lat="22.2043595" lon="113.5458165">
				<ele>30.72259521484375</ele>
				<time>2022-11-13T06:40:55Z</time>
				<extensions>
					<speed>0.7200000286102295</speed>
				</extensions>
			</trkpt>
			<trkpt lat="22.20436895" lon="113.5458196">
				<ele>29.2301025390625</ele>
				<time>2022-11-13T06:40:56Z</time>
				<extensions>
					<speed>0.6600000262260437</speed>
				</extensions>
			</trkpt>
			<trkpt lat="22.20437551" lon="113.54583453">
				<ele>28.28057861328125</ele>
				<time>2022-11-13T06:40:57Z</time>
				<extensions>
					<speed>0.9599999785423279</speed>
				</extensions>
			</trkpt>
			<trkpt lat="22.20437812" lon="113.5458289">
				<ele>27.1414794921875</ele>
				<time>2022-11-13T06:40:58Z</time>
				<extensions>
					<speed>0.3199999928474426</speed>
				</extensions>
			</trkpt>
			<trkpt lat="22.20438198" lon="113.54582098">
				<ele>25.95013427734375</ele>
				<time>2022-11-13T06:40:59Z</time>
				<extensions>
					<speed>0.5899999737739563</speed>
				</extensions>
			</trkpt>
			<trkpt lat="22.20438514" lon="113.54580829">
				<ele>25.44146728515625</ele>
				<time>2022-11-13T06:41:00Z</time>
				<extensions>
					<speed>0.0</speed>
				</extensions>
			</trkpt>
			<trkpt lat="22.20438814" lon="113.54579972">
				<ele>25.43243408203125</ele>
				<time>2022-11-13T06:41:01Z</time>
				<extensions>
					<speed>0.41999998688697815</speed>
				</extensions>
			</trkpt>
			<trkpt lat="22.20439133" lon="113.5457943">
				<ele>25.98370361328125</ele>
				<time>2022-11-13T06:41:02Z</time>
				<extensions>
					<speed>0.27000001072883606</speed>
				</extensions>
			</trkpt>
			<trkpt lat="22.20439452" lon="113.54579106">
				<ele>25.3731689453125</ele>
				<time>2022-11-13T06:41:03Z</time>
				<extensions>
					<speed>0.3799999952316284</speed>
				</extensions>
			</trkpt>
			<trkpt lat="22.20439542" lon="113.54578759">
				<ele>24.08282470703125</ele>
				<time>2022-11-13T06:41:04Z</time>
				<extensions>
					<speed>0.20999999344348907</speed>
				</extensions>
			</trkpt>
			<trkpt lat="22.20439765" lon="113.54577596">
				<ele>22.8690185546875</ele>
				<time>2022-11-13T06:41:05Z</time>
				<extensions>
					<speed>1.690000057220459</speed>
				</extensions>
			</trkpt>
			<trkpt lat="22.20440002" lon="113.54576327">
				<ele>21.289306640625</ele>
				<time>2022-11-13T06:41:06Z</time>
				<extensions>
					<speed>0.6399999856948853</speed>
				</extensions>
			</trkpt>
			<trkpt lat="22.20439638" lon="113.54575626">
				<ele>20.701171875</ele>
				<time>2022-11-13T06:41:07Z</time>
				<extensions>
					<speed>0.41999998688697815</speed>
				</extensions>
			</trkpt>
			<trkpt lat="22.20439152" lon="113.5457496">
				<ele>19.989013671875</ele>
				<time>2022-11-13T06:41:08Z</time>
				<extensions>
					<speed>0.5600000023841858</speed>
				</extensions>
			</trkpt>
			<trkpt lat="22.20437979" lon="113.54574843">
				<ele>19.021728515625</ele>
				<time>2022-11-13T06:41:09Z</time>
				<extensions>
					<speed>0.0</speed>
				</extensions>
			</trkpt>
			<trkpt lat="22.20437345" lon="113.54574849">
				<ele>18.65167236328125</ele>
				<time>2022-11-13T06:41:10Z</time>
				<extensions>
					<speed>0.0</speed>
				</extensions>
			</trkpt>
			<trkpt lat="22.20437171" lon="113.54574763">
				<ele>18.7706298828125</ele>
				<time>2022-11-13T06:41:11Z</time>
				<extensions>
					<speed>0.0</speed>
				</extensions>
			</trkpt>
			<trkpt lat="22.20437222" lon="113.54574699">
				<ele>18.82269287109375</ele>
				<time>2022-11-13T06:41:12Z</time>
				<extensions>
					<speed>0.0</speed>
				</extensions>
			</trkpt>
			<trkpt lat="22.204374" lon="113.54574546">
				<ele>18.8031005859375</ele>
				<time>2022-11-13T06:41:13Z</time>
				<extensions>
					<speed>0.0</speed>
				</extensions>
			</trkpt>
			<trkpt lat="22.20437031" lon="113.54574381">
				<ele>17.96307373046875</ele>
				<time>2022-11-13T06:41:14Z</time>
				<extensions>
					<speed>0.5199999809265137</speed>
				</extensions>
			</trkpt>
			<trkpt lat="22.20437031" lon="113.54574381">
				<ele>17.96307373046875</ele>
				<time>2022-11-13T06:41:14Z</time>
				<extensions>
					<speed>0.5199999809265137</speed>
				</extensions>
			</trkpt>
			<trkpt lat="22.20436681" lon="113.54573644">
				<ele>16.6719970703125</ele>
				<time>2022-11-13T06:41:15Z</time>
				<extensions>
					<speed>0.699999988079071</speed>
				</extensions>
			</trkpt>
			<trkpt lat="22.20436393" lon="113.54572961">
				<ele>15.74066162109375</ele>
				<time>2022-11-13T06:41:16Z</time>
				<extensions>
					<speed>0.28999999165534973</speed>
				</extensions>
			</trkpt>
			<trkpt lat="22.2043611" lon="113.5457214">
				<ele>15.55950927734375</ele>
				<time>2022-11-13T06:41:17Z</time>
				<extensions>
					<speed>0.6800000071525574</speed>
				</extensions>
			</trkpt>
			<trkpt lat="22.20435778" lon="113.54571233">
				<ele>14.2391357421875</ele>
				<time>2022-11-13T06:41:18Z</time>
				<extensions>
					<speed>0.3199999928474426</speed>
				</extensions>
			</trkpt>
			<trkpt lat="22.20435206" lon="113.54570236">
				<ele>13.98895263671875</ele>
				<time>2022-11-13T06:41:19Z</time>
				<extensions>
					<speed>0.0</speed>
				</extensions>
			</trkpt>
			<trkpt lat="22.20435118" lon="113.54569822">
				<ele>13.061279296875</ele>
				<time>2022-11-13T06:41:20Z</time>
				<extensions>
					<speed>0.0</speed>
				</extensions>
			</trkpt>
			<trkpt lat="22.2043494" lon="113.54569773">
				<ele>12.68499755859375</ele>
				<time>2022-11-13T06:41:21Z</time>
				<extensions>
					<speed>0.0</speed>
				</extensions>
			</trkpt>
			<trkpt lat="22.20434718" lon="113.54569826">
				<ele>12.26434326171875</ele>
				<time>2022-11-13T06:41:22Z</time>
				<extensions>
					<speed>0.0</speed>
				</extensions>
			</trkpt>
			<trkpt lat="22.20434568" lon="113.5456984">
				<ele>12.23626708984375</ele>
				<time>2022-11-13T06:41:23Z</time>
				<extensions>
					<speed>0.0</speed>
				</extensions>
			</trkpt>
			<trkpt lat="22.2043453" lon="113.54569918">
				<ele>11.8857421875</ele>
				<time>2022-11-13T06:41:24Z</time>
				<extensions>
					<speed>0.0</speed>
				</extensions>
			</trkpt>
			<trkpt lat="22.20434541" lon="113.54570107">
				<ele>11.94580078125</ele>
				<time>2022-11-13T06:41:25Z</time>
				<extensions>
					<speed>0.0</speed>
				</extensions>
			</trkpt>
			<trkpt lat="22.20434647" lon="113.54570374">
				<ele>11.970611572265625</ele>
				<time>2022-11-13T06:41:26Z</time>
				<extensions>
					<speed>0.0</speed>
				</extensions>
			</trkpt>
			<trkpt lat="22.20434754" lon="113.54570598">
				<ele>11.780487060546875</ele>
				<time>2022-11-13T06:41:27Z</time>
				<extensions>
					<speed>0.0</speed>
				</extensions>
			</trkpt>
			<trkpt lat="22.20435084" lon="113.5457066">
				<ele>11.304534912109375</ele>
				<time>2022-11-13T06:41:28Z</time>
				<extensions>
					<speed>0.0</speed>
				</extensions>
			</trkpt>
			<trkpt lat="22.20435237" lon="113.5457061">
				<ele>11.173736572265625</ele>
				<time>2022-11-13T06:41:29Z</time>
				<extensions>
					<speed>0.0</speed>
				</extensions>
			</trkpt>
			<trkpt lat="22.20435294" lon="113.54570602">
				<ele>11.107757568359375</ele>
				<time>2022-11-13T06:41:30Z</time>
				<extensions>
					<speed>0.0</speed>
				</extensions>
			</trkpt>
			<trkpt lat="22.20435162" lon="113.5457037">
				<ele>11.112823486328125</ele>
				<time>2022-11-13T06:41:31Z</time>
				<extensions>
					<speed>0.0</speed>
				</extensions>
			</trkpt>
			<trkpt lat="22.20421974" lon="113.54547791">
				<ele>-26.265289306640625</ele>
				<time>2022-11-13T07:52:13Z</time>
				<extensions>
					<speed>0.25</speed>
				</extensions>
			</trkpt>
			<trkpt lat="22.20421043" lon="113.54547311">
				<ele>-8.427581787109375</ele>
				<time>2022-11-13T07:52:14Z</time>
				<extensions>
					<speed>0.0</speed>
				</extensions>
			</trkpt>
			<trkpt lat="22.20444173" lon="113.54537857">
				<ele>45.523681640625</ele>
				<time>2022-11-13T07:52:15Z</time>
				<extensions>
					<speed>0.0</speed>
				</extensions>
			</trkpt>
			<trkpt lat="22.20415358" lon="113.54558454">
				<ele>26.14276123046875</ele>
				<time>2022-11-13T07:55:36Z</time>
				<extensions>
					<speed>0.0</speed>
				</extensions>
			</trkpt>
			<trkpt lat="22.20415358" lon="113.54558454">
				<ele>26.14276123046875</ele>
				<time>2022-11-13T07:55:37Z</time>
				<extensions>
					<speed>0.0</speed>
				</extensions>
			</trkpt>
			<trkpt lat="22.20415358" lon="113.54558454">
				<ele>26.14276123046875</ele>
				<time>2022-11-13T07:55:38Z</time>
				<extensions>
					<speed>0.0</speed>
				</extensions>
			</trkpt>
			<trkpt lat="22.20415342" lon="113.54558595">
				<ele>24.71917724609375</ele>
				<time>2022-11-13T07:55:39Z</time>
				<extensions>
					<speed>0.0</speed>
				</extensions>
			</trkpt>
			<trkpt lat="22.18704617" lon="113.53094544">
				<ele>18.764404296875</ele>
				<time>2022-11-13T08:26:05Z</time>
				<extensions>
					<speed>0.4399999976158142</speed>
				</extensions>
			</trkpt>
			<trkpt lat="22.18704483" lon="113.53094438">
				<ele>18.85430908203125</ele>
				<time>2022-11-13T08:26:06Z</time>
				<extensions>
					<speed>0.4399999976158142</speed>
				</extensions>
			</trkpt>
			<trkpt lat="22.18704157" lon="113.53094182">
				<ele>19.07318115234375</ele>
				<time>2022-11-13T08:26:07Z</time>
				<extensions>
					<speed>0.4399999976158142</speed>
				</extensions>
			</trkpt>
			<trkpt lat="22.1869839" lon="113.53097361">
				<ele>16.840576171875</ele>
				<time>2022-11-13T08:26:08Z</time>
				<extensions>
					<speed>0.6499999761581421</speed>
				</extensions>
			</trkpt>
			<trkpt lat="22.18698376" lon="113.53097408">
				<ele>13.75140380859375</ele>
				<time>2022-11-13T08:26:09Z</time>
				<extensions>
					<speed>0.7599999904632568</speed>
				</extensions>
			</trkpt>
			<trkpt lat="22.18697714" lon="113.5309616">
				<ele>12.41082763671875</ele>
				<time>2022-11-13T08:26:10Z</time>
				<extensions>
					<speed>1.0399999618530273</speed>
				</extensions>
			</trkpt>
			<trkpt lat="22.18697119" lon="113.5309584">
				<ele>11.544281005859375</ele>
				<time>2022-11-13T08:26:11Z</time>
				<extensions>
					<speed>0.949999988079071</speed>
				</extensions>
			</trkpt>
			<trkpt lat="22.18696707" lon="113.53095702">
				<ele>9.28118896484375</ele>
				<time>2022-11-13T08:26:12Z</time>
				<extensions>
					<speed>0.7099999785423279</speed>
				</extensions>
			</trkpt>
			<trkpt lat="22.18695523" lon="113.53095359">
				<ele>10.126007080078125</ele>
				<time>2022-11-13T08:26:13Z</time>
				<extensions>
					<speed>0.75</speed>
				</extensions>
			</trkpt>
			<trkpt lat="22.18694125" lon="113.5309556">
				<ele>9.177703857421875</ele>
				<time>2022-11-13T08:26:14Z</time>
				<extensions>
					<speed>0.5</speed>
				</extensions>
			</trkpt>
			<trkpt lat="22.18694021" lon="113.53095954">
				<ele>6.8856201171875</ele>
				<time>2022-11-13T08:26:15Z</time>
				<extensions>
					<speed>0.0</speed>
				</extensions>
			</trkpt>
			<trkpt lat="22.18693898" lon="113.53095982">
				<ele>6.22412109375</ele>
				<time>2022-11-13T08:26:16Z</time>
				<extensions>
					<speed>0.0</speed>
				</extensions>
			</trkpt>
			<trkpt lat="22.1869383" lon="113.53095289">
				<ele>5.582183837890625</ele>
				<time>2022-11-13T08:26:17Z</time>
				<extensions>
					<speed>0.0</speed>
				</extensions>
			</trkpt>
			<trkpt lat="22.18693978" lon="113.53095891">
				<ele>4.71142578125</ele>
				<time>2022-11-13T08:26:18Z</time>
				<extensions>
					<speed>0.0</speed>
				</extensions>
			</trkpt>
			<trkpt lat="22.18694235" lon="113.53095915">
				<ele>4.020599365234375</ele>
				<time>2022-11-13T08:26:19Z</time>
				<extensions>
					<speed>0.0</speed>
				</extensions>
			</trkpt>
			<trkpt lat="22.18694549" lon="113.53096036">
				<ele>3.943389892578125</ele>
				<time>2022-11-13T08:26:20Z</time>
				<extensions>
					<speed>0.0</speed>
				</extensions>
			</trkpt>
			<trkpt lat="22.18695104" lon="113.53096051">
				<ele>2.937255859375</ele>
				<time>2022-11-13T08:26:21Z</time>
				<extensions>
					<speed>0.0</speed>
				</extensions>
			</trkpt>
			<trkpt lat="22.1869536" lon="113.53096107">
				<ele>2.470184326171875</ele>
				<time>2022-11-13T08:26:22Z</time>
				<extensions>
					<speed>0.0</speed>
				</extensions>
			</trkpt>
			<trkpt lat="22.18695483" lon="113.5309636">
				<ele>2.448211669921875</ele>
				<time>2022-11-13T08:26:23Z</time>
				<extensions>
					<speed>0.0</speed>
				</extensions>
			</trkpt>
			<trkpt lat="22.18695546" lon="113.53095606">
				<ele>1.716217041015625</ele>
				<time>2022-11-13T08:26:24Z</time>
				<extensions>
					<speed>0.5699999928474426</speed>
				</extensions>
			</trkpt>
			<trkpt lat="22.18695642" lon="113.53094994">
				<ele>1.810516357421875</ele>
				<time>2022-11-13T08:26:25Z</time>
				<extensions>
					<speed>0.7200000286102295</speed>
				</extensions>
			</trkpt>
			<trkpt lat="22.18695782" lon="113.53094169">
				<ele>0.6505126953125</ele>
				<time>2022-11-13T08:26:26Z</time>
				<extensions>
					<speed>0.7699999809265137</speed>
				</extensions>
			</trkpt>
			<trkpt lat="22.18695431" lon="113.53093456">
				<ele>1.035491943359375</ele>
				<time>2022-11-13T08:26:27Z</time>
				<extensions>
					<speed>0.7400000095367432</speed>
				</extensions>
			</trkpt>
			<trkpt lat="22.18694871" lon="113.5309282">
				<ele>0.41650390625</ele>
				<time>2022-11-13T08:26:28Z</time>
				<extensions>
					<speed>0.8500000238418579</speed>
				</extensions>
			</trkpt>
			<trkpt lat="22.18694284" lon="113.5309227">
				<ele>0.72613525390625</ele>
				<time>2022-11-13T08:26:29Z</time>
				<extensions>
					<speed>0.6100000143051147</speed>
				</extensions>
			</trkpt>
			<trkpt lat="22.18693551" lon="113.53091918">
				<ele>1.056427001953125</ele>
				<time>2022-11-13T08:26:30Z</time>
				<extensions>
					<speed>0.9100000262260437</speed>
				</extensions>
			</trkpt>
			<trkpt lat="22.18692739" lon="113.53091797">
				<ele>1.02020263671875</ele>
				<time>2022-11-13T08:26:31Z</time>
				<extensions>
					<speed>0.6800000071525574</speed>
				</extensions>
			</trkpt>
			<trkpt lat="22.18692157" lon="113.53091868">
				<ele>1.551177978515625</ele>
				<time>2022-11-13T08:26:32Z</time>
				<extensions>
					<speed>0.33000001311302185</speed>
				</extensions>
			</trkpt>
			<trkpt lat="22.18691791" lon="113.53092179">
				<ele>2.18243408203125</ele>
				<time>2022-11-13T08:26:33Z</time>
				<extensions>
					<speed>0.0</speed>
				</extensions>
			</trkpt>
			<trkpt lat="22.18691705" lon="113.5309207">
				<ele>1.985137939453125</ele>
				<time>2022-11-13T08:26:34Z</time>
				<extensions>
					<speed>0.0</speed>
				</extensions>
			</trkpt>
			<trkpt lat="22.18691562" lon="113.53092141">
				<ele>1.598419189453125</ele>
				<time>2022-11-13T08:26:35Z</time>
				<extensions>
					<speed>0.38999998569488525</speed>
				</extensions>
			</trkpt>
			<trkpt lat="22.18691565" lon="113.53092688">
				<ele>1.159881591796875</ele>
				<time>2022-11-13T08:26:36Z</time>
				<extensions>
					<speed>0.7799999713897705</speed>
				</extensions>
			</trkpt>
			<trkpt lat="22.18691565" lon="113.53092688">
				<ele>1.159881591796875</ele>
				<time>2022-11-13T08:26:36Z</time>
				<extensions>
					<speed>0.7799999713897705</speed>
				</extensions>
			</trkpt>
			<trkpt lat="22.18691783" lon="113.53093796">
				<ele>0.415435791015625</ele>
				<time>2022-11-13T08:26:37Z</time>
				<extensions>
					<speed>1.2999999523162842</speed>
				</extensions>
			</trkpt>
			<trkpt lat="22.18692277" lon="113.53095036">
				<ele>0.52099609375</ele>
				<time>2022-11-13T08:26:38Z</time>
				<extensions>
					<speed>1.2599999904632568</speed>
				</extensions>
			</trkpt>
			<trkpt lat="22.18692949" lon="113.53096213">
				<ele>-0.068084716796875</ele>
				<time>2022-11-13T08:26:39Z</time>
				<extensions>
					<speed>1.1799999475479126</speed>
				</extensions>
			</trkpt>
			<trkpt lat="22.18693742" lon="113.5309715">
				<ele>-0.53265380859375</ele>
				<time>2022-11-13T08:26:40Z</time>
				<extensions>
					<speed>0.9900000095367432</speed>
				</extensions>
			</trkpt>
			<trkpt lat="22.18694726" lon="113.53097882">
				<ele>0.20904541015625</ele>
				<time>2022-11-13T08:26:41Z</time>
				<extensions>
					<speed>1.1100000143051147</speed>
				</extensions>
			</trkpt>
			<trkpt lat="22.18695922" lon="113.530987">
				<ele>0.7303466796875</ele>
				<time>2022-11-13T08:26:42Z</time>
				<extensions>
					<speed>1.4900000095367432</speed>
				</extensions>
			</trkpt>
			<trkpt lat="22.18697109" lon="113.5309932">
				<ele>1.08270263671875</ele>
				<time>2022-11-13T08:26:43Z</time>
				<extensions>
					<speed>1.0299999713897705</speed>
				</extensions>
			</trkpt>
			<trkpt lat="22.186981" lon="113.53099794">
				<ele>1.795074462890625</ele>
				<time>2022-11-13T08:26:44Z</time>
				<extensions>
					<speed>0.9100000262260437</speed>
				</extensions>
			</trkpt>
			<trkpt lat="22.18699103" lon="113.53100314">
				<ele>2.41595458984375</ele>
				<time>2022-11-13T08:26:45Z</time>
				<extensions>
					<speed>1.2200000286102295</speed>
				</extensions>
			</trkpt>
			<trkpt lat="22.18700069" lon="113.53100967">
				<ele>2.8223876953125</ele>
				<time>2022-11-13T08:26:46Z</time>
				<extensions>
					<speed>1.090000033378601</speed>
				</extensions>
			</trkpt>
			<trkpt lat="22.18701189" lon="113.53102016">
				<ele>0.59765625</ele>
				<time>2022-11-13T08:26:47Z</time>
				<extensions>
					<speed>1.840000033378601</speed>
				</extensions>
			</trkpt>
			<trkpt lat="22.1870227" lon="113.53102968">
				<ele>0.781829833984375</ele>
				<time>2022-11-13T08:26:48Z</time>
				<extensions>
					<speed>0.9800000190734863</speed>
				</extensions>
			</trkpt>
			<trkpt lat="22.18702783" lon="113.5310361">
				<ele>0.26690673828125</ele>
				<time>2022-11-13T08:26:49Z</time>
				<extensions>
					<speed>0.7099999785423279</speed>
				</extensions>
			</trkpt>
			<trkpt lat="22.1870342" lon="113.53104486">
				<ele>0.14581298828125</ele>
				<time>2022-11-13T08:26:50Z</time>
				<extensions>
					<speed>1.4299999475479126</speed>
				</extensions>
			</trkpt>
			<trkpt lat="22.18704247" lon="113.53105514">
				<ele>0.228057861328125</ele>
				<time>2022-11-13T08:26:51Z</time>
				<extensions>
					<speed>1.399999976158142</speed>
				</extensions>
			</trkpt>
			<trkpt lat="22.18704971" lon="113.53106277">
				<ele>-0.197021484375</ele>
				<time>2022-11-13T08:26:52Z</time>
				<extensions>
					<speed>0.9200000166893005</speed>
				</extensions>
			</trkpt>
			<trkpt lat="22.18705716" lon="113.53106921">
				<ele>-0.1549072265625</ele>
				<time>2022-11-13T08:26:53Z</time>
				<extensions>
					<speed>1.190000057220459</speed>
				</extensions>
			</trkpt>
			<trkpt lat="22.18706317" lon="113.53107485">
				<ele>-0.22808837890625</ele>
				<time>2022-11-13T08:26:54Z</time>
				<extensions>
					<speed>0.7300000190734863</speed>
				</extensions>
			</trkpt>
			<trkpt lat="22.18706974" lon="113.5310802">
				<ele>0.68731689453125</ele>
				<time>2022-11-13T08:26:55Z</time>
				<extensions>
					<speed>1.2400000095367432</speed>
				</extensions>
			</trkpt>
			<trkpt lat="22.18813367" lon="113.53113237">
				<ele>21.07562255859375</ele>
				<time>2022-11-13T08:31:09Z</time>
				<extensions>
					<speed>0.0</speed>
				</extensions>
			</trkpt>
			<trkpt lat="22.18804832" lon="113.53119673">
				<ele>46.37628173828125</ele>
				<time>2022-11-13T08:31:10Z</time>
				<extensions>
					<speed>0.0</speed>
				</extensions>
			</trkpt>
			<trkpt lat="22.18802676" lon="113.53120951">
				<ele>70.213134765625</ele>
				<time>2022-11-13T08:31:11Z</time>
				<extensions>
					<speed>0.0</speed>
				</extensions>
			</trkpt>
			<trkpt lat="22.18798062" lon="113.5312016">
				<ele>84.91973876953125</ele>
				<time>2022-11-13T08:31:12Z</time>
				<extensions>
					<speed>0.0</speed>
				</extensions>
			</trkpt>
			<trkpt lat="22.18802373" lon="113.5311989">
				<ele>77.07806396484375</ele>
				<time>2022-11-13T08:31:13Z</time>
				<extensions>
					<speed>0.0</speed>
				</extensions>
			</trkpt>
			<trkpt lat="22.18800093" lon="113.5312441">
				<ele>83.9200439453125</ele>
				<time>2022-11-13T08:31:14Z</time>
				<extensions>
					<speed>0.0</speed>
				</extensions>
			</trkpt>
			<trkpt lat="22.18808334" lon="113.53121924">
				<ele>72.9202880859375</ele>
				<time>2022-11-13T08:31:15Z</time>
				<extensions>
					<speed>0.0</speed>
				</extensions>
			</trkpt>
			<trkpt lat="22.18811183" lon="113.53119693">
				<ele>71.14794921875</ele>
				<time>2022-11-13T08:31:16Z</time>
				<extensions>
					<speed>0.44999998807907104</speed>
				</extensions>
			</trkpt>
			<trkpt lat="22.188117" lon="113.53119179">
				<ele>54.61297607421875</ele>
				<time>2022-11-13T08:31:17Z</time>
				<extensions>
					<speed>0.0</speed>
				</extensions>
			</trkpt>
			<trkpt lat="22.18810876" lon="113.53120368">
				<ele>59.5445556640625</ele>
				<time>2022-11-13T08:31:18Z</time>
				<extensions>
					<speed>0.0</speed>
				</extensions>
			</trkpt>
			<trkpt lat="22.18811405" lon="113.53120986">
				<ele>54.4677734375</ele>
				<time>2022-11-13T08:31:19Z</time>
				<extensions>
					<speed>0.0</speed>
				</extensions>
			</trkpt>
			<trkpt lat="22.1881197" lon="113.53121123">
				<ele>53.73724365234375</ele>
				<time>2022-11-13T08:31:20Z</time>
				<extensions>
					<speed>0.0</speed>
				</extensions>
			</trkpt>
			<trkpt lat="22.18813835" lon="113.53119934">
				<ele>48.3538818359375</ele>
				<time>2022-11-13T08:31:21Z</time>
				<extensions>
					<speed>0.0</speed>
				</extensions>
			</trkpt>
			<trkpt lat="22.18814419" lon="113.53118704">
				<ele>46.6824951171875</ele>
				<time>2022-11-13T08:31:22Z</time>
				<extensions>
					<speed>0.0</speed>
				</extensions>
			</trkpt>
			<trkpt lat="22.18813601" lon="113.53118229">
				<ele>44.65704345703125</ele>
				<time>2022-11-13T08:31:23Z</time>
				<extensions>
					<speed>0.0</speed>
				</extensions>
			</trkpt>
			<trkpt lat="22.18813724" lon="113.53118242">
				<ele>44.1993408203125</ele>
				<time>2022-11-13T08:31:24Z</time>
				<extensions>
					<speed>0.0</speed>
				</extensions>
			</trkpt>
			<trkpt lat="22.18812869" lon="113.53118039">
				<ele>47.119384765625</ele>
				<time>2022-11-13T08:31:25Z</time>
				<extensions>
					<speed>0.0</speed>
				</extensions>
			</trkpt>
			<trkpt lat="22.18812899" lon="113.53119214">
				<ele>46.4180908203125</ele>
				<time>2022-11-13T08:31:26Z</time>
				<extensions>
					<speed>0.0</speed>
				</extensions>
			</trkpt>
			<trkpt lat="22.18812448" lon="113.53119852">
				<ele>46.49822998046875</ele>
				<time>2022-11-13T08:31:27Z</time>
				<extensions>
					<speed>0.0</speed>
				</extensions>
			</trkpt>
			<trkpt lat="22.18812253" lon="113.53119751">
				<ele>45.71453857421875</ele>
				<time>2022-11-13T08:31:28Z</time>
				<extensions>
					<speed>0.0</speed>
				</extensions>
			</trkpt>
			<trkpt lat="22.18812225" lon="113.53119846">
				<ele>46.093994140625</ele>
				<time>2022-11-13T08:31:29Z</time>
				<extensions>
					<speed>0.0</speed>
				</extensions>
			</trkpt>
			<trkpt lat="22.18812264" lon="113.5312058">
				<ele>47.17919921875</ele>
				<time>2022-11-13T08:31:30Z</time>
				<extensions>
					<speed>0.0</speed>
				</extensions>
			</trkpt>
			<trkpt lat="22.18811915" lon="113.53120481">
				<ele>45.42486572265625</ele>
				<time>2022-11-13T08:31:31Z</time>
				<extensions>
					<speed>0.0</speed>
				</extensions>
			</trkpt>
			<trkpt lat="22.18811221" lon="113.53122433">
				<ele>44.46307373046875</ele>
				<time>2022-11-13T08:31:32Z</time>
				<extensions>
					<speed>0.0</speed>
				</extensions>
			</trkpt>
			<trkpt lat="22.18811261" lon="113.53122492">
				<ele>43.91937255859375</ele>
				<time>2022-11-13T08:31:33Z</time>
				<extensions>
					<speed>0.0</speed>
				</extensions>
			</trkpt>
			<trkpt lat="22.18811407" lon="113.53122427">
				<ele>44.1617431640625</ele>
				<time>2022-11-13T08:31:34Z</time>
				<extensions>
					<speed>0.0</speed>
				</extensions>
			</trkpt>
			<trkpt lat="22.18811766" lon="113.53122388">
				<ele>43.3603515625</ele>
				<time>2022-11-13T08:31:35Z</time>
				<extensions>
					<speed>0.0</speed>
				</extensions>
			</trkpt>
			<trkpt lat="22.18811552" lon="113.53122395">
				<ele>43.84661865234375</ele>
				<time>2022-11-13T08:31:36Z</time>
				<extensions>
					<speed>0.0</speed>
				</extensions>
			</trkpt>
			<trkpt lat="22.18811323" lon="113.5312241">
				<ele>44.2667236328125</ele>
				<time>2022-11-13T08:31:37Z</time>
				<extensions>
					<speed>0.0</speed>
				</extensions>
			</trkpt>
			<trkpt lat="22.18811441" lon="113.53122287">
				<ele>44.223876953125</ele>
				<time>2022-11-13T08:31:38Z</time>
				<extensions>
					<speed>0.0</speed>
				</extensions>
			</trkpt>
			<trkpt lat="22.18639864" lon="113.53086998">
				<ele>3.3721923828125</ele>
				<time>2022-11-13T09:35:17Z</time>
				<extensions>
					<speed>1.1399999856948853</speed>
				</extensions>
			</trkpt>
			<trkpt lat="22.18639472" lon="113.53087102">
				<ele>3.246826171875</ele>
				<time>2022-11-13T09:35:18Z</time>
				<extensions>
					<speed>1.1399999856948853</speed>
				</extensions>
			</trkpt>
			<trkpt lat="22.18638472" lon="113.53087367">
				<ele>2.927001953125</ele>
				<time>2022-11-13T09:35:19Z</time>
				<extensions>
					<speed>1.1399999856948853</speed>
				</extensions>
			</trkpt>
			<trkpt lat="22.18639515" lon="113.53087176">
				<ele>1.12274169921875</ele>
				<time>2022-11-13T09:35:20Z</time>
				<extensions>
					<speed>1.059999942779541</speed>
				</extensions>
			</trkpt>
			<trkpt lat="22.18638248" lon="113.53087166">
				<ele>1.743804931640625</ele>
				<time>2022-11-13T09:35:21Z</time>
				<extensions>
					<speed>1.100000023841858</speed>
				</extensions>
			</trkpt>
			<trkpt lat="22.18637764" lon="113.53087501">
				<ele>0.70391845703125</ele>
				<time>2022-11-13T09:35:22Z</time>
				<extensions>
					<speed>1.1799999475479126</speed>
				</extensions>
			</trkpt>
			<trkpt lat="22.18638061" lon="113.53087592">
				<ele>-1.422760009765625</ele>
				<time>2022-11-13T09:35:23Z</time>
				<extensions>
					<speed>1.2400000095367432</speed>
				</extensions>
			</trkpt>
			<trkpt lat="22.18637478" lon="113.53087168">
				<ele>-2.42034912109375</ele>
				<time>2022-11-13T09:35:24Z</time>
				<extensions>
					<speed>1.2100000381469727</speed>
				</extensions>
			</trkpt>
			<trkpt lat="22.18636363" lon="113.53086568">
				<ele>-1.973236083984375</ele>
				<time>2022-11-13T09:35:25Z</time>
				<extensions>
					<speed>1.1799999475479126</speed>
				</extensions>
			</trkpt>
			<trkpt lat="22.18635544" lon="113.53086983">
				<ele>-2.418304443359375</ele>
				<time>2022-11-13T09:35:26Z</time>
				<extensions>
					<speed>1.0800000429153442</speed>
				</extensions>
			</trkpt>
			<trkpt lat="22.18633808" lon="113.5308717">
				<ele>-2.391021728515625</ele>
				<time>2022-11-13T09:35:27Z</time>
				<extensions>
					<speed>1.309999942779541</speed>
				</extensions>
			</trkpt>
			<trkpt lat="22.18633808" lon="113.5308717">
				<ele>-2.391021728515625</ele>
				<time>2022-11-13T09:35:27Z</time>
				<extensions>
					<speed>1.309999942779541</speed>
				</extensions>
			</trkpt>
			<trkpt lat="22.18632616" lon="113.53086761">
				<ele>-2.50048828125</ele>
				<time>2022-11-13T09:35:28Z</time>
				<extensions>
					<speed>1.100000023841858</speed>
				</extensions>
			</trkpt>
			<trkpt lat="22.18630815" lon="113.53087252">
				<ele>-1.7999267578125</ele>
				<time>2022-11-13T09:35:29Z</time>
				<extensions>
					<speed>1.2599999904632568</speed>
				</extensions>
			</trkpt>
			<trkpt lat="22.18629469" lon="113.5308785">
				<ele>-1.1309814453125</ele>
				<time>2022-11-13T09:35:30Z</time>
				<extensions>
					<speed>1.3600000143051147</speed>
				</extensions>
			</trkpt>
			<trkpt lat="22.18628479" lon="113.53088577">
				<ele>-0.56500244140625</ele>
				<time>2022-11-13T09:35:31Z</time>
				<extensions>
					<speed>1.059999942779541</speed>
				</extensions>
			</trkpt>
			<trkpt lat="22.18627534" lon="113.53089339">
				<ele>-0.32244873046875</ele>
				<time>2022-11-13T09:35:32Z</time>
				<extensions>
					<speed>1.3799999952316284</speed>
				</extensions>
			</trkpt>
			<trkpt lat="22.18626746" lon="113.53090099">
				<ele>-0.0367431640625</ele>
				<time>2022-11-13T09:35:33Z</time>
				<extensions>
					<speed>0.9599999785423279</speed>
				</extensions>
			</trkpt>
			<trkpt lat="22.18626119" lon="113.53090952">
				<ele>-0.150054931640625</ele>
				<time>2022-11-13T09:35:34Z</time>
				<extensions>
					<speed>1.2599999904632568</speed>
				</extensions>
			</trkpt>
			<trkpt lat="22.18625666" lon="113.53091784">
				<ele>-0.359893798828125</ele>
				<time>2022-11-13T09:35:35Z</time>
				<extensions>
					<speed>0.9599999785423279</speed>
				</extensions>
			</trkpt>
			<trkpt lat="22.18625163" lon="113.53092742">
				<ele>0.436798095703125</ele>
				<time>2022-11-13T09:35:36Z</time>
				<extensions>
					<speed>1.2599999904632568</speed>
				</extensions>
			</trkpt>
			<trkpt lat="22.1862466" lon="113.53093702">
				<ele>0.922698974609375</ele>
				<time>2022-11-13T09:35:37Z</time>
				<extensions>
					<speed>1.1200000047683716</speed>
				</extensions>
			</trkpt>
			<trkpt lat="22.18624424" lon="113.53094832">
				<ele>-0.19512939453125</ele>
				<time>2022-11-13T09:35:38Z</time>
				<extensions>
					<speed>1.3899999856948853</speed>
				</extensions>
			</trkpt>
			<trkpt lat="22.18624096" lon="113.53095974">
				<ele>-1.095703125</ele>
				<time>2022-11-13T09:35:39Z</time>
				<extensions>
					<speed>1.309999942779541</speed>
				</extensions>
			</trkpt>
			<trkpt lat="22.1862382" lon="113.53096861">
				<ele>-1.446075439453125</ele>
				<time>2022-11-13T09:35:40Z</time>
				<extensions>
					<speed>1.0199999809265137</speed>
				</extensions>
			</trkpt>
			<trkpt lat="22.18623459" lon="113.53097678">
				<ele>-1.710845947265625</ele>
				<time>2022-11-13T09:35:41Z</time>
				<extensions>
					<speed>1.2899999618530273</speed>
				</extensions>
			</trkpt>
			<trkpt lat="22.18623122" lon="113.53098519">
				<ele>-1.629364013671875</ele>
				<time>2022-11-13T09:35:42Z</time>
				<extensions>
					<speed>1.1699999570846558</speed>
				</extensions>
			</trkpt>
			<trkpt lat="22.18622886" lon="113.53099398">
				<ele>-2.318695068359375</ele>
				<time>2022-11-13T09:35:43Z</time>
				<extensions>
					<speed>1.2200000286102295</speed>
				</extensions>
			</trkpt>
			<trkpt lat="22.18622363" lon="113.53100404">
				<ele>-2.993988037109375</ele>
				<time>2022-11-13T09:35:44Z</time>
				<extensions>
					<speed>1.5199999809265137</speed>
				</extensions>
			</trkpt>
			<trkpt lat="22.18621861" lon="113.53101246">
				<ele>-3.21539306640625</ele>
				<time>2022-11-13T09:35:45Z</time>
				<extensions>
					<speed>1.149999976158142</speed>
				</extensions>
			</trkpt>
			<trkpt lat="22.18621533" lon="113.53101883">
				<ele>-3.957794189453125</ele>
				<time>2022-11-13T09:35:46Z</time>
				<extensions>
					<speed>0.9700000286102295</speed>
				</extensions>
			</trkpt>
			<trkpt lat="22.18621164" lon="113.5310292">
				<ele>-4.650543212890625</ele>
				<time>2022-11-13T09:35:47Z</time>
				<extensions>
					<speed>1.5700000524520874</speed>
				</extensions>
			</trkpt>
			<trkpt lat="22.18620346" lon="113.53103828">
				<ele>-5.377655029296875</ele>
				<time>2022-11-13T09:35:48Z</time>
				<extensions>
					<speed>1.350000023841858</speed>
				</extensions>
			</trkpt>
			<trkpt lat="22.18619593" lon="113.53104505">
				<ele>-6.059844970703125</ele>
				<time>2022-11-13T09:35:49Z</time>
				<extensions>
					<speed>1.159999966621399</speed>
				</extensions>
			</trkpt>
			<trkpt lat="22.18618601" lon="113.53105101">
				<ele>-6.0037841796875</ele>
				<time>2022-11-13T09:35:50Z</time>
				<extensions>
					<speed>1.2799999713897705</speed>
				</extensions>
			</trkpt>
			<trkpt lat="22.18617606" lon="113.53105714">
				<ele>-6.214447021484375</ele>
				<time>2022-11-13T09:35:51Z</time>
				<extensions>
					<speed>1.159999966621399</speed>
				</extensions>
			</trkpt>
			<trkpt lat="22.18616626" lon="113.53106189">
				<ele>-6.2154541015625</ele>
				<time>2022-11-13T09:35:52Z</time>
				<extensions>
					<speed>1.25</speed>
				</extensions>
			</trkpt>
			<trkpt lat="22.18615518" lon="113.5310665">
				<ele>-5.345703125</ele>
				<time>2022-11-13T09:35:53Z</time>
				<extensions>
					<speed>1.1399999856948853</speed>
				</extensions>
			</trkpt>
			<trkpt lat="22.18614499" lon="113.53107121">
				<ele>-4.971435546875</ele>
				<time>2022-11-13T09:35:54Z</time>
				<extensions>
					<speed>1.0700000524520874</speed>
				</extensions>
			</trkpt>
			<trkpt lat="22.18613649" lon="113.53107629">
				<ele>-5.75579833984375</ele>
				<time>2022-11-13T09:35:55Z</time>
				<extensions>
					<speed>1.0800000429153442</speed>
				</extensions>
			</trkpt>
			<trkpt lat="22.18612851" lon="113.53108336">
				<ele>-4.975677490234375</ele>
				<time>2022-11-13T09:35:56Z</time>
				<extensions>
					<speed>1.1299999952316284</speed>
				</extensions>
			</trkpt>
			<trkpt lat="22.18612025" lon="113.53109215">
				<ele>-5.53802490234375</ele>
				<time>2022-11-13T09:35:57Z</time>
				<extensions>
					<speed>1.3300000429153442</speed>
				</extensions>
			</trkpt>
			<trkpt lat="22.18611123" lon="113.53110092">
				<ele>-5.6978759765625</ele>
				<time>2022-11-13T09:35:58Z</time>
				<extensions>
					<speed>1.309999942779541</speed>
				</extensions>
			</trkpt>
			<trkpt lat="22.18610254" lon="113.53110836">
				<ele>-6.05584716796875</ele>
				<time>2022-11-13T09:35:59Z</time>
				<extensions>
					<speed>1.1200000047683716</speed>
				</extensions>
			</trkpt>
			<trkpt lat="22.18609292" lon="113.53111571">
				<ele>-5.79486083984375</ele>
				<time>2022-11-13T09:36:00Z</time>
				<extensions>
					<speed>1.3200000524520874</speed>
				</extensions>
			</trkpt>
			<trkpt lat="22.18608201" lon="113.53112181">
				<ele>-5.67620849609375</ele>
				<time>2022-11-13T09:36:01Z</time>
				<extensions>
					<speed>1.2400000095367432</speed>
				</extensions>
			</trkpt>
			<trkpt lat="22.18606961" lon="113.53112709">
				<ele>-5.13922119140625</ele>
				<time>2022-11-13T09:36:02Z</time>
				<extensions>
					<speed>1.4299999475479126</speed>
				</extensions>
			</trkpt>
			<trkpt lat="22.18605609" lon="113.53113191">
				<ele>-4.901153564453125</ele>
				<time>2022-11-13T09:36:03Z</time>
				<extensions>
					<speed>1.2100000381469727</speed>
				</extensions>
			</trkpt>
			<trkpt lat="22.1804746" lon="113.53967021">
				<ele>2.741790771484375</ele>
				<time>2022-11-13T09:57:42Z</time>
				<extensions>
					<speed>1.0</speed>
				</extensions>
			</trkpt>
			<trkpt lat="22.1804742" lon="113.53967409">
				<ele>2.657501220703125</ele>
				<time>2022-11-13T09:57:43Z</time>
				<extensions>
					<speed>1.0</speed>
				</extensions>
			</trkpt>
			<trkpt lat="22.1804732" lon="113.53968378">
				<ele>2.44677734375</ele>
				<time>2022-11-13T09:57:44Z</time>
				<extensions>
					<speed>1.0</speed>
				</extensions>
			</trkpt>
			<trkpt lat="22.18045682" lon="113.53968734">
				<ele>4.1129150390625</ele>
				<time>2022-11-13T09:57:45Z</time>
				<extensions>
					<speed>1.090000033378601</speed>
				</extensions>
			</trkpt>
			<trkpt lat="22.18045361" lon="113.53969515">
				<ele>3.466949462890625</ele>
				<time>2022-11-13T09:57:46Z</time>
				<extensions>
					<speed>1.1799999475479126</speed>
				</extensions>
			</trkpt>
			<trkpt lat="22.18043012" lon="113.53968538">
				<ele>-11.760284423828125</ele>
				<time>2022-11-13T11:06:47Z</time>
				<extensions>
					<speed>0.0</speed>
				</extensions>
			</trkpt>
			<trkpt lat="22.18042964" lon="113.53968528">
				<ele>-11.734649658203125</ele>
				<time>2022-11-13T11:06:48Z</time>
				<extensions>
					<speed>0.0</speed>
				</extensions>
			</trkpt>
			<trkpt lat="22.18042845" lon="113.53968504">
				<ele>-11.671234130859375</ele>
				<time>2022-11-13T11:06:49Z</time>
				<extensions>
					<speed>0.0</speed>
				</extensions>
			</trkpt>
			<trkpt lat="22.18042106" lon="113.5396948">
				<ele>-8.160614013671875</ele>
				<time>2022-11-13T11:06:50Z</time>
				<extensions>
					<speed>0.0</speed>
				</extensions>
			</trkpt>
			<trkpt lat="22.18042327" lon="113.53968624">
				<ele>-10.1148681640625</ele>
				<time>2022-11-13T11:06:51Z</time>
				<extensions>
					<speed>0.0</speed>
				</extensions>
			</trkpt>
			<trkpt lat="22.18042331" lon="113.53968667">
				<ele>-9.22314453125</ele>
				<time>2022-11-13T11:06:52Z</time>
				<extensions>
					<speed>0.0</speed>
				</extensions>
			</trkpt>
			<trkpt lat="22.18042736" lon="113.53967272">
				<ele>-9.96258544921875</ele>
				<time>2022-11-13T11:06:53Z</time>
				<extensions>
					<speed>0.0</speed>
				</extensions>
			</trkpt>
			<trkpt lat="22.18043159" lon="113.53967951">
				<ele>-10.27838134765625</ele>
				<time>2022-11-13T11:06:54Z</time>
				<extensions>
					<speed>0.0</speed>
				</extensions>
			</trkpt>
			<trkpt lat="22.18043159" lon="113.53967951">
				<ele>-10.27838134765625</ele>
				<time>2022-11-13T11:06:54Z</time>
				<extensions>
					<speed>0.0</speed>
				</extensions>
			</trkpt>
			<trkpt lat="22.18043073" lon="113.53969021">
				<ele>-9.45074462890625</ele>
				<time>2022-11-13T11:06:55Z</time>
				<extensions>
					<speed>0.0</speed>
				</extensions>
			</trkpt>
			<trkpt lat="22.18043596" lon="113.5396977">
				<ele>-9.03106689453125</ele>
				<time>2022-11-13T11:06:56Z</time>
				<extensions>
					<speed>0.0</speed>
				</extensions>
			</trkpt>
			<trkpt lat="22.18043879" lon="113.53970381">
				<ele>-8.40875244140625</ele>
				<time>2022-11-13T11:06:57Z</time>
				<extensions>
					<speed>0.0</speed>
				</extensions>
			</trkpt>
			<trkpt lat="22.18043942" lon="113.53970521">
				<ele>-8.2635498046875</ele>
				<time>2022-11-13T11:06:58Z</time>
				<extensions>
					<speed>0.0</speed>
				</extensions>
			</trkpt>
			<trkpt lat="22.18043705" lon="113.53970554">
				<ele>-8.074188232421875</ele>
				<time>2022-11-13T11:06:59Z</time>
				<extensions>
					<speed>0.0</speed>
				</extensions>
			</trkpt>
			<trkpt lat="22.18043309" lon="113.53970459">
				<ele>-8.21685791015625</ele>
				<time>2022-11-13T11:07:00Z</time>
				<extensions>
					<speed>0.0</speed>
				</extensions>
			</trkpt>
			<trkpt lat="22.18043182" lon="113.53970135">
				<ele>-8.639923095703125</ele>
				<time>2022-11-13T11:07:01Z</time>
				<extensions>
					<speed>0.0</speed>
				</extensions>
			</trkpt>
			<trkpt lat="22.18043098" lon="113.53970266">
				<ele>-8.983734130859375</ele>
				<time>2022-11-13T11:07:02Z</time>
				<extensions>
					<speed>0.0</speed>
				</extensions>
			</trkpt>
			<trkpt lat="22.1804244" lon="113.53970357">
				<ele>-9.14312744140625</ele>
				<time>2022-11-13T11:07:03Z</time>
				<extensions>
					<speed>0.0</speed>
				</extensions>
			</trkpt>
			<trkpt lat="22.18042013" lon="113.53970184">
				<ele>-8.874969482421875</ele>
				<time>2022-11-13T11:07:04Z</time>
				<extensions>
					<speed>0.0</speed>
				</extensions>
			</trkpt>
			<trkpt lat="22.18042457" lon="113.53970474">
				<ele>-8.761138916015625</ele>
				<time>2022-11-13T11:07:05Z</time>
				<extensions>
					<speed>0.0</speed>
				</extensions>
			</trkpt>
			<trkpt lat="22.1804252" lon="113.53971045">
				<ele>-8.5809326171875</ele>
				<time>2022-11-13T11:07:06Z</time>
				<extensions>
					<speed>0.1599999964237213</speed>
				</extensions>
			</trkpt>
			<trkpt lat="22.18042986" lon="113.53971451">
				<ele>-8.4404296875</ele>
				<time>2022-11-13T11:07:07Z</time>
				<extensions>
					<speed>0.2199999988079071</speed>
				</extensions>
			</trkpt>
			<trkpt lat="22.18043103" lon="113.53971095">
				<ele>-8.111968994140625</ele>
				<time>2022-11-13T11:07:08Z</time>
				<extensions>
					<speed>0.0</speed>
				</extensions>
			</trkpt>
			<trkpt lat="22.18043293" lon="113.53971299">
				<ele>-7.902862548828125</ele>
				<time>2022-11-13T11:07:09Z</time>
				<extensions>
					<speed>0.0</speed>
				</extensions>
			</trkpt>
			<trkpt lat="22.18043527" lon="113.53971294">
				<ele>-7.831817626953125</ele>
				<time>2022-11-13T11:07:10Z</time>
				<extensions>
					<speed>0.0</speed>
				</extensions>
			</trkpt>
			<trkpt lat="22.18043605" lon="113.53971069">
				<ele>-7.750885009765625</ele>
				<time>2022-11-13T11:07:11Z</time>
				<extensions>
					<speed>0.0</speed>
				</extensions>
			</trkpt>
			<trkpt lat="22.18043688" lon="113.53970713">
				<ele>-7.5098876953125</ele>
				<time>2022-11-13T11:07:12Z</time>
				<extensions>
					<speed>0.0</speed>
				</extensions>
			</trkpt>
			<trkpt lat="22.18043914" lon="113.5397042">
				<ele>-7.51824951171875</ele>
				<time>2022-11-13T11:07:13Z</time>
				<extensions>
					<speed>0.0</speed>
				</extensions>
			</trkpt>
			<trkpt lat="22.18044164" lon="113.53970295">
				<ele>-7.59210205078125</ele>
				<time>2022-11-13T11:07:14Z</time>
				<extensions>
					<speed>0.0</speed>
				</extensions>
			</trkpt>
			<trkpt lat="22.18044192" lon="113.53970318">
				<ele>-7.518310546875</ele>
				<time>2022-11-13T11:07:15Z</time>
				<extensions>
					<speed>0.0</speed>
				</extensions>
			</trkpt>
			<trkpt lat="22.1804468" lon="113.53970413">
				<ele>-7.43994140625</ele>
				<time>2022-11-13T11:07:16Z</time>
				<extensions>
					<speed>0.0</speed>
				</extensions>
			</trkpt>
		</trkseg>
	</trk>
</gpx>